GFSGL_sfc_30mbdewp_000.txt.gz
Dewpoint
41 41 42 42 43 43 43 43 43 43 42 42 41 41 41 42 44 46 49 52 55 56 56 57 57 57 57 56 56 55 54 53 52 52 52 52 49 47 45 41 42 43 45
42 43 43 43 43 43 43 44 44 44 44 44 43 43 43 42 42 44 45 47 49 51 53 55 54 55 56 57 56 55 54 54 53 52 52 53 48 44 42 40 41 40 41
44 44 44 44 44 44 44 44 44 44 43 43 44 44 44 44 44 44 44 45 47 49 51 52 52 54 54 54 56 56 54 54 54 54 52 53 49 42 40 40 39 38 38
43 42 42 43 42 41 41 41 41 41 41 41 41 42 42 43 44 44 44 45 48 48 50 51 52 53 53 54 54 55 55 55 54 53 53 52 45 41 41 40 37 38 36
37 38 39 40 38 38 38 38 38 38 39 39 39 39 39 41 40 44 44 44 45 46 47 48 50 51 52 53 54 54 55 55 54 53 52 51 44 40 41 41 41 38 38
35 35 36 36 36 36 36 36 37 37 37 37 37 38 38 38 40 41 43 45 45 45 46 47 48 50 51 52 53 53 54 54 53 52 53 51 48 46 44 42 41 37 34
32 32 31 29 29 30 32 31 32 31 30 33 35 36 37 37 39 40 45 44 44 44 45 46 47 49 50 51 52 53 54 53 54 54 53 52 50 48 45 42 41 38 34
26 26 25 26 26 26 26 26 26 27 28 28 30 34 35 36 37 41 42 40 40 41 43 43 46 47 49 50 51 51 52 53 54 53 53 54 53 50 46 44 41 32 28
21 19 21 22 21 22 22 22 21 22 25 24 25 27 33 33 32 35 33 34 38 39 41 41 42 44 45 48 49 49 49 52 49 49 52 53 53 50 45 38 34 32 25
12 13 15 16 17 17 17 17 16 19 19 20 19 23 28 29 29 30 32 34 33 36 37 37 40 42 43 44 46 47 47 49 45 42 43 44 45 44 42 40 33 30 27
9 10 11 12 12 12 13 14 14 13 17 17 17 19 22 23 22 27 29 32 33 32 29 32 36 40 41 42 42 44 44 48 43 39 36 34 34 33 33 33 33 31 29
10 9 10 10 10 9 10 12 12 11 12 16 16 17 20 18 23 26 28 32 33 31 30 31 34 37 39 41 42 43 45 47 38 34 32 31 30 30 31 31 31 30 28
9 9 10 11 10 10 11 11 11 11 10 13 13 16 15 15 23 25 28 31 33 32 31 32 36 38 40 41 42 42 44 41 35 32 32 30 30 30 30 29 29 28 28
10 11 11 11 12 12 13 12 11 11 12 13 14 15 18 21 22 23 28 31 32 30 32 34 38 41 42 42 42 42 41 37 34 33 32 31 30 28 27 27 25 25 24
11 11 12 13 13 13 13 13 13 14 17 20 21 21 21 21 22 28 30 31 30 30 34 35 36 36 37 38 37 34 33 35 33 31 29 28 27 27 26 26 25 25 23
12 13 13 14 14 15 14 14 16 19 22 24 24 25 23 24 25 29 30 30 31 33 31 32 34 33 34 35 33 32 32 30 29 29 28 27 26 25 25 26 26 24 22
13 13 14 15 15 14 15 17 18 20 20 20 21 23 23 24 28 27 28 29 28 29 29 31 33 32 32 33 32 32 30 29 29 28 27 27 26 25 25 25 24 22 21
14 15 15 16 16 17 19 19 20 19 19 20 21 21 22 24 25 26 25 25 27 27 27 28 32 32 31 31 31 31 28 27 27 27 27 26 26 25 24 24 23 21 20
14 15 15 17 19 19 19 19 20 20 20 20 21 21 23 21 22 23 24 25 26 26 25 27 30 32 31 31 31 29 28 27 27 26 26 26 26 25 24 22 21 21 21
16 17 18 18 19 19 19 20 20 20 21 21 21 22 21 22 22 21 22 24 25 25 24 27 30 32 31 31 30 28 27 28 26 26 26 26 26 26 23 21 21 21 20
17 17 18 19 19 19 19 19 19 20 21 20 20 22 21 20 20 21 22 23 23 24 24 27 30 31 31 31 29 28 28 27 27 26 26 26 26 23 22 21 20 20 18
17 18 19 19 18 18 18 19 19 19 20 21 22 23 22 21 21 20 21 23 23 23 24 29 30 31 31 30 29 28 27 26 26 26 25 25 24 21 20 20 19 17 15
18 17 17 17 18 18 18 20 21 20 20 20 20 21 21 21 21 20 21 23 23 23 27 28 27 30 31 31 30 30 27 26 26 26 25 24 22 20 20 19 17 14 15
17 18 18 18 18 18 18 18 18 18 18 19 19 21 21 21 21 20 21 23 23 25 27 23 26 30 30 30 30 30 29 28 28 27 26 23 21 20 20 16 14 11 10
19 19 19 19 18 17 18 18 19 18 18 18 19 20 21 21 21 21 22 22 23 26 23 23 27 30 30 30 29 29 28 28 27 27 26 22 21 19 16 14 11 12 13
19 18 18 18 18 18 18 17 16 17 17 18 19 21 21 21 21 21 21 21 21 24 21 23 25 30 29 29 29 29 30 29 28 27 23 21 19 16 14 12 13 13 13

GFSGL_sfc_30mbdewp_003.txt.gz
Dewpoint
44 44 44 45 45 45 44 44 44 44 44 44 43 44 44 44 44 44 44 44 44 45 48 50 52 54 55 55 56 56 56 55 53 53 52 52 51 51 50 50 50 49 49
43 43 43 44 44 42 42 42 41 41 42 42 42 43 43 42 43 43 43 44 44 45 46 49 50 51 52 53 54 54 54 55 54 52 52 52 52 50 50 48 47 47 47
38 40 40 42 40 40 39 38 37 37 38 39 40 40 39 39 39 40 41 43 44 44 47 48 49 50 50 51 52 53 53 53 54 53 52 53 53 47 44 43 43 44 45
36 37 36 39 37 36 35 36 36 36 37 38 38 37 36 39 39 38 41 38 40 43 46 47 47 48 49 49 50 51 52 52 52 52 52 53 53 48 46 46 41 42 42
34 33 34 31 29 29 30 32 32 33 34 35 33 32 37 36 38 38 38 39 43 45 46 45 45 47 48 48 49 50 51 51 51 50 50 51 52 45 45 45 45 44 41
26 26 26 25 26 26 27 27 28 28 29 29 29 34 31 35 36 37 40 43 43 38 36 39 42 45 45 48 50 50 51 51 50 49 49 49 49 51 49 47 45 40 38
22 22 19 20 21 22 22 23 23 24 23 22 29 27 29 31 31 38 39 38 31 33 37 37 41 40 39 42 44 46 47 49 50 51 50 50 51 51 52 49 46 44 42
18 12 13 14 15 17 17 18 18 19 18 19 22 20 24 21 27 35 38 28 28 32 35 36 39 33 36 41 43 44 44 45 46 49 50 50 51 53 53 51 48 41 33
9 8 9 10 11 12 13 13 14 14 16 14 14 19 15 19 24 33 28 27 25 27 32 36 28 29 33 37 39 40 41 41 43 44 47 47 48 50 52 44 40 36 31
7 9 10 10 11 11 11 10 11 12 12 13 11 12 17 20 26 23 21 23 25 27 33 30 29 31 33 35 36 37 38 38 40 42 44 45 44 46 49 48 44 39 31
10 11 11 11 11 11 10 10 10 11 11 11 11 12 16 18 15 18 22 27 25 30 31 32 31 31 34 35 38 39 40 41 42 42 43 39 35 35 35 36 39 39 33
10 11 11 11 12 12 11 12 12 12 12 10 10 14 14 14 17 19 22 25 27 30 31 31 30 32 34 37 39 41 41 41 42 41 38 34 32 31 32 32 32 32 32
11 11 12 12 13 12 13 13 13 13 12 12 14 15 18 19 20 22 23 24 28 30 30 30 32 32 35 36 36 37 38 36 37 36 33 31 31 32 30 28 29 29 30
12 12 13 13 14 14 14 14 14 14 15 16 18 20 21 22 23 23 25 27 28 28 28 30 31 30 34 34 34 35 34 34 34 33 32 31 30 29 27 28 26 26 26
13 13 13 14 14 14 15 15 15 16 18 20 21 22 22 23 23 25 26 25 27 27 28 29 27 27 30 31 33 32 34 33 31 31 30 29 28 27 25 26 26 25 23
13 13 14 15 15 15 15 15 17 19 21 22 22 22 22 22 23 24 24 26 26 24 28 25 25 25 27 30 30 31 32 32 30 30 29 28 26 25 24 25 25 25 24
14 14 15 15 15 15 15 17 18 20 21 21 21 21 21 22 21 22 23 24 22 23 25 25 25 26 26 30 31 30 30 31 30 29 28 27 26 25 25 24 25 25 23
15 16 16 16 16 17 18 20 20 19 20 20 20 21 20 20 20 22 22 20 21 23 23 24 25 27 27 30 30 30 30 29 28 27 27 26 26 26 25 24 24 23 21
15 16 16 17 19 20 20 20 20 20 20 19 20 20 20 21 22 23 21 21 21 23 23 24 26 26 27 29 30 30 29 28 27 26 26 26 26 25 24 25 24 22 20
17 17 18 18 18 19 19 20 19 19 19 20 21 20 20 22 24 21 21 21 20 23 24 24 24 25 27 27 30 30 28 27 27 26 26 26 26 26 24 23 22 21 19
17 17 18 18 19 20 19 19 19 20 22 21 20 21 19 19 20 21 22 21 21 22 22 23 25 26 23 26 29 29 28 27 26 26 26 26 26 24 23 22 21 20 18
18 18 18 19 19 18 18 19 19 19 21 19 19 19 18 19 22 23 22 22 22 23 22 22 26 22 23 26 29 28 28 26 26 26 25 25 25 23 21 20 19 17 16
17 17 18 18 19 19 18 20 21 21 19 19 19 19 18 18 20 22 22 21 22 22 22 25 24 21 23 27 30 29 28 26 26 26 25 24 23 21 20 18 16 15 14
18 19 20 21 19 19 19 18 19 19 19 19 16 16 17 19 20 20 21 22 22 22 22 24 22 21 24 26 29 29 28 28 28 27 26 24 21 20 18 15 13 11 10
19 19 19 19 19 19 19 20 20 19 17 16 16 17 17 18 19 20 21 21 21 21 23 22 21 21 24 25 28 29 28 28 27 27 25 21 19 17 14 11 10 12 14
18 19 19 20 19 18 18 17 16 16 16 17 18 18 18 19 20 20 20 20 21 22 21 21 21 21 23 28 28 28 30 29 28 27 22 19 16 13 11 11 13 14 15

GFSGL_sfc_30mbdewp_006.txt.gz
Dewpoint
40 41 40 42 41 41 39 39 38 38 37 37 38 39 40 41 39 39 40 40 40 42 44 43 46 48 49 50 52 52 52 52 50 49 51 53 54 54 52 51 51 51 50
38 38 37 40 37 35 33 33 34 33 33 34 36 36 35 34 36 38 39 39 40 37 38 42 45 46 47 48 49 49 49 50 50 48 49 51 52 53 54 52 51 51 51
35 34 35 33 30 28 29 29 29 29 30 30 31 30 29 31 36 34 36 38 35 37 39 42 45 46 44 44 46 47 47 48 49 48 48 49 51 52 52 51 52 51 50
30 30 31 27 26 26 26 25 25 26 26 26 26 24 27 32 28 31 36 32 37 38 43 45 43 38 39 43 44 45 46 46 47 47 47 47 48 49 51 51 49 46 47
25 27 23 23 22 22 22 21 21 22 21 23 20 20 22 28 21 33 28 29 34 40 39 33 35 36 40 43 37 36 41 43 43 44 45 46 48 47 46 47 47 49 45
22 18 16 15 15 16 16 17 17 17 17 18 18 18 23 17 23 28 28 28 35 31 27 27 33 33 39 31 31 37 40 41 42 42 42 43 44 46 48 48 48 47 45
17 11 10 11 11 12 12 13 14 13 15 14 14 16 13 15 20 24 30 26 23 25 23 24 26 33 32 27 30 34 34 37 40 41 40 40 42 43 47 47 47 48 46
9 8 10 10 10 11 11 11 11 11 11 11 12 12 13 11 18 24 28 18 14 16 24 24 29 33 30 31 32 32 33 35 36 38 40 40 41 43 45 45 46 47 39
7 9 10 11 11 11 11 11 11 10 11 11 11 11 11 12 18 26 22 18 21 23 24 25 31 32 32 32 31 32 33 35 37 40 41 42 42 43 44 44 43 40 37
7 9 10 11 11 11 11 11 11 12 12 12 12 12 12 12 17 18 20 21 22 23 25 27 31 30 30 29 30 32 34 35 37 38 39 40 42 43 42 41 42 41 39
9 10 12 12 12 12 12 12 12 13 13 14 13 13 13 15 18 21 23 24 24 25 27 28 28 28 28 30 31 34 35 36 36 35 37 39 41 36 35 34 35 39 38
10 11 12 13 13 12 13 13 14 14 14 14 14 15 18 20 22 23 24 25 26 27 28 27 27 28 31 32 31 34 34 34 33 33 33 34 34 33 33 32 32 33 33
11 12 13 13 13 13 14 14 14 14 14 15 16 19 21 22 23 24 24 26 28 26 26 28 25 29 27 28 28 30 32 32 31 31 31 32 33 32 29 29 29 28 27
12 13 13 13 14 15 15 15 14 15 16 17 20 21 22 22 24 24 25 26 25 29 28 23 26 23 23 24 26 28 30 31 32 31 31 32 31 29 27 28 27 27 25
14 14 13 14 15 15 15 15 15 16 19 21 21 21 22 24 23 25 22 23 30 24 21 24 24 22 23 25 25 27 29 30 30 31 30 29 29 27 26 27 26 26 23
14 13 14 15 15 15 15 14 17 20 21 21 21 21 20 21 23 20 21 29 25 19 20 22 22 21 23 23 24 27 27 29 30 30 29 28 27 25 25 25 26 25 23
14 14 15 16 16 15 15 17 18 20 20 20 20 20 20 21 19 19 25 28 19 19 19 22 21 21 22 23 24 26 26 29 31 29 28 27 27 25 26 24 25 25 23
15 16 17 16 17 17 18 19 19 18 18 18 19 19 19 19 19 21 26 21 19 20 20 21 20 20 21 24 24 24 25 28 28 28 27 26 26 26 24 24 24 23 21
15 16 17 17 18 18 19 19 19 19 18 18 18 20 21 19 19 23 20 20 21 20 20 19 20 20 22 25 21 24 25 28 28 27 26 25 25 25 24 24 25 23 21
16 18 17 17 18 18 18 19 18 18 18 19 20 19 19 19 21 21 19 21 21 20 20 20 20 20 24 22 22 23 25 27 27 26 25 25 25 25 24 24 23 21 19
17 17 18 17 18 18 18 18 18 20 21 19 19 20 18 18 18 16 19 22 21 20 21 21 20 22 23 21 22 23 24 26 27 25 25 25 25 24 23 22 21 19 16
18 18 17 17 18 18 18 19 18 18 19 20 19 19 18 16 16 17 22 20 20 21 22 22 21 22 22 21 22 23 24 26 26 25 25 25 24 22 21 20 17 16 14
16 17 17 18 19 19 21 21 22 19 18 19 20 18 15 16 17 17 18 19 20 21 21 21 21 21 20 21 23 24 25 26 26 26 25 24 21 20 19 16 15 13 13
18 19 19 20 19 18 18 19 20 19 18 19 16 16 16 17 17 18 19 20 20 21 21 21 21 20 20 22 24 25 28 28 27 26 26 22 21 18 15 13 12 10 11
18 18 18 18 18 18 18 18 18 17 16 16 16 16 17 18 18 19 20 20 19 20 20 20 21 20 20 22 23 26 29 29 27 26 24 20 17 14 11 10 13 15 14
17 17 16 15 14 15 15 16 16 16 16 17 18 18 19 19 19 20 20 19 20 20 19 20 20 20 21 23 25 29 30 29 28 25 20 17 14 11 12 14 15 16 17

GFSGL_sfc_30mbdewp_009.txt.gz
Dewpoint
37 36 37 34 32 31 29 29 30 30 30 30 29 30 28 28 30 35 32 33 37 36 34 37 38 41 45 46 44 45 44 46 44 44 45 47 48 50 51 54 53 53 52
33 33 31 28 25 24 25 25 25 24 25 25 24 24 21 23 27 30 26 33 30 30 34 36 39 43 43 42 39 40 43 44 43 42 43 44 46 47 49 51 52 53 53
29 30 25 22 21 22 22 22 21 21 21 20 20 19 19 20 26 23 21 30 23 25 30 34 42 37 38 34 36 42 40 35 37 39 42 43 43 45 47 49 50 52 53
26 22 17 16 17 17 18 18 18 18 16 16 17 16 16 18 18 16 24 23 24 29 33 39 31 31 33 33 37 32 29 33 37 37 37 40 40 42 44 46 47 49 49
21 14 13 14 14 14 14 14 15 15 14 14 14 13 14 14 11 18 21 24 29 21 19 22 22 25 25 32 36 33 30 32 35 33 34 36 36 38 39 42 43 44 47
14 9 11 11 12 12 12 12 12 12 12 12 12 12 13 12 15 18 23 27 22 16 14 16 23 24 24 33 33 32 33 32 32 32 32 33 34 36 38 40 40 40 40
9 9 10 11 12 12 12 12 12 12 12 11 11 12 12 12 15 19 22 23 18 18 21 23 24 24 28 33 32 32 32 31 31 31 32 34 35 36 37 37 37 39 41
7 8 10 11 11 12 12 11 12 12 11 12 12 12 13 13 16 19 21 20 21 21 22 23 24 26 29 29 29 27 29 29 30 32 35 36 37 38 40 40 40 40 41
7 9 10 11 12 12 12 12 12 12 13 13 13 13 13 13 17 19 22 22 23 23 25 25 28 27 27 26 27 27 28 28 30 35 35 36 36 36 37 40 38 38 38
8 9 11 12 12 12 12 12 13 13 13 14 14 14 15 15 17 22 23 24 24 25 30 30 27 26 25 26 26 27 31 33 35 34 34 33 33 34 36 38 37 34 34
10 11 12 13 13 12 12 13 14 14 14 15 14 15 16 19 21 22 23 24 24 29 28 25 25 26 28 24 26 28 31 31 32 32 31 31 31 33 33 35 35 33 31
11 12 13 13 13 13 13 14 15 15 15 14 15 17 19 21 22 22 24 24 26 25 24 26 27 23 22 23 23 22 23 27 29 30 29 29 30 30 32 33 31 31 31
12 12 13 14 14 14 15 15 15 15 14 15 16 19 21 21 22 23 24 26 23 23 27 26 21 21 22 21 22 23 26 27 30 29 28 29 30 32 32 29 30 29 27
12 13 14 14 15 15 15 16 15 15 15 17 20 20 21 22 22 22 27 23 22 26 30 20 18 20 21 21 22 23 25 25 27 28 28 30 31 29 29 28 27 27 24
13 14 14 14 15 16 16 15 15 16 18 20 21 21 21 21 21 21 24 21 22 31 20 18 17 20 20 19 20 22 23 24 25 25 28 28 27 27 27 27 26 26 23
13 13 14 16 16 16 15 15 17 19 20 20 20 20 20 20 20 20 20 22 26 20 18 18 18 19 19 19 20 20 23 22 23 25 28 28 26 26 26 25 26 25 22
14 14 15 17 16 16 16 17 17 19 19 19 19 19 19 19 19 18 20 22 21 16 19 19 18 18 19 20 20 22 22 21 24 25 28 27 26 26 25 24 25 24 22
14 16 16 16 17 17 18 18 18 18 18 18 18 18 19 18 18 18 21 17 15 18 20 19 18 19 20 19 20 22 21 22 23 25 27 26 25 25 24 24 24 22 21
15 15 16 18 18 18 17 17 17 18 17 17 17 19 19 19 19 23 16 14 17 22 20 18 18 20 20 19 21 21 21 21 24 24 26 25 25 25 24 24 24 23 21
16 17 18 17 17 17 17 17 17 17 17 19 19 18 18 20 23 16 15 17 19 20 18 18 19 19 19 20 21 21 21 21 22 25 25 25 25 25 24 24 23 20 19
17 18 18 17 17 17 17 17 18 20 21 18 18 18 17 19 17 15 16 17 18 19 19 20 20 19 20 21 20 20 21 21 22 26 25 24 24 22 23 22 20 18 16
18 17 17 17 17 18 18 19 19 19 19 19 18 19 20 16 16 17 17 18 19 20 20 20 20 20 20 20 21 21 20 21 23 25 24 24 23 22 20 17 15 13 13
17 17 17 18 19 19 19 20 21 18 19 19 19 18 16 16 17 18 18 18 19 20 19 20 20 20 20 20 22 22 21 22 25 26 25 23 21 19 16 14 13 13 14
18 18 19 18 18 17 17 17 17 16 16 16 16 16 16 17 17 17 18 19 19 19 19 20 20 20 20 21 22 23 24 26 27 26 25 22 18 15 12 10 9 9 11
18 18 17 17 15 14 14 14 15 15 15 16 16 16 17 17 18 18 18 19 19 19 19 19 20 19 19 21 21 23 26 29 27 25 21 17 13 10 12 15 16 16 16
17 16 14 13 13 13 14 15 16 16 16 17 17 19 19 18 18 19 19 19 19 18 18 19 19 19 20 22 23 25 30 29 26 21 17 13 11 14 15 17 19 20 20

GFSGL_sfc_30mbdewp_012.txt.gz
Dewpoint
33 30 25 21 21 22 21 22 22 22 22 22 20 21 19 19 20 21 27 20 27 28 23 26 30 34 39 39 41 36 34 38 39 37 33 32 34 40 44 47 47 48 50
30 24 19 18 18 16 17 19 19 18 18 18 17 18 16 16 17 21 18 17 25 22 25 29 32 36 30 34 35 29 34 39 30 31 31 32 35 36 39 42 43 45 47
23 16 13 13 13 13 14 15 16 16 15 14 15 15 14 14 15 14 16 20 21 23 27 24 17 24 23 23 24 26 33 33 32 31 32 34 33 33 38 39 38 39 43
15 11 11 12 11 12 13 14 14 15 14 13 13 13 12 13 13 13 18 21 23 27 21 18 16 17 20 25 23 25 33 33 32 32 32 32 32 33 34 34 34 36 38
10 9 10 12 12 12 13 13 13 14 13 13 12 12 12 13 11 18 20 22 23 22 19 19 21 23 24 25 27 28 31 31 30 32 31 30 29 29 31 33 34 35 37
9 9 11 11 12 13 13 13 12 12 12 13 12 12 12 13 16 20 22 22 22 20 21 22 22 24 24 27 27 27 27 27 26 27 29 27 27 28 32 34 36 34 33
8 8 10 11 12 13 13 12 12 12 13 12 12 13 13 14 17 20 22 22 22 22 23 23 24 25 27 28 27 26 27 26 26 25 26 27 28 30 34 33 32 33 34
6 8 10 12 12 13 12 12 12 13 13 13 13 14 14 14 18 21 23 23 23 23 24 25 26 29 27 25 26 30 31 26 25 29 30 33 33 36 34 33 34 34 35
8 9 10 12 12 13 12 12 13 13 13 13 14 14 15 15 19 22 23 22 23 24 24 26 30 26 24 25 28 26 24 28 28 27 30 30 31 30 30 32 32 32 32
9 10 11 12 13 12 12 13 13 14 14 15 14 15 16 16 19 22 22 22 23 23 27 29 24 23 24 24 21 23 25 22 23 27 30 30 29 28 29 31 33 30 30
10 12 12 12 13 13 13 14 14 14 15 15 15 15 16 18 21 22 22 22 22 27 26 21 22 27 27 20 20 22 21 22 27 27 26 28 28 29 31 33 33 31 29
11 12 12 12 13 13 14 15 15 15 15 14 14 16 18 20 21 22 21 21 23 24 21 21 26 28 19 18 21 21 21 22 23 25 25 26 26 27 28 31 31 32 31
11 11 12 13 13 14 15 15 15 15 15 15 16 18 20 20 21 22 22 24 25 21 21 29 23 19 17 19 19 19 19 20 22 24 23 25 25 27 30 28 29 30 28
11 12 12 13 15 16 16 16 16 15 15 16 19 20 20 20 21 22 24 25 23 22 29 28 20 17 17 18 18 19 19 20 22 24 24 23 24 26 27 27 27 26 25
12 13 13 14 15 16 16 16 16 16 18 19 19 20 20 21 21 21 23 20 22 23 20 17 17 17 17 17 17 18 19 19 23 22 22 22 23 26 26 26 27 26 24
13 13 13 16 16 16 16 16 17 18 19 19 19 19 19 20 20 21 19 21 24 15 14 15 19 17 17 17 18 18 18 19 21 21 22 22 22 26 24 26 26 25 22
13 14 15 16 16 15 16 17 17 17 18 18 19 18 19 19 18 18 21 22 16 14 15 20 18 17 17 18 19 18 18 19 22 22 21 23 24 25 24 24 25 24 21
14 16 16 15 17 17 18 17 16 16 16 17 18 18 18 18 17 18 21 16 13 16 18 19 17 17 18 19 18 18 19 20 21 21 22 22 25 24 24 24 24 22 20
15 15 16 17 18 18 17 16 16 17 17 17 17 19 18 18 19 24 16 14 16 17 17 17 18 18 19 19 18 19 20 20 21 21 21 24 24 24 24 24 24 23 21
16 17 18 17 17 16 17 17 17 17 18 19 20 18 18 20 23 16 15 16 17 17 17 18 18 19 19 19 19 20 20 20 20 20 21 24 24 24 23 22 22 20 20
17 17 17 17 17 17 17 18 19 20 19 18 18 18 17 19 16 15 16 17 17 18 19 18 19 19 19 19 20 20 19 20 20 21 23 24 23 22 22 21 20 18 17
17 17 17 17 17 18 18 18 17 18 18 17 17 17 16 15 16 17 17 17 17 19 19 19 18 18 19 20 20 20 19 19 20 21 24 23 22 21 18 16 14 13 14
17 17 17 18 18 18 17 17 16 16 16 16 16 15 15 15 16 16 16 17 18 18 19 19 18 18 19 20 21 21 20 20 22 25 24 22 20 17 15 13 13 15 18
18 18 18 18 17 16 14 14 14 14 15 15 15 15 15 15 16 17 18 18 18 19 19 18 18 18 19 20 21 22 22 23 27 25 23 19 14 12 12 15 15 16 18
18 18 17 16 14 13 13 13 14 14 15 15 15 15 16 17 17 17 18 18 19 19 18 17 18 18 20 20 20 22 24 30 25 20 16 12 12 18 18 18 18 18 19
17 16 14 13 12 13 14 14 15 15 15 16 17 17 17 17 18 19 19 19 18 17 17 17 17 18 20 21 22 25 30 25 22 19 14 15 19 21 20 19 21 23 23

GFSGL_sfc_30mbdewp_015.txt.gz
Dewpoint
23 18 15 15 14 13 13 14 15 15 15 14 12 13 12 12 12 13 13 13 16 20 21 25 27 26 21 23 29 28 27 25 25 27 32 34 31 30 32 33 33 32 39
19 14 13 12 12 11 11 12 13 13 13 12 12 11 11 11 12 11 12 15 18 20 22 26 22 18 18 19 21 22 25 26 27 29 34 31 29 31 33 34 33 37 36
13 11 10 10 10 10 11 12 12 12 12 11 11 11 10 11 11 12 14 18 20 21 22 22 19 19 19 21 24 25 27 27 29 30 28 30 31 32 30 31 32 33 35
11 10 10 11 11 12 13 12 12 12 12 11 11 11 11 11 12 12 18 20 21 21 21 21 20 21 21 24 24 26 27 28 28 28 27 27 28 28 29 27 28 30 32
9 9 10 12 13 13 13 13 13 13 12 12 12 11 12 12 9 19 21 21 21 21 22 21 22 23 25 25 26 26 27 26 26 26 26 26 26 25 25 26 26 29 32
8 8 12 12 13 13 13 13 13 12 12 12 11 11 12 12 16 20 22 23 22 22 22 22 23 24 25 27 26 25 25 27 27 29 26 24 24 26 28 29 30 29 30
8 9 11 12 12 13 13 12 12 12 13 12 11 12 12 13 17 21 22 23 22 21 22 22 24 24 27 27 26 26 30 26 22 24 25 27 27 26 30 31 31 31 29
8 8 11 12 12 13 12 12 12 13 13 12 12 13 13 13 18 21 23 22 22 21 21 22 23 27 25 23 24 32 23 21 22 26 24 23 26 28 28 28 29 30 31
8 9 11 12 12 12 11 12 13 13 13 12 13 13 13 14 18 22 22 21 21 21 22 22 28 22 20 23 32 23 20 21 23 22 22 24 25 25 27 29 29 28 26
9 11 12 12 12 11 12 13 13 14 13 14 13 14 15 15 19 22 21 21 21 21 23 27 21 19 22 31 22 19 19 21 23 23 23 23 24 25 26 28 30 28 27
11 12 12 12 12 12 13 14 14 14 14 14 14 14 15 17 20 21 21 20 21 25 27 22 20 20 32 22 18 18 19 21 21 20 21 22 23 24 26 27 32 30 28
12 12 11 12 12 12 14 15 15 15 15 14 14 15 17 19 20 20 20 21 22 23 22 21 23 31 20 18 17 18 19 19 19 20 21 21 23 23 24 25 27 30 32
11 11 11 12 12 14 15 15 15 15 15 14 15 17 19 19 20 21 21 24 23 21 21 26 23 15 15 17 16 16 18 19 19 20 20 21 22 23 24 25 26 31 29
11 11 11 12 14 14 16 16 15 15 16 16 18 18 20 20 21 21 24 25 22 24 29 17 14 14 17 17 16 17 18 19 20 21 21 22 22 22 22 23 26 26 27
11 11 12 13 14 16 16 15 15 16 18 18 18 19 20 21 20 21 21 19 21 26 15 14 13 17 17 15 15 16 17 18 19 20 20 21 21 21 22 23 27 26 25
11 11 12 15 16 15 15 15 18 19 19 18 19 19 19 19 20 20 19 20 23 16 14 14 15 18 16 15 16 17 18 18 19 20 21 21 21 22 22 26 26 26 23
12 13 14 16 14 15 16 17 17 16 17 18 18 18 19 19 18 18 19 24 16 14 14 16 16 16 16 16 17 18 18 18 20 21 21 21 21 22 24 24 25 24 22
14 16 15 15 16 17 18 17 16 16 16 16 17 18 18 18 17 18 21 16 13 15 16 17 16 16 16 17 17 18 19 19 20 21 21 21 22 24 24 24 23 22 21
15 15 15 17 18 18 17 16 16 17 16 17 18 17 17 17 19 20 16 14 16 16 17 16 17 17 17 18 18 19 19 19 20 20 20 21 23 23 23 23 23 23 21
15 16 17 17 17 16 17 17 17 17 18 17 17 17 16 18 21 16 15 16 17 17 16 17 17 17 17 18 18 19 19 19 19 20 20 22 23 23 22 21 20 19 18
16 17 17 16 17 17 17 17 18 18 17 17 16 16 16 17 16 15 16 16 16 17 18 18 17 18 18 18 19 19 19 19 19 20 21 23 23 21 19 17 15 16 18
17 17 17 17 17 18 18 17 16 16 15 15 15 15 15 15 15 15 16 16 17 18 18 18 18 18 18 19 19 19 18 19 20 21 22 23 21 19 16 15 16 20 20
17 17 17 17 18 17 16 16 14 14 15 15 15 14 14 14 14 16 17 17 17 18 18 19 18 18 19 20 20 20 19 19 21 23 23 21 17 15 15 13 14 19 20
18 18 17 17 17 15 13 13 13 14 14 14 14 14 14 14 16 15 16 17 18 18 18 18 17 18 19 19 20 21 22 23 27 21 18 15 16 20 20 20 20 19 19
18 17 16 16 14 13 12 13 13 14 14 14 14 14 15 15 15 16 17 18 19 18 17 17 18 19 19 19 20 22 25 24 23 19 16 18 21 21 20 21 21 21 21
16 15 13 12 12 12 13 14 15 15 15 15 16 16 15 15 16 17 18 18 17 17 17 17 19 19 20 21 22 26 23 21 19 19 21 22 22 23 23 23 24 25 26

GFSGL_sfc_30mbdewp_018.txt.gz
Dewpoint
19 15 13 10 8 7 7 8 8 8 8 7 7 7 7 7 7 7 8 9 12 14 16 17 18 22 19 17 17 17 18 19 22 23 24 25 23 25 26 25 27 27 29
16 12 10 9 8 7 7 8 8 7 7 8 8 7 7 7 8 8 8 11 14 15 16 17 17 17 18 17 17 18 20 22 23 26 24 23 24 23 25 25 25 25 25
12 10 8 8 8 7 7 8 8 8 8 8 8 7 7 8 9 9 9 13 15 16 17 18 18 18 18 18 19 21 22 24 25 25 25 25 26 25 24 25 25 24 23
10 9 9 9 9 9 9 9 9 9 9 9 9 9 9 9 9 8 14 16 17 17 18 19 18 18 18 20 21 21 25 25 24 24 26 26 25 25 24 24 23 24 26
8 9 10 10 10 10 10 10 10 10 10 10 10 9 8 9 6 15 18 19 19 19 19 18 18 19 21 22 23 25 26 24 25 26 26 23 21 21 22 23 25 24 25
7 7 9 9 10 11 10 10 10 10 10 11 9 8 8 8 12 18 22 21 20 19 17 17 17 18 19 23 24 23 22 25 25 28 23 20 20 22 24 22 24 24 24
6 7 8 9 10 10 10 9 9 10 10 10 9 8 8 9 12 19 22 22 20 18 17 16 17 16 21 24 21 21 24 30 28 22 20 21 23 23 24 25 27 27 26
6 6 8 9 9 8 8 8 9 9 9 9 8 9 9 9 14 19 22 21 18 17 17 17 17 20 23 21 20 24 30 22 19 19 19 22 26 28 25 25 26 28 28
6 6 8 8 8 7 7 8 9 9 10 9 9 9 9 10 14 19 21 19 17 16 17 17 21 22 19 19 25 30 24 20 17 18 22 23 21 21 22 25 27 25 25
6 8 8 9 8 7 8 9 10 10 10 10 9 9 10 12 15 20 21 19 18 17 19 21 20 19 19 24 27 18 21 18 19 22 21 19 20 21 22 24 28 25 25
9 9 9 8 8 8 9 10 10 10 10 9 8 9 12 14 16 19 20 19 19 23 24 22 20 19 23 19 16 17 18 18 19 19 19 20 20 21 23 24 25 26 24
10 9 9 8 8 9 10 10 9 9 9 8 8 12 14 15 16 18 20 20 21 24 22 20 22 24 16 15 16 18 16 17 18 19 19 20 20 21 22 24 24 25 27
9 8 8 8 8 10 10 9 9 8 8 10 11 14 14 15 16 18 18 21 22 20 19 23 23 15 15 15 17 15 16 17 19 20 20 20 21 22 23 24 25 26 26
8 7 8 8 10 10 10 9 9 8 10 13 14 15 16 16 16 18 21 23 21 20 26 24 15 14 13 15 14 15 16 17 19 21 21 22 22 21 22 23 24 25 26
8 8 8 9 10 9 8 8 11 13 17 18 18 18 18 18 18 19 21 19 20 24 21 16 13 13 14 14 15 15 17 18 20 21 21 21 21 21 22 24 25 26 26
9 8 9 11 10 8 8 9 13 16 18 18 19 19 18 18 19 19 18 20 24 19 15 13 13 15 15 15 15 16 17 19 21 21 20 21 21 21 22 24 27 27 23
10 9 10 9 8 9 10 12 12 12 14 15 16 17 18 18 18 17 19 23 17 14 13 15 16 15 15 16 16 17 19 20 21 21 21 21 21 22 23 25 25 24 23
11 13 12 10 11 12 13 13 12 12 12 12 14 16 16 16 17 17 19 17 12 13 15 16 16 16 16 16 17 19 19 19 20 20 20 21 21 22 23 23 24 24 22
12 11 10 12 12 14 14 13 13 13 13 13 13 13 14 15 16 17 15 13 15 16 16 15 16 16 17 17 19 19 19 19 20 20 20 21 22 24 22 21 20 20 19
11 12 15 13 13 13 13 13 13 13 13 12 12 12 12 16 18 15 14 15 15 15 15 16 16 17 17 19 19 19 19 19 19 20 20 21 23 23 20 17 15 17 19
11 12 14 14 14 14 13 13 13 13 12 12 12 12 15 17 15 14 14 15 16 16 17 17 17 18 19 20 19 19 19 19 20 21 21 22 23 21 17 15 19 23 23
13 13 14 15 14 13 13 14 13 12 12 12 12 13 14 13 14 14 15 16 16 17 17 18 18 18 20 20 19 19 18 19 20 22 22 22 21 21 21 19 19 22 24
14 15 15 14 13 13 12 12 11 11 12 12 12 12 12 12 13 15 15 15 16 17 18 18 18 20 20 21 21 21 20 21 22 24 22 19 21 22 22 22 22 22 22
17 15 14 12 11 12 10 10 11 12 12 12 12 12 13 15 14 13 14 16 17 17 18 18 20 20 20 21 22 23 24 26 26 23 21 22 23 23 23 23 23 23 23
15 13 11 10 9 9 10 11 11 12 13 13 13 14 15 14 14 15 16 16 17 17 17 18 20 21 21 21 22 23 25 22 23 26 25 24 25 25 25 25 25 25 25
11 10 8 8 9 10 11 13 14 14 15 15 15 15 15 14 15 16 16 16 17 17 17 18 20 21 21 22 23 25 23 25 29 28 26 26 26 27 27 27 27 26 27

GFSGL_sfc_30mbdewp_021.txt.gz
Dewpoint
23 20 17 14 12 11 10 8 7 6 6 6 6 7 7 7 7 8 9 9 9 13 15 16 17 18 19 19 20 20 20 20 20 21 22 26 25 23 24 25 25 26 25
20 17 15 14 13 11 9 7 6 6 6 7 7 8 8 8 9 9 9 9 10 13 15 17 17 17 19 20 20 19 20 21 21 22 24 24 23 24 25 25 24 24 24
17 15 14 13 12 9 7 8 7 7 7 8 9 9 9 9 9 9 9 9 13 15 16 17 18 19 19 19 20 21 21 22 25 25 24 23 24 26 25 22 19 20 23
15 14 14 12 11 10 9 9 9 8 9 10 10 11 11 9 9 9 10 15 17 17 19 19 19 18 18 19 20 22 24 26 26 25 23 24 25 26 23 20 19 23 24
13 13 12 12 10 10 10 10 9 10 11 11 11 11 10 10 7 12 16 18 19 20 19 19 17 19 19 19 19 22 25 27 23 23 26 27 28 22 20 20 20 21 22
11 10 10 9 9 10 10 10 10 11 11 12 11 11 10 9 10 14 18 20 20 20 19 18 17 18 17 18 21 22 23 22 21 25 27 27 22 19 18 20 22 23 22
10 8 8 8 8 9 9 8 9 10 11 11 10 10 9 10 12 15 18 21 21 19 17 17 16 16 18 22 23 23 22 22 27 24 23 23 18 18 22 24 26 24 21
9 7 7 7 7 7 7 8 9 10 10 10 10 10 10 9 11 15 19 21 19 19 17 17 17 19 22 22 21 27 28 27 23 19 20 18 19 23 27 25 22 24 26
8 6 6 6 7 7 7 8 10 10 10 10 10 10 9 8 11 16 19 20 20 19 18 18 20 21 21 21 25 28 22 18 18 19 20 20 19 20 20 21 24 23 21
6 6 6 7 7 6 7 9 10 10 10 10 9 8 7 9 13 17 19 20 20 19 20 23 21 19 20 25 25 18 18 17 23 21 19 18 18 19 20 21 24 23 22
7 7 7 7 7 8 9 10 11 10 10 9 7 7 9 12 14 17 18 19 20 20 24 22 21 19 24 24 16 16 16 22 19 18 17 19 20 20 21 22 23 24 22
8 8 8 8 8 9 9 10 9 9 8 6 7 10 13 13 15 17 18 19 19 22 23 21 20 29 20 15 16 15 17 17 17 18 19 20 20 20 21 22 23 24 25
7 7 7 9 9 9 10 9 9 8 6 7 9 13 15 17 17 18 18 18 21 20 19 20 29 17 14 14 14 15 15 16 18 21 21 20 20 21 22 22 24 25 25
7 6 9 9 10 10 10 9 7 6 9 12 15 17 18 18 18 18 19 22 21 21 25 28 16 14 13 14 15 15 16 16 18 21 21 21 21 21 22 24 24 24 24
7 9 9 10 10 10 9 7 7 9 14 16 18 18 19 18 18 19 19 19 21 23 21 17 14 13 15 15 15 15 16 18 21 21 20 20 20 21 21 23 24 26 25
9 10 10 10 10 8 7 8 9 13 14 15 16 17 17 18 18 18 18 19 22 18 16 14 14 15 15 15 15 15 18 19 20 20 20 20 20 20 21 23 26 26 24
11 10 10 12 9 8 9 10 11 12 13 13 14 15 16 16 16 16 18 21 17 14 14 15 15 15 15 15 16 19 19 19 21 20 20 20 20 21 22 23 22 23 22
11 12 12 10 10 10 11 12 12 11 11 12 13 14 14 14 15 16 19 16 14 15 16 16 15 15 16 17 19 19 19 19 19 20 20 20 21 21 22 21 20 20 20
12 12 11 13 13 12 13 12 12 12 12 12 12 13 13 13 16 17 15 14 15 15 16 16 16 16 17 20 20 20 20 19 20 19 19 21 22 22 23 22 21 22 23
12 12 12 13 12 12 12 12 12 12 12 13 12 12 12 15 19 15 15 15 15 16 16 16 16 17 20 20 20 20 19 18 19 19 20 22 23 24 23 22 21 21 23
11 11 12 12 13 13 13 12 12 13 13 12 12 12 14 15 15 14 15 15 16 16 16 17 17 19 20 20 20 19 18 19 19 21 22 23 23 21 23 24 23 23 25
12 11 12 14 14 13 12 13 12 12 12 12 12 13 13 13 14 14 15 16 15 17 17 17 18 20 20 20 20 20 19 20 21 22 23 24 22 22 24 24 25 24 25
13 14 15 14 13 12 10 11 11 11 11 12 13 12 13 13 14 15 15 15 17 17 17 18 20 20 20 21 22 21 21 21 23 26 24 23 22 22 25 25 25 24 24
16 15 13 11 10 10 9 8 10 11 11 12 13 14 14 15 15 14 15 17 17 17 17 18 20 20 21 21 21 22 23 25 28 27 27 25 24 25 26 25 26 26 26
15 13 10 8 7 7 8 9 11 13 14 14 15 15 15 15 15 16 16 17 17 17 17 17 19 20 20 20 21 23 25 29 29 30 29 27 26 27 28 28 28 27 27
12 10 8 8 8 9 11 14 15 16 16 16 16 16 15 16 16 17 17 16 17 16 16 17 18 19 20 21 23 25 28 30 31 30 30 28 28 28 29 28 28 28 27

GFSGL_sfc_30mbdewp_024.txt.gz
Dewpoint
22 18 16 14 13 12 10 9 8 8 8 8 9 9 9 10 10 10 10 10 10 11 13 15 17 18 19 20 20 21 21 21 20 21 20 20 25 23 22 23 24 25 26
19 17 16 15 13 11 9 9 9 8 9 9 10 11 11 11 12 11 10 10 11 13 15 17 17 18 19 20 21 19 20 21 20 19 23 25 23 23 23 22 25 25 23
18 16 15 14 12 10 10 10 10 10 10 11 12 12 12 13 12 11 11 12 15 17 18 19 20 19 19 20 19 19 19 20 24 25 24 25 24 23 24 26 26 23 21
16 15 14 13 12 11 11 12 11 11 11 12 13 13 13 13 12 11 12 15 17 19 20 21 20 20 19 19 18 18 20 23 24 24 26 27 23 24 25 28 21 19 17
15 15 13 12 11 11 12 12 12 12 12 13 14 14 14 12 10 12 15 17 18 20 21 21 21 20 21 19 19 20 22 21 24 29 27 25 24 23 22 20 17 16 19
13 12 11 10 10 11 11 11 11 11 12 13 13 13 12 11 12 15 16 17 19 20 21 20 19 18 18 20 20 20 21 25 26 27 26 22 18 17 20 20 19 20 20
11 9 8 9 9 9 10 10 10 11 12 12 11 11 11 11 13 14 15 17 19 20 20 19 19 18 19 20 22 24 31 28 25 22 18 17 17 23 26 23 24 24 23
10 8 8 8 8 8 8 9 10 11 11 11 11 11 11 10 11 13 16 18 19 20 20 20 20 20 22 22 23 27 28 27 22 20 18 19 23 21 21 21 21 22 23
9 7 6 7 7 8 8 9 10 11 11 11 11 10 10 9 12 14 17 18 19 19 20 20 22 23 22 21 24 28 25 21 21 18 24 24 19 18 18 19 22 22 19
7 7 7 7 8 8 8 9 11 12 11 11 10 9 10 9 13 16 18 18 19 19 21 24 24 21 19 24 24 19 19 17 19 24 18 16 17 19 20 21 22 21 20
8 8 8 8 8 8 10 11 11 10 10 10 8 8 9 12 15 18 19 19 19 20 25 24 23 20 27 23 18 16 16 19 20 16 16 17 19 21 21 22 23 23 20
8 8 9 8 9 10 10 11 11 10 9 8 8 11 13 16 19 19 19 19 20 22 22 20 19 26 19 17 16 15 17 17 16 16 18 20 19 20 21 21 22 23 24
8 7 8 9 10 11 11 11 10 9 8 8 10 14 17 18 19 20 19 20 22 21 20 22 26 19 15 14 15 15 16 16 17 20 20 19 20 21 22 22 23 23 23
7 7 9 10 12 11 11 11 9 7 9 10 14 16 17 17 18 18 19 21 20 21 25 26 18 14 14 15 15 15 15 17 20 21 20 21 21 21 21 22 22 22 24
9 10 11 12 11 11 11 9 9 10 13 15 15 16 16 16 17 18 18 17 19 23 19 17 13 14 15 14 14 15 16 19 21 21 20 19 19 20 20 21 23 24 22
11 11 12 12 12 12 9 9 12 13 15 15 15 15 16 16 17 17 17 18 20 17 15 13 15 15 15 15 16 18 19 19 20 20 19 19 19 19 20 22 23 22 21
12 12 12 14 12 10 11 11 12 13 14 14 14 14 15 15 16 16 17 18 16 15 14 15 16 16 16 16 18 19 19 20 21 20 19 20 19 19 20 21 23 22 20
12 14 14 13 12 13 13 13 13 12 12 12 13 15 15 15 15 16 18 15 14 15 16 17 16 15 16 18 19 19 19 19 19 20 19 19 20 20 20 21 22 21 21
13 14 13 13 14 14 14 13 13 13 12 12 13 14 13 14 16 18 15 14 15 16 16 15 16 17 19 19 19 19 19 18 19 19 19 20 20 21 21 21 22 22 23
14 15 14 14 14 13 14 14 14 13 13 13 13 12 12 14 16 14 14 15 16 16 15 16 17 18 19 19 19 19 18 18 18 19 20 20 22 23 20 21 23 22 22
13 13 13 13 13 15 15 14 13 13 13 12 12 12 14 15 13 13 14 16 15 15 16 18 18 19 19 19 19 18 18 18 19 20 20 22 24 21 21 22 24 24 24
14 14 14 15 15 14 13 13 11 11 11 11 12 13 14 13 14 14 16 15 15 17 18 18 19 19 19 19 19 19 18 18 19 20 21 24 24 23 22 23 24 24 24
15 16 16 16 14 12 10 11 10 10 11 12 13 13 13 14 15 15 14 15 17 17 17 17 19 18 19 19 20 20 19 19 21 22 24 26 25 24 24 24 25 25 25
17 17 15 13 10 10 8 8 10 11 13 14 15 14 15 15 15 14 16 16 18 17 17 17 18 18 19 19 20 21 22 23 24 28 29 27 25 25 26 26 26 26 27
16 15 12 9 8 8 9 10 13 14 16 15 15 15 16 15 15 16 16 17 16 17 16 16 18 18 18 19 20 21 23 28 31 31 30 28 27 27 27 27 27 27 27
12 10 9 9 9 10 12 14 15 16 16 17 17 16 16 16 16 16 16 16 16 15 15 16 17 18 19 20 21 24 28 31 32 32 31 29 28 28 28 28 28 28 28

GFSGL_sfc_30mbdewp_027.txt.gz
Dewpoint
17 15 14 13 12 11 9 9 8 8 9 9 10 11 11 12 12 12 12 11 11 13 16 16 18 19 19 20 20 21 22 22 19 19 19 20 21 24 23 23 24 22 22
17 16 15 13 11 9 9 9 10 9 10 10 12 12 13 13 14 13 11 11 12 15 17 19 19 20 21 21 21 21 20 20 19 19 20 23 24 24 23 25 23 22 26
17 15 14 12 11 10 10 11 11 11 11 12 13 13 13 14 15 13 12 12 15 17 19 20 20 21 21 21 21 20 20 20 22 25 26 25 23 28 27 25 26 26 27
16 15 13 12 11 11 12 12 12 12 12 12 13 14 14 14 14 13 13 16 17 18 20 21 21 21 21 20 20 19 21 21 21 21 22 27 24 25 27 21 16 17 19
16 15 13 12 11 12 12 12 12 12 12 13 14 14 13 13 11 15 16 17 17 18 20 21 21 22 21 20 20 19 20 21 26 28 25 26 25 18 16 17 17 19 22
14 13 12 10 11 11 11 10 10 11 12 13 12 12 12 12 14 16 17 16 17 18 20 20 21 21 20 21 21 21 22 23 24 26 26 23 18 18 18 18 21 23 20
11 10 10 9 9 9 9 9 9 10 12 11 11 12 11 11 14 15 16 16 18 19 19 20 20 20 22 22 23 23 24 27 28 24 21 20 19 19 22 25 24 22 21
10 9 9 8 8 8 8 9 9 10 11 11 11 11 11 10 14 14 16 18 18 19 20 20 20 22 24 22 22 23 29 28 23 21 20 19 24 25 20 18 19 22 23
9 7 7 7 7 8 8 8 10 11 11 11 11 11 10 10 14 16 19 19 19 19 20 21 24 23 21 20 23 28 25 23 18 18 24 22 18 17 18 21 22 21 18
7 7 7 8 8 8 8 10 11 11 11 11 10 10 11 10 17 19 21 20 20 19 23 25 22 19 18 26 25 21 18 15 21 24 15 15 17 18 20 21 22 19 18
8 8 8 9 8 9 10 11 11 11 11 10 9 9 11 15 18 20 20 19 20 25 24 21 20 20 30 19 18 15 15 20 19 15 15 17 18 19 19 20 23 22 19
9 8 9 8 10 11 11 11 11 10 9 8 8 11 14 17 19 19 19 20 23 21 21 20 21 28 17 16 15 16 17 18 15 17 18 19 18 19 21 22 23 23 24
8 7 8 10 11 12 11 11 11 9 8 9 11 14 16 17 18 19 20 21 20 19 22 24 23 17 15 15 16 16 16 16 20 20 19 18 20 21 22 22 22 23 24
7 8 10 11 14 12 12 11 9 10 11 13 15 16 16 16 17 17 18 18 19 25 25 20 15 14 15 15 15 15 16 19 20 20 19 20 20 21 21 22 21 21 22
9 11 11 13 13 12 12 10 12 13 15 16 16 16 15 15 16 17 18 18 21 21 17 15 13 14 15 15 15 16 17 18 20 19 20 19 19 20 20 21 21 22 21
10 11 12 15 13 12 11 12 14 15 16 16 16 16 16 17 17 17 17 20 19 16 15 13 15 15 15 15 15 17 18 18 19 19 19 19 19 19 19 21 21 21 21
11 12 14 14 13 12 13 14 14 14 15 14 15 15 16 16 16 17 19 17 16 15 14 15 15 15 15 16 17 18 18 18 19 18 19 20 19 19 19 20 21 22 21
12 15 15 14 14 14 14 14 14 14 13 13 14 15 15 15 16 17 17 15 13 15 15 15 15 15 16 18 18 18 18 18 17 19 19 19 19 19 19 20 20 21 23
14 15 15 15 14 15 14 14 15 14 14 13 13 13 13 14 17 17 15 14 15 16 15 15 15 17 18 18 18 18 17 18 19 18 18 19 19 20 20 20 20 22 24
15 16 16 14 13 13 15 15 15 13 12 12 12 11 12 15 16 14 14 15 16 15 15 16 17 18 18 18 18 17 17 17 17 18 18 19 20 21 22 21 21 22 22
14 14 16 14 15 16 16 14 14 12 11 11 11 12 15 16 14 14 15 16 15 15 17 18 17 18 18 18 17 17 17 17 17 18 19 20 21 22 24 23 22 24 23
14 15 16 16 17 15 13 11 10 10 10 11 12 14 15 14 14 16 15 15 15 17 18 18 18 17 18 18 18 17 17 17 18 19 19 20 21 25 24 23 24 24 24
16 17 17 16 14 12 10 10 10 10 11 13 14 14 14 14 15 15 15 16 16 17 17 17 18 17 17 18 19 19 18 18 19 20 20 21 25 25 25 24 25 25 25
17 17 16 13 10 10 9 10 10 12 14 14 15 14 15 15 14 15 16 16 17 16 16 17 17 17 18 18 19 20 20 21 22 25 28 28 26 25 25 25 25 26 26
15 13 11 9 9 10 10 11 13 14 15 16 16 15 14 15 16 16 15 16 16 16 15 15 16 18 18 18 19 20 21 26 30 32 31 29 27 27 27 26 26 27 26
12 10 10 10 10 11 13 14 15 16 17 16 15 15 16 16 16 15 16 15 15 14 14 15 17 17 18 19 20 23 27 30 33 32 30 29 28 27 28 27 27 28 26

GFSGL_sfc_30mbdewp_030.txt.gz
Dewpoint
15 14 13 12 11 10 9 8 8 9 9 10 11 12 12 13 13 14 13 12 11 13 16 17 19 20 20 21 22 22 22 21 20 20 20 20 22 23 24 24 24 24 25
15 14 13 11 10 9 9 10 10 10 10 11 12 13 13 14 15 14 13 13 12 15 16 18 19 20 20 21 22 21 21 21 20 21 24 24 22 21 22 23 27 26 25
16 14 13 11 11 10 11 11 11 11 11 12 13 14 14 15 15 14 14 14 15 16 18 19 20 20 20 21 22 21 21 21 22 21 20 20 21 24 26 26 24 17 18
15 14 13 12 11 11 12 12 12 12 12 13 14 14 14 14 13 13 16 17 18 18 18 20 21 21 21 21 21 20 22 20 21 21 23 26 25 23 28 19 16 17 17
15 14 13 12 12 12 12 11 11 12 12 13 13 13 13 13 10 17 18 18 17 17 18 19 20 21 22 21 20 21 21 23 26 27 22 22 25 19 17 17 18 18 18
16 14 13 11 11 11 10 10 10 10 11 12 12 12 12 12 16 17 18 18 17 18 18 19 20 21 21 21 22 22 22 21 21 22 26 20 19 18 19 18 20 23 18
14 12 10 10 9 9 9 9 9 10 11 11 11 11 11 12 15 17 19 20 19 19 19 19 20 20 23 24 23 21 22 25 29 22 20 19 18 19 23 24 21 20 20
11 10 10 9 8 8 8 8 9 10 11 11 11 11 11 10 16 19 21 21 20 20 20 20 21 23 22 20 19 24 28 23 23 19 17 20 24 22 19 20 22 23 23
10 9 8 7 7 8 8 9 10 11 11 11 11 11 9 12 17 20 21 20 20 20 20 21 25 22 19 21 29 23 21 18 15 19 24 20 18 18 19 23 21 20 16
8 8 8 8 8 8 9 10 11 11 11 11 10 9 11 11 16 19 20 20 20 20 23 26 22 20 20 26 18 17 16 15 23 24 15 15 17 18 20 20 23 18 18
9 8 9 9 8 9 11 11 11 11 11 9 9 10 11 13 17 20 20 20 20 25 23 20 20 23 23 17 17 16 17 21 20 15 16 17 18 19 19 21 23 22 19
9 9 8 9 10 11 11 11 11 10 10 10 11 12 15 16 19 19 19 20 21 18 20 22 24 22 17 16 17 18 19 19 16 18 18 18 18 19 20 22 22 23 23
8 7 9 11 13 12 12 11 10 11 11 12 14 16 16 17 17 19 19 20 19 20 23 21 20 17 15 16 16 17 17 16 18 19 18 18 19 20 21 21 22 22 22
7 9 11 12 15 13 12 11 12 13 14 16 16 16 16 16 16 17 18 18 21 22 22 19 16 15 15 16 15 15 16 16 18 19 19 19 19 19 19 21 21 20 20
9 11 11 14 14 13 12 12 15 16 17 17 17 17 16 16 16 18 17 18 19 19 17 15 13 14 15 14 15 15 16 17 18 18 18 18 18 18 19 19 21 21 20
10 11 13 15 13 12 13 13 16 16 17 16 16 16 16 17 17 17 18 19 18 17 15 13 14 15 15 15 16 17 17 17 17 18 18 17 18 19 18 20 19 21 20
10 13 14 14 13 13 14 14 14 15 16 15 15 15 16 16 17 17 19 17 16 16 14 15 15 15 15 16 17 17 16 17 17 17 17 18 19 18 18 18 19 20 20
12 17 15 14 14 14 15 14 14 14 14 13 14 14 14 15 17 18 17 16 13 15 15 15 15 15 16 17 17 17 17 16 16 17 18 17 18 18 18 19 20 20 22
14 15 16 15 14 16 14 15 15 15 14 12 12 12 12 15 18 17 15 14 15 15 15 15 16 16 17 17 17 17 17 16 18 18 17 17 18 19 19 20 22 22 23
14 16 17 16 15 15 16 15 15 13 11 11 11 11 12 17 16 14 14 15 15 15 15 16 16 17 17 17 17 17 16 16 16 16 17 18 18 19 19 21 23 22 22
14 14 17 16 16 17 15 14 13 11 10 10 11 12 16 16 14 14 15 15 15 16 16 17 16 17 17 17 16 16 16 16 16 17 17 18 19 19 20 24 23 24 24
15 16 16 16 16 14 13 11 10 10 11 12 13 14 15 14 14 15 14 15 16 16 17 17 17 17 17 17 17 16 16 16 17 18 18 18 19 20 22 24 24 24 24
16 16 16 15 12 11 10 10 11 11 13 14 14 14 14 14 14 14 14 15 16 16 16 16 16 16 17 18 18 18 17 17 18 19 19 20 21 25 25 24 24 24 24
15 14 12 10 10 11 10 11 12 13 14 14 15 15 15 14 14 14 15 16 16 16 15 15 16 17 17 17 18 19 20 20 21 23 26 28 27 26 25 25 25 25 25
13 11 10 10 10 11 11 12 14 15 15 15 14 14 14 14 15 15 15 15 15 14 14 14 16 17 18 18 18 19 21 26 30 31 30 29 28 27 26 26 26 26 24
11 10 11 11 11 12 13 14 14 15 14 14 15 14 14 15 15 14 14 14 14 13 14 15 16 17 17 18 20 22 27 31 32 31 29 28 28 27 27 27 27 26 24

GFSGL_sfc_30mbdewp_033.txt.gz
Dewpoint
16 15 13 11 10 9 8 8 9 9 10 11 12 13 13 14 14 14 14 13 13 13 14 16 18 20 20 21 21 22 22 22 21 21 21 22 23 20 20 21 22 23 24
15 13 12 10 10 9 9 10 10 10 11 12 13 13 14 14 14 13 13 13 15 15 16 17 18 19 20 21 21 21 22 22 21 22 24 21 19 20 21 22 24 26 33
14 13 11 10 10 10 11 11 11 11 12 13 13 13 14 14 13 13 13 15 16 17 18 18 18 20 20 21 21 21 22 22 24 23 20 21 22 23 24 27 27 22 18
14 13 12 11 11 11 12 11 11 12 12 13 13 13 13 13 13 12 17 18 18 18 18 19 19 20 21 21 21 20 24 21 21 22 23 23 23 26 26 18 15 17 17
14 14 13 12 12 12 11 11 11 11 12 13 12 12 12 12 10 18 20 19 19 18 19 19 20 21 21 20 20 20 20 22 24 23 21 25 20 17 15 17 17 18 20
15 14 13 12 12 11 10 10 10 11 11 12 11 11 11 11 16 19 21 21 20 20 19 20 20 21 21 22 21 21 21 20 24 26 21 19 17 16 17 18 22 21 17
15 13 12 12 10 10 9 9 9 10 11 11 11 11 10 11 16 19 21 23 21 20 20 20 20 20 22 24 23 21 26 29 22 21 19 17 17 18 25 23 21 21 19
13 11 11 10 9 8 8 9 10 10 11 11 11 11 10 10 17 19 21 21 21 20 20 21 20 21 25 21 23 29 22 20 19 18 17 20 25 22 18 20 23 23 22
11 10 9 8 8 8 9 9 10 11 11 11 11 10 10 12 18 19 21 20 20 20 20 21 24 24 20 22 26 21 18 18 16 19 25 20 18 19 20 24 21 19 16
10 8 8 8 8 9 10 11 11 11 11 11 10 10 13 13 16 20 21 20 20 19 24 25 22 20 20 25 19 17 17 16 23 24 16 16 18 18 20 21 23 18 18
9 8 9 8 9 10 11 11 11 11 10 10 11 12 13 15 18 20 20 20 19 20 18 21 21 22 23 18 18 17 18 22 20 15 16 17 18 18 19 20 22 22 19
9 9 8 10 11 11 11 11 11 11 11 12 14 15 16 17 19 19 20 20 20 18 20 21 22 22 18 17 17 18 20 18 16 16 18 18 18 18 19 20 21 22 23
8 8 10 12 12 12 11 11 11 12 13 14 15 16 16 17 17 19 20 20 19 21 21 20 20 18 16 16 17 18 17 16 17 18 18 17 18 19 20 20 20 21 21
8 10 11 13 14 13 12 12 13 14 15 16 17 16 17 17 17 17 19 19 21 20 20 18 17 15 15 16 15 15 15 16 18 18 18 18 18 18 18 19 19 19 20
10 11 13 14 13 13 12 13 16 16 17 17 17 17 16 16 17 19 18 19 19 19 18 16 13 14 14 14 14 15 16 16 17 17 17 17 17 17 17 18 19 20 19
10 11 15 15 13 13 13 14 16 17 17 17 17 16 16 17 17 18 19 19 18 18 16 14 14 15 14 14 15 15 16 16 17 17 17 16 16 17 17 18 18 19 19
10 14 14 14 14 13 14 14 14 15 16 15 15 15 16 16 17 18 19 18 17 16 14 15 15 15 15 16 16 16 16 16 17 17 16 16 18 16 17 17 18 19 20
13 18 15 15 15 15 15 15 15 14 14 13 13 14 14 15 17 19 17 16 14 15 15 15 15 15 15 16 17 16 16 16 16 16 17 16 16 17 17 17 18 19 23
14 15 17 16 15 17 16 15 14 14 14 12 11 11 12 15 19 18 16 15 15 15 15 15 15 16 16 17 17 16 16 16 17 17 16 16 17 17 17 17 19 21 24
14 17 18 17 16 16 15 14 14 12 10 11 11 11 13 17 18 14 15 15 15 15 15 15 15 16 16 17 16 16 16 15 16 16 16 17 17 18 18 18 19 21 22
14 15 17 16 16 16 13 13 11 10 10 11 11 13 16 17 14 14 15 14 14 15 15 15 15 16 16 16 16 16 16 15 16 16 17 17 18 18 19 20 21 23 23
16 15 16 15 14 11 12 11 10 11 11 12 14 14 15 14 14 15 14 14 15 16 16 16 16 16 17 16 16 16 15 15 16 17 17 18 19 19 20 22 23 23 24
14 14 13 11 10 12 10 10 12 12 13 14 14 14 14 14 14 14 14 15 15 15 15 16 16 15 16 17 18 18 16 16 18 19 18 19 20 21 25 25 24 23 24
13 12 10 10 10 12 11 12 12 14 14 14 14 13 14 14 13 13 15 15 14 15 15 15 16 16 16 17 18 19 19 20 21 23 27 28 27 27 26 26 25 24 24
11 10 10 11 11 11 12 13 14 14 14 13 13 14 14 13 13 14 14 14 14 14 13 14 15 16 17 17 18 18 20 26 31 32 30 28 28 27 27 26 26 25 23
10 11 11 11 11 12 13 13 13 13 13 13 14 13 13 13 14 14 13 14 13 13 13 14 15 17 17 18 19 22 27 31 32 31 29 28 28 28 29 27 25 23 21

GFSGL_sfc_30mbdewp_036.txt.gz
Dewpoint
18 15 13 11 9 9 8 9 9 10 11 12 13 13 14 14 14 13 13 13 14 16 16 17 17 19 19 21 21 22 22 22 21 21 21 21 23 21 20 21 22 22 23
15 13 11 10 9 9 9 10 10 11 12 13 13 13 13 14 14 12 12 14 16 17 17 18 18 18 19 20 21 21 21 22 21 21 23 21 20 21 22 23 25 27 29
13 12 11 11 10 10 11 11 11 12 12 13 13 12 13 13 12 12 13 16 18 18 18 19 19 19 19 20 21 21 22 22 24 22 20 21 22 23 26 24 21 18 16
13 12 11 11 11 11 12 11 12 12 12 13 13 12 12 12 12 12 18 20 20 19 19 20 19 20 20 21 21 21 21 20 20 22 22 23 26 22 19 16 15 16 17
14 14 12 12 13 12 11 12 12 12 12 13 12 11 12 11 10 18 21 21 21 20 20 20 20 21 22 22 21 21 21 22 23 25 24 20 18 17 16 16 16 18 22
15 14 13 13 12 11 11 10 11 11 11 12 11 11 10 11 16 20 22 22 22 20 20 20 21 22 21 23 22 22 22 23 27 22 20 18 17 16 17 18 23 20 17
15 13 13 12 11 10 10 10 10 10 11 11 11 11 10 11 17 21 21 22 21 21 20 20 20 20 23 22 24 24 26 27 21 19 18 17 17 18 24 23 20 21 20
13 12 12 11 9 9 10 10 10 11 11 11 10 11 10 11 20 20 21 22 21 20 20 20 20 21 23 23 22 29 25 21 19 18 18 20 26 23 19 20 23 23 22
12 11 10 9 8 9 10 10 11 11 11 10 11 10 11 14 19 20 21 21 20 20 20 21 22 22 21 23 27 23 19 18 17 19 24 22 19 20 21 23 21 19 16
11 9 9 9 9 10 11 11 11 11 11 11 10 12 15 14 18 20 21 20 20 20 20 20 21 21 21 26 19 18 17 16 22 25 16 16 17 18 20 19 20 18 17
10 9 9 10 10 11 11 11 11 10 11 11 13 15 15 17 19 20 20 20 20 20 18 19 21 21 22 19 19 17 18 22 20 15 16 16 18 18 18 19 20 21 18
10 9 10 11 11 12 11 11 10 11 12 13 15 16 17 17 19 19 20 21 20 19 20 21 20 21 19 18 18 19 20 19 15 16 17 17 17 18 18 19 20 21 21
9 10 12 13 12 12 11 11 11 13 14 15 16 17 17 17 17 19 20 21 19 20 22 20 20 19 16 16 17 18 18 16 16 18 18 17 17 18 19 19 19 20 20
9 11 13 16 13 12 12 12 14 14 15 16 17 17 17 17 17 18 19 19 20 22 21 20 18 15 16 16 15 15 15 16 17 18 17 17 17 17 17 17 18 18 19
10 12 14 14 13 12 13 13 16 17 18 18 18 17 17 16 17 19 19 19 20 19 19 16 13 14 14 14 14 15 15 16 17 17 17 16 16 16 16 17 18 19 17
11 13 17 13 13 13 13 13 16 17 17 17 16 16 16 17 18 19 19 20 19 18 17 14 14 14 14 14 14 15 15 16 16 17 16 16 15 15 16 17 17 17 18
12 14 14 14 13 13 14 15 14 14 15 14 14 15 16 16 18 19 20 18 18 16 14 15 15 14 15 15 15 16 16 16 17 17 16 15 17 16 16 15 16 17 18
18 19 15 15 14 14 16 15 15 14 13 11 12 14 14 16 18 19 18 16 14 15 15 15 15 15 15 15 16 16 16 16 15 15 17 17 16 16 15 15 16 17 19
14 16 17 16 15 17 16 14 14 13 12 11 11 12 13 16 18 19 16 14 15 15 14 15 15 15 15 16 16 16 16 16 17 17 15 16 16 16 15 16 17 19 21
14 18 18 16 15 15 14 13 13 11 10 11 11 11 13 17 18 14 14 15 15 14 14 15 15 15 16 16 16 16 15 15 16 16 16 16 17 17 17 17 18 19 20
14 14 17 15 14 13 11 13 10 10 11 11 12 13 16 16 14 14 15 14 14 15 15 15 15 15 15 16 16 15 15 15 16 16 16 17 17 17 18 19 20 21 23
15 14 14 13 11 10 13 11 10 12 12 13 14 14 15 14 14 14 14 14 14 15 15 15 15 15 16 16 16 15 15 15 16 17 17 18 19 19 20 20 22 24 23
12 12 10 9 10 12 11 11 12 13 14 14 13 13 13 13 13 13 13 14 15 15 14 15 15 15 15 17 17 17 16 16 18 18 18 19 20 21 24 25 25 24 22
11 10 9 10 10 12 11 13 13 13 13 13 13 13 13 13 13 13 14 14 14 14 14 15 15 15 16 16 17 19 19 20 20 22 25 28 27 27 27 26 25 24 23
10 10 10 10 11 11 12 13 13 13 13 12 12 13 13 12 13 13 14 14 13 13 13 14 15 16 16 16 17 18 20 26 30 32 31 28 27 28 28 26 24 22 22
11 11 10 10 11 12 12 12 12 12 12 12 13 12 12 12 13 13 13 13 13 13 13 14 15 16 16 17 19 21 27 30 33 32 31 28 28 28 29 26 24 22 20

GFSGL_sfc_30mbdewp_039.txt.gz
Dewpoint
22 19 16 13 12 11 11 11 11 12 13 13 14 14 14 14 14 12 12 14 16 17 18 18 19 19 19 19 20 20 20 19 19 20 20 21 20 19 19 21 22 22 23
17 15 12 11 10 10 10 11 12 12 13 14 14 13 13 13 13 11 12 15 17 18 19 19 19 19 19 19 19 19 20 20 21 21 21 21 18 20 21 23 22 20 19
14 12 11 11 11 10 11 12 12 13 14 14 13 12 12 13 12 11 14 18 20 20 20 20 20 19 18 18 20 21 21 21 22 22 20 21 22 24 22 19 16 16 16
13 13 12 12 11 11 12 12 13 13 13 13 13 12 12 11 11 13 18 21 22 21 21 21 20 19 19 21 22 22 23 22 21 22 22 25 22 20 20 17 16 17 18
14 14 13 13 13 13 13 13 13 13 13 13 12 12 12 12 9 19 22 22 22 22 21 20 20 21 23 23 22 22 21 22 24 25 25 20 19 18 16 17 17 19 22
15 14 15 13 13 13 12 13 13 13 12 12 11 11 11 10 17 21 22 22 22 22 20 19 20 22 22 22 22 22 23 23 27 25 22 19 16 16 18 19 23 21 18
15 14 13 13 12 12 12 12 12 12 12 11 11 11 10 11 19 21 22 22 21 21 20 20 20 20 22 22 23 24 24 30 24 22 18 17 18 19 24 24 22 21 20
14 13 13 12 11 11 11 11 11 11 11 10 10 11 11 12 21 21 22 21 21 20 20 20 20 21 22 22 22 28 27 21 19 18 18 20 25 26 21 21 22 23 22
13 12 11 10 10 11 11 11 11 11 10 10 11 11 13 16 20 21 22 21 20 20 20 21 21 19 20 21 25 26 19 18 17 19 24 23 19 20 21 23 22 19 17
12 10 10 10 11 11 11 11 11 11 10 11 11 14 16 15 19 21 21 20 20 19 20 19 19 21 20 24 22 20 18 16 21 25 16 15 16 17 20 19 20 19 18
10 10 10 11 11 11 11 11 10 11 11 11 13 15 16 17 18 20 21 20 20 20 18 18 21 20 24 20 19 18 17 22 21 16 15 16 17 18 18 19 20 21 18
10 11 12 12 11 11 11 11 11 12 12 13 16 16 17 17 19 19 20 21 21 19 19 21 20 22 19 18 18 19 21 20 15 15 16 18 18 19 19 20 20 21 21
11 12 12 12 12 11 11 11 12 13 13 15 16 16 16 17 17 19 21 21 20 21 22 20 21 19 17 16 17 19 18 15 15 17 18 18 18 19 20 20 20 20 21
11 13 14 13 12 12 13 12 14 14 15 17 17 16 17 16 16 17 19 20 20 23 20 20 18 16 16 16 15 14 15 15 17 18 18 18 18 18 18 19 18 19 19
12 13 14 13 12 12 13 13 16 17 18 17 17 17 16 15 16 19 19 19 22 20 19 17 12 13 13 13 14 14 15 15 17 17 18 17 17 17 17 18 19 19 17
13 15 14 13 13 13 13 13 17 17 17 17 16 16 16 17 18 19 20 21 19 19 16 13 13 13 13 13 14 15 15 16 16 17 17 17 17 17 17 18 18 18 17
13 15 16 13 13 13 14 14 13 12 14 13 14 15 16 17 18 19 20 19 18 16 13 14 14 14 14 15 15 16 16 16 18 17 17 17 17 18 16 16 17 17 17
18 17 15 14 13 16 16 15 13 12 10 9 11 14 15 16 18 19 18 16 13 14 14 14 14 14 15 15 16 16 17 16 16 16 18 18 17 17 16 16 17 17 18
16 17 16 15 16 17 14 12 13 11 10 9 10 12 13 16 18 18 16 14 14 14 14 14 14 15 15 16 16 16 16 16 18 18 16 17 17 17 16 17 18 19 21
17 19 17 14 14 13 11 12 11 9 10 10 11 11 13 17 17 14 13 14 14 13 14 14 15 15 16 16 16 16 16 16 16 16 17 17 18 18 18 18 19 20 21
14 14 16 12 11 10 11 13 10 10 11 12 12 13 16 16 13 13 14 14 13 14 14 15 15 15 16 16 16 16 15 16 16 17 17 18 18 18 19 20 21 22 23
12 12 11 9 9 10 13 10 11 12 12 13 13 13 14 12 12 13 13 13 14 14 15 15 15 15 16 16 16 16 16 16 16 17 18 19 20 21 21 22 23 24 25
10 9 8 9 10 13 11 12 12 12 13 13 12 12 12 12 12 13 13 13 14 15 15 15 15 15 16 17 18 17 16 16 18 19 19 20 21 22 25 26 26 25 24
9 9 9 10 10 11 11 13 12 13 12 12 12 11 12 12 12 12 13 14 14 14 14 15 16 16 16 16 17 18 19 19 21 23 26 28 28 28 27 27 26 23 23
9 10 10 10 10 10 12 12 12 12 11 11 11 12 12 12 12 13 13 14 14 14 14 15 16 16 17 17 17 18 20 25 30 31 32 30 28 27 28 27 24 23 21
11 10 10 10 10 11 12 12 12 11 11 12 12 13 12 12 13 14 14 14 14 14 14 15 16 17 17 18 19 22 27 30 32 32 30 29 28 28 29 26 25 23 22

GFSGL_sfc_30mbdewp_042.txt.gz
Dewpoint
34 28 23 19 17 17 17 16 15 13 13 13 13 13 13 13 11 10 10 12 13 16 17 18 18 18 18 16 16 16 16 16 15 17 17 18 18 18 17 19 20 21 20
27 23 18 17 16 16 15 14 13 12 12 12 12 12 12 11 10 8 9 13 15 17 18 18 18 17 16 15 15 15 16 18 18 18 19 20 18 18 20 21 19 15 15
21 17 16 16 15 14 13 12 12 12 13 13 13 11 10 11 9 8 12 15 17 18 19 19 19 17 15 16 17 18 19 19 22 23 22 20 21 23 21 20 17 16 16
17 16 16 16 15 13 12 12 12 13 13 13 12 11 11 9 10 12 16 18 19 19 20 20 19 17 17 18 19 19 18 19 19 19 21 23 27 22 21 17 15 17 18
16 17 17 15 14 13 13 12 13 13 13 13 12 11 10 11 7 17 19 20 19 19 18 18 17 18 21 23 22 20 20 21 23 24 24 27 22 18 14 16 18 19 21
18 17 16 14 13 13 13 13 14 14 13 13 11 11 10 9 16 22 23 20 19 18 17 16 16 18 18 21 22 22 23 25 28 28 25 21 15 14 17 18 21 24 19
17 16 14 14 13 13 13 13 13 13 13 11 11 10 9 10 18 23 22 20 19 17 17 17 17 17 19 19 19 22 24 25 26 23 19 15 15 17 22 26 23 21 21
16 14 13 12 12 12 13 13 13 12 11 10 10 10 10 11 20 21 22 20 18 18 18 18 18 19 18 19 20 24 27 23 17 17 16 17 21 25 25 21 22 22 22
15 13 11 11 11 11 12 12 12 11 11 10 10 10 11 12 17 21 22 18 17 17 18 18 19 18 19 21 23 28 19 16 16 16 20 24 24 20 20 22 23 21 19
13 11 10 10 11 12 12 12 12 11 11 10 9 11 13 12 15 20 21 18 17 17 17 18 17 19 20 23 25 18 18 14 17 24 22 16 16 17 19 20 22 21 20
10 10 11 12 12 12 12 12 11 11 11 9 9 11 12 13 15 19 20 20 18 18 17 16 17 19 21 21 20 18 16 20 23 18 15 16 17 18 19 20 21 23 21
11 12 12 12 11 12 12 11 11 11 10 8 10 10 10 12 14 16 20 22 21 19 17 18 19 21 21 20 18 18 20 21 17 15 16 18 19 21 22 22 22 23 23
12 12 12 12 12 12 12 12 11 11 9 9 10 10 10 11 12 15 19 19 19 19 22 21 21 19 18 15 15 19 18 15 15 17 19 20 21 22 22 22 23 23 23
11 12 12 12 12 12 13 12 11 10 10 12 11 11 11 11 11 14 17 18 18 21 21 21 17 16 14 14 14 14 15 15 17 19 20 20 21 21 21 21 21 20 21
13 14 14 13 12 11 12 11 12 13 17 14 12 12 12 12 13 19 20 19 21 20 20 15 12 11 12 12 13 14 15 16 18 19 20 19 19 19 20 20 21 21 20
12 12 12 12 12 11 10 9 16 17 17 16 16 16 15 16 18 20 20 21 20 19 16 12 11 13 13 14 15 16 17 18 18 20 19 19 19 19 19 21 21 20 20
13 13 14 11 10 10 10 9 6 6 10 11 13 15 17 18 19 20 20 19 18 16 12 13 13 14 14 15 16 17 18 18 19 20 20 19 20 20 19 19 20 20 20
15 15 13 12 11 11 10 7 6 6 4 4 8 13 14 17 19 19 18 16 11 13 13 14 14 14 15 16 17 18 19 19 19 19 20 20 20 20 19 19 20 20 21
15 14 13 11 13 11 7 6 7 6 5 7 8 10 11 15 17 16 14 12 13 13 13 13 14 15 16 17 18 19 19 19 20 20 19 20 20 20 20 20 20 21 22
19 18 12 9 8 6 6 8 7 6 8 9 9 10 11 14 14 12 12 13 13 13 13 14 14 16 17 19 19 19 18 18 19 19 19 20 21 21 21 21 21 22 23
11 13 12 6 5 6 9 8 7 9 10 10 10 11 15 15 12 12 13 13 13 14 14 14 16 17 18 19 19 18 18 18 19 19 20 20 21 21 22 23 24 25 24
9 8 6 6 6 8 10 9 10 10 11 11 11 10 13 10 11 13 13 14 14 15 15 16 17 18 19 19 19 18 18 18 19 20 20 21 21 22 23 25 25 27 24
6 5 5 6 7 11 9 10 11 11 11 11 10 10 10 10 11 13 14 14 15 15 16 17 18 18 19 20 21 20 19 18 20 21 20 21 22 23 25 28 28 24 23
6 6 7 7 8 10 9 11 11 11 11 11 11 11 11 11 12 13 15 15 16 17 17 18 18 19 19 19 20 21 22 22 22 22 24 28 29 29 28 28 26 25 24
8 7 7 7 8 9 10 11 11 11 12 12 12 12 12 12 14 15 16 16 17 17 18 18 19 20 20 20 20 21 23 25 29 31 32 31 30 29 29 28 26 25 24
9 8 7 8 9 10 11 12 13 12 13 13 13 14 13 13 15 16 17 18 18 17 17 18 20 20 21 21 22 24 27 31 32 30 29 29 29 29 28 26 26 25 24

GFSGL_sfc_30mbdewp_045.txt.gz
Dewpoint
45 38 32 26 21 20 19 18 18 18 18 17 16 15 14 14 12 11 11 11 13 15 17 17 18 18 18 18 18 17 17 17 16 17 19 20 20 20 20 20 21 22 21
37 32 26 21 20 19 19 18 18 17 15 14 13 12 12 11 10 9 9 11 14 15 17 18 18 17 18 17 16 16 17 18 19 19 20 21 21 21 20 22 23 22 19
31 25 20 20 20 20 19 19 17 15 13 13 13 12 11 11 10 9 11 13 15 17 18 18 19 18 17 17 17 18 19 20 20 20 20 20 21 22 24 25 21 19 17
25 21 19 19 17 16 16 16 15 14 14 13 13 12 11 10 10 11 15 17 19 19 19 19 19 19 17 17 19 21 20 20 21 21 21 23 24 27 24 19 17 18 19
22 20 19 18 17 16 16 15 14 14 14 13 12 11 11 12 8 16 18 19 19 18 19 18 17 18 19 21 21 22 22 22 23 24 24 26 25 20 18 17 17 19 20
21 20 19 18 17 16 15 15 15 15 14 14 12 11 11 10 18 22 24 21 19 17 17 16 17 17 17 19 21 21 21 21 25 28 26 24 22 18 17 18 21 22 22
21 19 18 17 17 16 15 15 15 14 14 13 12 11 10 11 18 22 23 21 19 18 17 17 17 17 19 19 19 19 22 23 24 24 22 19 18 18 21 22 24 24 21
20 19 17 16 15 15 15 15 15 14 13 12 11 11 11 11 18 21 22 20 17 17 17 17 18 18 19 19 20 24 25 27 24 19 18 18 19 22 28 29 23 22 22
18 17 15 14 14 14 14 13 13 12 12 11 12 11 11 10 16 20 22 19 16 16 17 17 18 19 18 20 22 25 25 20 19 17 19 21 23 22 20 20 22 22 20
19 14 13 13 13 14 14 13 13 13 12 12 10 11 11 12 12 17 21 19 17 17 18 18 17 17 19 21 22 22 20 18 18 21 22 21 18 17 19 20 22 23 21
12 12 13 13 13 14 13 13 13 13 12 11 9 9 10 11 13 16 19 20 19 20 20 18 18 19 21 22 21 20 19 19 21 22 18 17 18 19 21 22 23 24 22
13 13 13 13 13 13 13 12 12 12 11 9 8 10 10 10 12 13 17 20 21 20 18 19 21 22 21 20 19 18 19 21 18 16 17 18 19 21 22 22 22 23 24
13 13 13 13 13 13 13 13 12 11 9 8 10 10 10 11 11 12 15 18 19 19 20 21 21 20 19 16 15 17 17 16 16 18 19 20 21 22 22 23 23 24 24
12 13 13 12 12 13 13 12 11 9 9 10 9 10 10 10 11 13 18 19 19 20 22 22 19 17 13 14 14 14 15 16 18 20 21 21 21 21 21 21 22 22 22
13 13 14 14 12 12 12 11 10 12 15 14 12 12 12 12 14 20 20 20 21 21 20 19 15 11 13 13 14 15 16 17 19 21 22 21 20 20 20 20 21 22 21
13 13 13 13 12 11 10 8 16 15 16 18 17 16 16 17 19 20 20 20 20 20 18 14 12 14 14 14 15 17 18 19 20 22 21 20 20 20 20 21 21 21 20
13 13 13 11 10 9 8 7 5 9 16 15 12 12 15 17 18 20 20 19 18 15 13 14 15 15 15 16 17 18 19 20 21 21 21 20 20 21 20 19 20 21 21
15 14 13 12 11 9 8 6 5 5 4 4 7 11 13 15 17 18 18 16 12 13 14 15 15 15 16 17 19 19 20 20 20 20 20 21 20 20 20 20 20 21 21
14 14 12 11 12 10 6 5 6 5 4 6 8 9 11 13 16 16 14 13 14 14 14 14 15 16 17 19 20 20 20 20 21 21 20 20 20 21 20 20 21 22 23
18 15 11 7 6 4 4 7 6 5 7 8 9 10 10 15 16 12 13 14 14 14 15 15 16 17 18 20 20 20 20 19 19 20 20 20 21 21 21 21 22 22 23
13 12 10 5 4 5 7 7 6 8 9 10 10 10 13 15 12 12 13 14 15 16 16 16 17 18 19 20 20 19 19 19 19 20 20 21 21 21 22 22 23 24 25
8 6 5 5 5 6 9 9 9 10 10 10 10 10 12 10 11 12 14 15 16 17 17 18 19 19 20 20 20 19 19 19 19 20 20 21 21 22 23 23 24 26 27
5 4 4 4 6 9 8 8 10 10 10 11 10 10 10 10 11 13 14 16 17 18 19 20 20 20 20 21 22 21 20 20 21 22 21 21 22 22 23 25 28 27 25
5 5 5 5 6 9 8 9 10 11 11 11 11 11 11 12 12 13 16 17 19 19 20 21 21 21 21 21 22 22 23 23 24 25 27 26 29 29 29 28 26 24 25
7 6 5 6 7 8 9 10 11 12 13 13 13 12 14 14 14 16 17 18 19 20 20 20 20 21 22 22 22 23 24 28 31 32 29 29 29 29 29 27 24 24 24
7 6 6 7 8 9 12 14 15 14 14 14 15 15 15 15 15 17 18 19 20 19 19 20 21 22 23 23 24 26 29 31 34 31 28 27 28 28 29 28 27 26 25

GFSGL_sfc_30mbdewp_048.txt.gz
Dewpoint
49 40 31 28 27 26 25 23 22 21 21 20 20 17 16 15 14 13 12 13 13 15 17 18 19 19 19 20 20 19 18 18 17 18 18 21 21 21 21 22 22 21 23
34 29 24 23 21 20 19 19 20 19 18 17 16 15 14 12 10 9 10 12 14 15 17 18 19 19 19 19 19 18 18 19 19 19 20 20 21 21 21 21 23 26 24
28 24 21 22 21 20 20 20 20 19 17 15 14 13 12 12 11 9 12 14 15 17 18 19 19 20 19 19 18 19 21 21 22 21 21 21 21 23 24 26 25 21 20
23 22 21 21 20 19 19 18 17 16 15 14 13 13 12 11 11 12 17 18 19 20 20 20 20 19 19 18 20 20 21 22 22 22 22 23 24 26 26 23 20 18 18
22 22 21 19 18 18 17 16 17 16 15 14 13 12 12 13 15 18 22 22 21 20 19 19 18 20 20 20 20 21 22 22 22 24 25 24 23 23 22 21 18 18 19
22 22 19 17 17 17 17 17 16 15 15 14 13 12 14 10 19 22 24 24 22 20 19 18 18 20 18 20 21 21 21 21 23 23 24 25 25 23 19 18 19 20 20
22 20 19 18 18 18 17 16 15 15 14 13 12 12 11 16 19 21 23 23 22 20 19 18 18 17 19 19 21 20 21 23 24 23 23 21 19 19 20 21 23 25 24
22 20 19 18 17 17 17 16 15 15 13 12 12 12 12 16 19 20 22 22 20 19 18 17 18 18 19 20 20 22 24 25 26 25 20 19 20 21 24 28 26 22 22
24 22 18 18 17 16 15 14 13 12 12 12 12 11 11 13 19 18 21 21 19 18 18 19 20 19 20 20 22 23 24 24 21 20 20 22 23 22 21 20 22 21 20
22 21 21 22 18 16 14 14 15 14 13 12 10 11 14 11 14 17 19 20 20 20 20 21 21 19 21 21 22 23 21 20 20 21 22 21 19 19 19 20 21 22 21
32 30 25 17 15 14 15 14 14 13 13 11 10 10 10 12 13 15 17 19 20 21 21 20 19 20 22 23 22 20 19 20 20 21 18 17 18 19 19 21 22 23 21
17 14 15 15 17 14 13 12 12 12 11 9 10 11 11 11 14 14 15 17 20 20 19 19 21 23 22 21 20 18 19 20 16 16 17 18 19 21 21 22 22 23 23
14 14 15 14 14 14 13 13 12 11 9 10 11 11 11 12 12 16 19 20 21 21 20 21 22 21 20 17 16 17 17 16 16 17 20 20 20 21 22 22 21 22 22
13 13 13 13 13 13 13 13 11 11 11 11 11 12 12 13 14 16 20 21 21 21 22 22 21 18 15 15 15 15 16 17 18 19 19 20 21 21 20 20 21 20 20
14 14 15 14 13 12 11 11 11 17 15 14 16 16 15 16 16 20 21 21 21 21 20 19 16 14 15 15 15 16 17 17 19 19 20 20 20 19 19 19 20 21 20
14 14 14 13 12 11 9 11 16 15 14 16 17 16 16 17 19 20 20 21 20 19 17 14 14 15 16 15 16 16 17 18 19 20 20 20 19 19 19 20 21 19 19
14 13 13 11 10 8 8 7 5 9 13 12 15 12 13 15 17 19 19 19 18 15 14 15 16 16 16 16 16 17 18 19 19 20 20 19 19 19 19 18 19 19 19
16 17 13 12 11 9 8 6 6 6 5 5 9 11 13 15 16 18 17 16 13 14 15 15 15 15 16 16 17 18 19 19 19 19 19 20 20 19 18 18 19 19 20
14 13 12 12 10 8 6 6 7 6 6 7 9 11 12 13 17 17 14 14 14 15 15 15 16 16 17 18 19 19 19 19 20 21 19 20 20 20 19 19 19 20 21
15 14 10 7 5 5 6 8 7 7 9 10 10 11 11 15 15 13 13 14 15 15 16 16 17 17 18 19 19 19 19 18 19 19 19 20 20 20 20 20 20 20 21
13 11 8 5 5 6 8 9 8 9 10 11 11 11 14 14 11 12 13 15 15 16 17 17 18 18 19 19 19 19 18 18 19 19 19 20 21 20 21 21 21 22 23
8 6 6 5 6 7 11 10 9 10 11 11 11 11 12 11 11 12 14 15 16 17 18 19 20 20 20 20 20 19 18 18 19 20 20 21 21 22 22 22 22 23 25
5 5 5 5 6 9 9 9 10 11 11 11 11 11 11 11 12 13 14 16 17 18 19 20 20 20 20 21 21 21 19 20 21 22 21 22 23 25 25 27 27 25 25
6 6 5 5 7 9 8 10 10 11 12 12 13 13 13 13 14 14 15 17 18 18 19 20 21 21 20 20 21 23 23 24 25 27 30 29 27 27 27 27 27 26 26
7 6 6 6 8 9 10 11 13 14 15 14 14 14 15 15 16 16 16 17 18 19 19 19 20 20 21 21 22 23 24 28 32 33 31 28 27 27 28 28 27 27 25
7 7 7 8 9 11 13 14 15 15 15 15 15 15 15 16 16 15 16 17 18 18 18 19 20 20 20 21 23 26 30 32 33 33 30 28 27 27 28 26 26 25 24

GFSGL_sfc_30mbdewp_051.txt.gz
Dewpoint
46 42 42 40 38 36 34 29 26 25 25 24 23 22 20 18 17 15 16 14 13 15 17 18 19 20 20 20 20 20 19 19 17 18 19 21 21 21 22 22 22 22 23
37 38 35 34 31 32 29 25 23 22 22 21 21 20 16 14 13 15 15 12 14 15 17 18 19 20 19 20 20 19 18 19 20 19 21 21 22 22 22 22 24 25 26
31 29 28 25 26 25 25 23 22 20 21 19 16 14 13 12 10 11 13 14 16 17 19 19 19 20 19 20 20 19 20 20 21 21 21 23 23 24 24 26 26 25 23
26 25 24 23 22 22 22 21 22 21 19 16 15 14 13 12 13 17 19 20 21 20 20 20 20 19 19 19 19 20 20 21 22 22 23 23 24 23 25 23 22 22 20
26 27 25 25 23 21 21 20 19 19 17 17 18 19 19 15 16 18 23 23 21 20 20 19 19 20 21 20 20 21 22 22 22 22 24 23 22 22 23 22 21 20 19
24 24 23 21 21 20 19 18 17 16 16 16 16 17 12 17 22 25 24 23 22 20 20 20 19 21 19 20 20 20 22 21 22 23 24 23 22 22 20 20 20 20 20
23 20 19 19 21 23 22 20 16 15 14 14 14 13 13 20 22 22 23 23 21 20 19 18 18 18 21 20 21 22 22 23 24 24 24 23 23 20 20 21 24 25 24
21 22 25 26 27 25 19 18 19 20 20 16 12 13 14 20 21 21 23 21 20 19 19 19 20 20 21 21 21 22 24 24 25 26 24 22 21 22 25 26 24 22 22
23 24 28 26 22 20 19 17 14 13 14 13 13 12 12 19 19 19 21 21 20 20 20 21 22 22 22 22 22 22 23 24 24 21 22 23 24 22 21 21 20 20 18
30 29 25 24 24 24 25 25 23 17 14 12 11 11 15 11 16 17 18 20 19 19 20 22 23 21 21 22 23 23 20 19 19 21 21 19 18 19 20 20 20 20 19
32 32 32 32 31 28 24 19 15 13 12 10 10 11 10 13 13 16 16 18 18 20 21 20 20 22 23 23 22 21 19 20 20 16 16 17 18 19 20 21 22 23 20
32 32 30 25 20 17 15 13 13 12 10 10 11 11 13 12 17 17 19 21 22 21 21 20 21 24 22 21 19 18 19 20 16 16 17 18 20 21 21 21 22 23 23
22 19 18 18 15 14 13 12 11 10 10 11 11 12 12 13 14 19 21 22 22 21 22 22 23 21 18 17 17 18 18 16 17 17 19 19 20 21 22 22 21 21 21
20 20 15 13 13 13 14 12 12 11 11 11 12 13 13 15 16 18 21 21 22 22 23 22 19 16 16 17 16 16 16 17 18 19 19 20 20 21 20 20 20 20 19
14 15 15 14 12 11 11 11 15 16 12 11 15 15 15 15 17 21 20 20 21 21 19 16 14 15 16 16 15 16 16 17 18 19 19 19 19 19 19 19 19 19 19
14 14 13 13 12 10 10 11 18 17 16 17 16 15 15 16 18 19 20 20 20 18 15 14 15 15 16 15 16 16 17 18 18 19 19 18 18 18 18 19 20 19 18
14 14 14 11 9 8 7 5 4 8 13 12 12 12 14 16 17 20 19 18 16 16 14 15 15 16 16 16 16 17 17 18 19 19 19 19 18 19 19 18 18 18 18
16 15 12 11 9 7 6 6 7 6 5 7 11 14 14 15 18 18 16 14 14 15 15 16 16 16 16 17 17 18 18 18 18 18 19 20 20 19 18 18 18 18 18
13 13 11 9 9 7 6 8 7 7 8 9 10 12 13 15 17 14 13 14 14 15 16 16 16 17 17 18 18 18 18 18 19 20 18 19 20 20 18 18 19 20 21
15 14 9 5 5 6 9 9 8 9 10 11 11 11 12 16 12 12 13 14 15 15 16 16 17 18 18 18 18 18 18 18 18 18 19 19 20 20 19 20 20 20 20
11 11 10 6 6 8 10 10 9 10 11 11 11 12 15 13 11 12 13 14 15 16 17 18 18 19 19 19 19 18 18 18 18 19 19 20 21 21 22 22 22 22 22
7 6 6 6 6 9 11 9 10 11 11 11 12 12 14 12 12 13 14 14 16 17 18 19 19 19 20 19 19 19 18 18 19 20 21 21 22 22 23 23 24 24 25
5 5 5 6 7 11 9 10 11 11 12 12 13 13 13 13 13 15 15 15 16 17 18 19 19 19 20 20 21 20 19 20 21 22 22 23 25 26 26 26 26 26 25
6 5 5 6 10 9 9 11 12 14 15 14 14 14 14 15 15 15 16 16 16 17 18 19 19 20 19 19 21 22 22 23 25 27 31 29 27 26 26 26 26 25 25
6 5 6 7 8 9 11 13 14 15 15 14 15 15 15 15 15 16 16 16 16 17 18 18 19 19 20 20 20 21 23 28 31 32 32 29 27 27 27 27 25 25 24
6 7 7 8 10 12 13 13 14 14 14 15 15 14 14 15 15 15 15 16 16 17 17 18 18 19 19 20 21 24 28 31 33 34 33 30 28 28 29 27 26 24 24

GFSGL_sfc_30mbdewp_054.txt.gz
Dewpoint
49 46 46 46 45 44 43 40 36 33 32 29 26 26 26 24 22 20 19 16 15 16 18 18 18 20 20 20 21 20 20 20 17 18 19 20 22 22 22 23 23 23 23
44 43 43 42 42 40 39 35 32 30 28 26 24 23 23 22 16 16 16 19 22 20 17 18 18 19 20 20 20 20 19 19 19 18 20 21 22 23 23 23 24 24 25
41 41 40 39 38 37 32 30 29 26 23 21 20 18 16 15 15 14 14 15 17 20 21 20 20 20 20 20 20 19 19 20 20 21 21 22 23 23 25 24 25 26 25
37 35 35 35 33 29 27 24 23 23 23 22 20 17 15 15 20 23 24 26 26 23 21 20 20 20 19 18 19 19 20 20 21 21 22 22 23 25 24 22 21 21 21
31 30 28 28 27 25 24 22 22 21 20 19 21 24 27 28 28 27 27 25 22 20 20 20 20 22 24 22 21 21 21 21 22 21 22 23 23 22 21 22 21 20 20
31 29 27 26 26 26 24 24 23 24 26 27 28 29 26 26 29 28 25 22 21 20 19 19 19 19 20 23 23 22 22 22 22 22 23 24 23 23 22 22 20 20 20
28 28 27 24 24 24 25 25 26 26 26 26 23 20 23 27 26 24 26 21 20 19 18 18 19 20 22 21 23 23 23 24 23 24 24 24 23 23 22 22 23 24 22
30 29 28 29 30 30 29 28 28 27 26 26 25 25 25 25 23 23 24 20 19 19 20 20 20 22 22 23 23 23 23 24 24 24 25 25 24 23 26 25 22 22 21
30 31 31 31 30 29 28 26 23 20 21 21 17 14 20 22 20 21 22 20 19 18 20 21 23 23 23 23 23 23 24 24 24 22 22 24 25 23 21 21 21 20 18
31 32 32 32 30 29 28 29 31 31 29 23 19 14 15 11 20 17 19 20 18 18 20 21 23 22 22 24 24 22 21 19 19 21 20 17 17 18 20 20 20 20 19
32 32 32 32 32 32 32 31 30 26 17 11 11 11 13 15 15 18 19 19 20 21 21 21 21 23 24 23 21 20 19 20 20 16 16 17 18 19 20 21 22 22 20
33 33 33 33 33 32 30 27 21 13 10 11 12 13 13 13 20 20 21 22 23 22 21 21 22 24 22 20 19 19 20 20 16 16 17 18 19 20 20 21 22 22 23
32 31 30 26 19 15 12 12 10 11 11 11 12 11 11 14 16 21 23 22 22 22 23 23 23 21 18 17 18 19 19 16 17 17 19 19 19 20 21 21 22 21 21
22 19 16 14 13 13 13 12 11 10 9 10 11 11 13 15 17 20 21 21 22 22 23 18 17 16 17 17 17 16 17 17 18 19 19 19 20 20 20 20 20 19 19
17 15 16 15 12 11 13 14 13 13 10 10 13 14 14 15 17 20 21 20 21 20 18 14 14 15 16 15 16 16 16 17 18 19 19 19 18 19 18 19 19 18 18
14 14 13 12 11 12 13 14 19 17 17 17 19 17 15 17 19 20 20 20 20 18 15 14 15 15 16 16 16 16 17 18 18 18 18 18 18 18 18 19 20 19 17
14 15 14 9 8 6 5 4 4 7 13 15 16 16 16 17 18 19 18 18 16 17 15 15 16 16 16 17 17 17 17 17 18 18 18 18 18 19 19 18 18 18 17
15 15 10 9 7 6 6 7 7 5 6 8 12 15 15 17 18 17 16 14 13 15 15 16 16 17 17 17 17 17 17 17 17 17 18 19 19 18 18 18 18 18 18
14 12 10 8 7 8 8 8 7 8 9 10 11 12 14 18 16 14 14 13 14 15 15 16 17 17 17 18 18 17 17 17 19 19 17 18 19 19 18 19 19 20 21
12 12 9 6 7 8 9 8 8 10 10 11 11 11 13 14 11 12 13 14 14 15 16 16 17 18 18 18 18 18 17 17 17 17 18 19 20 21 20 20 20 21 21
13 12 10 6 7 10 10 9 9 11 11 11 11 12 16 13 12 13 14 14 14 15 16 17 18 18 18 18 18 18 17 17 18 19 19 20 21 22 22 22 22 23 23
7 6 6 5 9 11 9 9 11 11 11 12 12 13 15 13 13 14 15 15 15 16 17 18 18 18 19 19 18 18 18 18 18 20 21 22 23 23 24 25 25 25 25
5 5 5 6 10 10 9 11 11 13 14 14 14 14 14 14 14 15 15 15 16 16 17 18 18 18 18 20 20 20 19 19 21 22 22 23 25 27 26 26 26 25 24
5 4 5 7 10 8 11 12 13 15 15 14 14 14 14 14 15 15 15 16 16 16 17 17 18 18 18 19 20 21 21 22 23 26 30 30 29 27 27 27 26 26 24
5 5 5 7 8 10 11 13 14 14 14 14 14 14 14 14 14 15 15 15 15 16 16 17 18 18 18 19 19 20 22 26 30 31 33 31 30 28 28 28 28 27 24
6 6 7 8 11 12 13 13 13 13 13 14 14 13 13 14 14 14 14 15 15 15 15 17 18 18 18 19 20 23 27 30 32 34 31 30 30 29 29 29 27 27 25

GFSGL_sfc_30mbdewp_057.txt.gz
Dewpoint
46 47 48 49 48 47 46 44 42 40 39 37 34 32 29 27 24 21 20 19 19 21 20 20 21 21 21 21 22 21 20 21 19 19 19 19 20 21 22 23 24 24 24
46 46 46 45 45 44 42 40 38 38 36 33 30 27 25 22 20 19 18 20 21 24 23 20 19 20 20 20 20 20 20 20 19 18 19 20 21 22 23 23 24 24 24
43 43 43 43 42 42 40 37 36 32 29 27 26 25 21 20 19 20 21 21 19 21 23 25 24 20 20 21 20 20 20 20 20 20 20 22 22 23 23 25 25 24 25
39 40 40 40 40 37 37 35 30 26 25 24 22 20 18 19 21 23 25 27 27 26 25 23 22 20 20 19 19 20 20 20 21 21 21 22 23 23 24 24 22 22 22
33 34 35 34 33 32 29 26 24 22 21 22 23 27 29 30 31 31 31 31 28 23 20 20 20 23 24 24 23 22 22 22 21 21 22 22 22 23 23 22 22 22 21
29 29 29 27 26 25 25 25 26 27 28 30 30 31 33 34 35 33 28 22 20 19 18 18 18 19 22 24 23 23 23 23 23 22 22 23 24 23 23 22 22 22 20
28 28 26 27 28 28 28 29 30 31 32 32 31 30 32 33 33 32 27 23 22 19 18 18 19 20 23 22 23 24 24 25 24 25 24 24 23 23 23 23 23 23 22
31 31 32 32 31 31 31 31 31 31 31 31 31 31 32 33 31 30 25 20 18 18 19 20 20 21 23 23 23 23 24 24 25 24 24 24 24 24 27 26 24 21 22
32 32 33 32 32 31 31 31 31 31 31 31 31 29 27 27 24 25 22 19 19 18 19 21 23 22 23 23 23 24 25 24 23 22 22 24 24 23 21 21 21 20 18
32 32 32 32 32 31 31 31 31 32 31 30 27 25 25 18 23 19 21 20 19 20 21 21 22 22 24 24 24 22 20 19 19 21 19 17 17 17 21 20 20 19 19
33 33 33 33 32 32 31 31 31 30 28 23 13 14 16 18 19 21 24 21 22 22 21 21 21 24 24 23 22 19 19 21 20 16 16 17 18 19 20 21 21 21 19
32 32 32 32 33 32 31 29 27 18 12 12 13 12 13 13 20 21 23 23 23 22 22 22 22 24 22 20 19 20 21 21 16 16 17 18 19 20 20 20 21 22 23
32 32 32 31 28 21 16 13 11 11 11 11 11 10 11 15 17 23 23 22 22 22 23 23 21 19 18 18 19 20 20 17 17 17 18 19 19 20 20 20 21 21 21
28 23 16 14 13 13 12 12 11 10 9 10 10 10 13 15 17 19 21 21 22 22 21 16 16 16 17 18 17 16 17 17 18 19 18 19 19 19 19 19 19 19 18
16 16 16 13 12 13 13 10 11 12 9 10 12 13 13 14 17 21 21 21 21 20 19 14 14 15 16 16 16 17 17 17 18 18 18 18 18 18 18 18 18 18 17
15 14 12 12 14 16 16 17 19 18 17 19 20 18 16 18 19 20 20 20 19 19 15 14 15 16 16 16 16 17 17 17 17 18 18 17 17 17 17 19 20 18 17
14 14 13 9 7 5 5 5 4 9 15 17 18 17 17 18 19 20 18 18 16 16 14 15 16 16 16 17 17 17 16 17 17 17 17 17 17 18 19 17 17 18 18
15 14 9 7 6 6 6 6 6 5 6 8 13 16 16 19 19 17 17 14 13 14 15 15 16 16 17 17 17 17 17 17 17 17 18 19 18 18 18 18 18 18 18
13 11 8 7 7 8 8 7 7 9 9 10 11 12 15 18 16 15 15 13 14 14 15 16 16 17 17 17 17 17 17 17 19 19 17 17 18 20 19 20 20 21 22
12 13 10 8 8 8 8 8 9 10 10 11 11 11 12 14 12 13 14 14 14 14 15 16 16 17 17 17 17 17 17 17 17 17 17 18 20 21 21 21 22 22 22
13 12 9 6 8 9 9 8 10 10 11 11 12 13 17 14 12 13 14 14 15 15 15 16 17 17 17 17 17 17 17 17 17 18 18 20 21 22 23 23 23 23 25
11 9 5 5 10 10 8 10 10 11 12 13 13 13 16 14 13 14 15 15 15 16 16 17 17 17 17 17 17 17 18 18 18 19 20 22 23 23 24 25 26 25 25
6 5 5 8 11 11 10 10 11 14 14 14 14 13 14 14 14 14 14 15 15 16 16 17 17 17 17 18 19 19 19 18 20 21 21 22 25 28 29 27 26 26 26
5 4 4 8 8 8 11 11 13 15 15 14 14 14 14 13 13 14 14 15 15 15 15 16 17 17 17 18 18 20 21 21 22 23 26 29 29 29 28 27 27 27 27
4 4 5 6 8 8 11 12 13 14 14 13 14 14 13 13 13 14 14 14 14 14 15 16 16 17 17 18 18 19 21 25 29 30 31 31 29 28 28 28 28 27 26
4 5 5 7 9 11 12 13 13 12 12 13 14 13 13 13 14 14 13 13 14 14 14 15 17 17 17 18 19 21 26 28 30 33 34 32 29 28 28 28 29 27 26

GFSGL_sfc_30mbdewp_060.txt.gz
Dewpoint
46 46 46 47 49 49 49 47 46 45 44 43 41 39 36 32 29 25 23 22 21 21 21 21 23 26 27 27 25 23 21 21 19 19 20 19 19 20 21 23 24 24 24
43 44 44 45 46 46 45 43 41 41 39 38 35 32 28 23 21 20 20 22 22 24 26 25 25 27 26 24 23 23 21 21 20 19 19 19 20 21 22 23 23 24 24
42 42 43 43 44 42 41 40 39 37 34 31 28 24 21 21 21 23 26 26 26 27 28 29 29 28 26 23 22 22 22 20 20 20 20 21 22 23 23 23 24 25 25
40 41 41 41 39 38 37 35 32 30 29 26 23 22 22 23 25 27 29 30 30 30 30 28 27 25 24 22 19 19 21 20 21 21 21 21 22 23 23 24 23 22 22
34 35 35 35 35 34 31 30 30 29 27 26 26 28 29 30 31 32 33 32 31 30 30 30 29 28 26 24 24 24 23 22 22 22 22 22 22 22 23 23 23 22 23
29 28 28 29 30 30 30 31 33 30 29 31 31 33 35 36 36 34 31 30 30 27 24 20 19 21 26 26 24 24 24 24 23 23 22 23 23 24 23 22 22 22 21
28 28 29 30 31 32 32 32 31 32 32 33 34 34 35 36 35 33 31 28 27 22 18 19 19 20 23 23 24 24 25 25 25 25 25 24 23 23 23 23 24 24 22
31 31 31 32 32 32 32 32 32 32 32 32 33 33 33 35 35 31 29 24 19 19 20 20 20 22 23 23 23 24 24 25 25 25 24 24 24 24 25 26 24 22 21
33 33 33 32 32 32 32 32 32 32 32 31 32 32 32 33 32 31 26 20 19 18 20 21 23 22 23 24 24 25 25 23 22 22 23 24 24 23 22 22 21 21 18
32 33 33 33 32 31 31 31 31 31 30 30 29 31 32 29 30 26 23 20 19 21 22 22 23 23 24 24 24 22 19 19 19 21 20 17 18 18 21 21 20 19 18
33 33 33 33 32 32 32 32 31 30 28 24 21 18 21 20 23 25 24 22 23 22 22 22 22 24 23 22 22 20 19 21 21 17 16 17 18 19 20 21 21 20 19
33 32 32 32 32 32 31 30 27 19 14 13 13 12 13 15 22 23 23 23 23 22 22 22 23 22 20 19 19 20 22 22 17 17 17 18 19 19 20 20 21 21 21
33 32 32 32 27 23 18 13 12 12 12 12 10 9 12 16 19 23 23 22 23 22 22 22 21 18 18 18 20 21 20 17 17 18 19 19 19 19 20 20 20 20 20
30 23 16 13 12 12 13 12 10 10 9 9 8 10 13 15 17 19 21 21 22 21 21 16 16 17 18 19 17 17 17 17 19 19 18 18 19 19 19 19 18 18 18
15 16 15 13 12 11 10 8 10 9 10 10 12 13 14 15 17 21 21 20 21 20 19 14 14 15 16 16 17 17 17 17 18 18 18 18 18 18 18 18 18 18 17
14 12 13 14 16 17 18 19 20 19 20 20 21 18 16 19 20 21 20 20 19 18 15 14 15 16 16 16 17 17 17 17 17 17 17 17 16 17 17 18 20 18 17
13 13 14 10 9 8 9 7 5 13 18 18 19 18 18 19 20 20 19 18 15 17 14 15 15 16 16 17 17 17 16 17 17 16 16 16 16 18 20 18 18 18 18
15 14 8 6 5 5 6 6 5 5 5 8 13 16 18 19 19 18 17 13 13 14 15 15 15 16 16 17 17 16 16 16 16 16 16 18 18 18 18 19 19 19 19
13 10 7 6 7 8 7 7 8 9 9 10 11 12 15 18 17 16 16 13 13 14 14 15 16 16 16 17 17 16 16 16 18 18 16 17 18 19 19 20 21 22 23
11 11 10 10 9 8 7 7 8 9 10 10 11 11 13 14 12 13 14 14 14 14 15 15 16 16 17 16 16 16 15 15 16 16 17 18 19 20 21 21 23 23 22
14 13 10 7 7 8 8 8 9 10 10 11 12 13 17 14 13 13 13 14 14 14 15 15 16 16 16 16 16 16 16 17 17 17 18 19 20 21 23 24 24 24 24
11 10 5 6 10 9 8 9 10 11 12 13 13 13 16 14 13 13 14 14 15 15 16 16 17 17 17 16 16 16 17 17 18 18 20 20 21 22 23 26 27 26 25
8 5 5 8 9 13 11 10 11 13 14 14 13 13 13 13 13 13 14 14 15 15 16 16 17 16 17 17 17 18 17 18 20 20 20 20 22 23 28 27 26 26 26
5 4 4 7 7 7 9 10 12 14 15 13 13 13 14 13 13 13 14 14 14 14 15 15 16 16 17 17 18 19 20 21 21 22 23 25 28 30 28 27 26 26 27
4 4 4 7 10 9 9 12 12 13 13 13 13 14 14 13 13 13 14 13 13 13 14 14 15 16 16 17 17 18 19 23 26 28 29 31 31 29 28 28 27 28 28
4 4 4 6 7 9 10 11 12 12 12 12 13 13 12 12 13 13 13 13 13 13 13 14 15 16 17 17 18 20 24 27 29 30 32 32 30 29 29 28 29 28 26

GFSGL_sfc_30mbdewp_063.txt.gz
Dewpoint
43 44 45 46 47 48 48 48 49 48 48 48 47 45 43 41 39 34 28 24 22 22 23 23 25 28 29 28 29 28 28 25 24 22 20 20 20 20 21 22 23 23 23
42 43 44 45 46 46 46 45 45 45 44 43 42 39 36 33 28 25 22 22 22 25 28 28 28 30 30 30 30 29 27 26 22 19 20 19 20 22 22 23 23 23 23
41 42 43 44 44 43 42 41 41 40 39 36 33 29 26 23 22 23 25 26 27 28 29 29 31 32 32 32 30 28 27 24 25 24 21 21 22 23 23 24 24 24 23
38 39 39 39 38 37 36 34 33 31 29 27 25 24 25 26 27 28 29 30 31 31 32 32 31 31 30 30 29 28 27 26 25 23 22 23 23 24 24 23 22 21 20
30 31 32 33 32 31 30 31 31 29 29 29 30 31 31 31 32 33 33 33 32 32 32 32 31 31 32 30 28 28 26 24 23 24 24 24 23 23 22 22 21 21 22
30 30 31 32 32 33 33 32 33 34 34 34 35 35 34 35 35 35 32 32 31 30 27 27 28 29 30 29 27 25 24 24 27 25 25 24 23 22 22 21 22 23 21
31 30 31 32 33 33 33 34 34 34 34 34 35 35 35 36 36 35 32 30 28 26 23 21 22 24 26 24 24 24 25 26 26 26 24 22 22 21 23 24 24 24 22
33 32 32 32 33 33 33 32 32 32 32 32 32 32 34 34 34 31 29 26 21 23 26 25 23 23 23 24 24 26 26 26 25 24 23 22 23 25 25 26 23 22 21
33 33 33 33 33 32 32 32 32 32 31 31 32 32 33 33 32 30 23 20 20 21 22 22 23 22 24 24 25 26 23 21 21 21 24 25 24 23 22 22 22 21 19
32 32 33 33 32 32 32 31 31 31 30 31 31 32 32 32 32 31 23 20 21 22 22 22 23 24 24 24 23 21 19 18 20 23 20 18 18 19 22 21 21 21 20
33 33 33 33 32 32 32 31 30 29 28 26 24 22 22 23 28 26 25 23 23 22 21 21 22 24 22 21 21 19 19 22 21 18 17 18 19 19 20 21 21 22 20
33 32 32 32 32 32 30 26 22 19 16 14 13 12 14 20 24 24 24 24 24 22 21 22 22 21 19 20 20 22 23 22 17 17 18 19 20 21 21 21 21 22 22
33 32 31 27 23 18 13 12 12 13 12 11 9 10 14 17 20 23 23 23 23 21 21 22 20 18 19 19 21 21 20 17 17 19 19 20 20 21 22 21 22 22 22
27 18 14 12 12 12 12 11 11 10 9 8 9 12 14 16 18 20 21 21 22 20 20 16 16 18 19 19 18 18 17 18 19 19 19 19 20 20 20 21 21 21 20
15 15 14 13 9 9 10 9 10 9 10 10 13 14 14 17 19 21 21 20 20 19 19 13 15 15 16 16 17 17 17 18 18 18 18 18 19 19 19 20 20 20 19
13 12 13 14 17 19 20 20 22 22 22 21 21 18 18 19 20 21 20 20 18 19 14 14 15 16 16 16 16 17 17 18 18 18 18 18 18 19 19 21 22 21 19
12 14 15 13 14 16 14 12 14 16 19 19 19 18 20 20 21 19 19 19 16 16 14 15 15 16 16 17 17 18 18 18 18 18 17 18 18 18 20 21 21 21 21
14 15 9 6 5 6 5 4 4 4 5 7 13 16 19 20 19 18 18 13 12 14 15 15 16 16 17 17 17 17 17 17 17 17 18 19 19 19 20 21 21 22 22
14 10 7 6 7 7 6 7 8 8 8 9 10 12 15 19 18 16 16 13 13 13 14 15 16 16 17 18 18 17 17 17 18 19 17 17 19 20 20 21 22 23 23
11 11 8 11 11 7 7 7 8 9 9 10 10 11 13 15 15 13 14 14 14 14 14 15 16 17 17 17 17 17 17 17 17 17 18 19 20 21 21 22 23 23 23
13 15 12 7 7 6 7 7 9 9 10 11 11 12 17 15 13 13 13 13 14 14 15 15 16 17 17 17 17 17 16 17 18 19 19 20 21 21 22 23 23 24 26
13 12 7 6 9 8 7 9 9 10 11 12 12 13 16 14 13 13 13 14 14 15 15 16 16 17 17 17 17 17 17 17 19 20 21 21 21 22 22 23 24 28 26
10 5 5 8 9 12 12 9 10 12 13 14 13 12 13 13 13 13 13 14 15 15 15 15 16 16 17 17 18 18 17 18 19 21 20 20 21 22 23 25 27 27 25
6 4 5 7 9 8 7 8 10 13 14 13 12 12 13 13 13 13 14 14 14 14 14 15 15 16 16 17 18 19 19 19 20 21 21 22 23 26 28 28 28 27 26
4 3 3 5 7 9 7 12 11 12 12 12 12 12 13 13 12 13 13 14 14 13 13 14 15 15 16 17 17 18 19 22 25 28 29 29 29 29 30 28 28 27 27
4 3 3 5 6 7 7 9 10 12 12 12 12 12 13 12 12 13 13 13 13 13 13 13 14 15 16 17 19 20 25 28 29 30 31 31 30 28 28 29 28 28 27

GFSGL_sfc_30mbdewp_066.txt.gz
Dewpoint
43 45 46 47 47 48 48 49 49 50 50 51 52 51 50 48 48 45 40 37 36 34 34 31 30 32 30 30 30 30 30 31 31 32 32 31 27 24 22 22 22 22 22
43 45 46 46 46 47 47 46 47 48 48 48 47 46 45 42 39 34 30 28 27 26 28 28 29 31 32 32 32 32 32 31 30 29 26 26 25 25 27 25 22 22 22
41 43 43 42 42 42 42 42 41 42 41 41 39 35 33 29 29 26 26 28 28 28 30 30 31 32 32 33 32 32 31 31 29 27 25 26 25 23 22 23 23 22 22
36 38 38 37 36 36 34 32 30 29 28 28 27 26 27 27 28 28 30 32 33 33 33 33 33 33 32 32 31 30 29 27 26 26 23 22 22 23 24 22 20 19 18
33 35 34 34 33 32 32 32 32 31 31 31 31 31 32 32 33 34 34 34 33 33 32 32 32 33 33 31 30 28 27 26 25 25 24 23 23 21 20 20 19 19 21
32 33 33 33 34 34 34 35 35 35 35 35 36 36 36 36 36 36 34 33 32 30 29 29 31 31 31 31 29 28 26 25 26 26 25 22 21 20 19 18 20 22 22
31 32 32 33 33 34 34 34 33 33 33 33 34 36 36 36 37 35 33 31 30 29 27 28 28 27 27 23 24 25 25 26 26 25 23 21 19 19 22 25 23 24 23
32 32 33 33 33 33 33 32 32 32 32 32 31 32 31 33 33 32 30 27 26 27 27 26 24 22 22 24 24 25 26 26 24 22 21 20 20 22 24 25 23 22 22
33 33 33 33 33 33 32 32 32 32 32 31 32 32 31 32 31 29 26 27 27 26 24 21 22 20 23 26 24 27 23 21 19 20 23 25 26 25 24 23 23 22 21
33 34 34 33 33 32 32 31 32 32 31 32 32 33 31 30 31 28 23 21 19 19 20 20 23 24 24 24 23 21 19 15 20 24 21 18 18 19 22 22 22 22 22
34 34 33 33 32 32 31 31 31 31 29 28 25 24 26 28 27 27 24 22 21 20 20 19 20 23 22 21 21 19 17 22 22 19 17 18 19 20 21 22 23 24 22
33 33 33 33 33 32 29 26 23 21 18 16 15 15 18 22 24 25 25 24 24 20 19 20 20 21 20 21 21 23 24 23 18 18 19 20 22 23 25 25 25 24 24
34 33 32 30 21 14 12 12 12 12 10 8 7 9 13 17 20 24 23 23 23 20 20 21 18 18 19 19 21 22 21 18 18 20 21 22 23 24 24 25 26 26 26
28 24 17 12 12 12 12 11 10 8 5 5 7 10 13 16 19 20 21 19 20 18 21 16 16 18 19 19 18 18 18 18 19 20 20 21 22 23 23 24 24 24 23
17 14 14 12 8 7 8 6 6 9 9 8 13 13 13 15 19 21 21 19 19 18 19 11 13 15 16 16 17 18 18 18 20 20 21 21 21 22 23 24 24 24 23
12 12 12 12 14 16 18 19 23 22 23 22 21 17 17 20 21 22 20 20 18 19 11 11 14 16 17 17 17 18 19 20 20 21 21 21 21 22 22 23 25 23 22
12 14 14 13 15 16 14 14 17 20 20 20 19 19 20 21 21 20 20 19 16 16 12 15 16 17 18 18 19 20 20 21 21 21 21 21 21 22 23 23 23 23 23
14 15 12 12 12 9 5 3 2 2 2 5 12 16 19 20 19 19 19 13 9 12 14 16 17 18 18 19 20 20 20 21 21 20 20 21 22 23 22 23 23 22 22
15 13 10 8 6 6 5 5 5 5 5 6 8 10 13 19 18 17 16 11 11 12 14 16 17 18 20 20 20 20 20 20 20 21 21 21 22 23 22 23 23 22 23
13 10 8 6 9 6 5 5 5 6 6 7 8 9 10 16 17 13 12 12 12 13 14 16 17 19 20 20 20 20 20 20 21 21 22 22 23 23 23 23 23 24 24
12 14 11 9 6 5 5 4 5 6 7 8 9 10 16 17 15 12 12 12 13 14 15 16 17 19 21 21 21 20 20 20 21 22 22 22 23 23 23 23 24 24 24
14 13 11 6 6 6 5 5 7 7 9 9 10 11 15 14 11 12 12 13 14 15 15 16 18 19 20 21 21 20 20 20 21 22 22 23 22 23 23 23 24 25 25
13 11 6 6 7 8 10 7 7 8 10 11 11 10 10 10 11 12 13 14 14 15 15 16 17 18 19 20 21 21 20 20 21 22 21 21 22 22 23 24 26 28 27
11 7 4 5 7 10 8 6 7 10 12 12 11 10 10 11 12 12 13 14 15 15 15 16 16 17 18 19 20 22 22 22 22 22 21 21 22 23 25 27 28 26 27
8 5 4 5 7 8 5 7 8 9 10 11 11 10 11 12 12 13 14 15 16 16 15 15 16 17 18 19 19 19 21 23 24 26 28 28 28 29 29 29 27 28 28
7 4 3 4 6 8 7 6 9 12 13 13 13 13 13 13 13 14 15 15 15 15 15 15 16 17 18 19 20 21 25 27 28 29 31 31 30 29 29 29 28 28 28

GFSGL_sfc_30mbdewp_069.txt.gz
Dewpoint
43 45 46 46 47 47 48 48 48 48 49 50 50 51 51 51 51 49 46 44 41 38 37 35 35 35 35 35 35 34 34 34 33 32 32 33 33 32 31 29 26 24 24
42 44 44 44 45 45 44 45 45 46 46 47 48 48 47 46 43 41 40 37 37 35 34 34 33 33 34 34 34 34 33 32 32 31 31 31 30 31 29 29 27 23 22
40 41 40 40 39 38 37 36 37 37 36 35 34 35 34 34 30 30 30 30 31 32 32 33 34 33 33 33 33 32 32 32 31 30 29 27 27 28 26 24 24 24 23
38 38 37 36 36 35 34 33 32 31 30 30 29 29 29 29 30 32 32 33 34 35 35 35 35 34 33 32 32 31 31 30 29 28 26 24 24 24 25 24 23 22 20
35 36 36 35 35 35 34 34 33 33 32 32 32 33 34 34 34 35 35 34 34 33 33 33 33 34 34 32 30 30 29 27 25 25 26 25 25 24 22 22 20 20 22
34 34 35 35 35 35 35 35 35 36 36 36 37 37 36 37 36 36 33 32 31 31 30 32 33 33 33 32 31 31 31 27 26 27 27 25 23 22 21 20 23 23 22
32 33 34 34 34 34 34 34 34 34 34 33 33 33 33 35 36 35 33 31 30 29 30 30 29 28 29 26 25 25 25 26 26 26 24 23 21 20 23 24 25 24 24
33 33 34 34 34 34 34 33 33 33 32 32 31 32 31 33 34 33 32 31 31 30 30 29 25 22 22 25 24 25 26 26 26 24 23 21 20 22 24 25 25 24 24
33 33 34 34 34 33 32 33 33 32 32 32 32 31 30 30 30 30 29 30 29 28 28 27 23 20 24 26 25 28 25 22 20 19 21 24 26 27 26 25 24 24 22
34 34 34 34 32 32 32 32 33 33 32 32 32 31 30 29 28 25 22 20 19 19 20 20 23 25 25 25 23 21 20 17 18 25 24 21 20 20 21 23 24 23 23
35 34 34 34 32 32 32 33 33 32 30 28 25 27 26 26 27 26 25 22 21 20 19 19 20 23 22 22 22 21 18 22 23 22 19 19 20 21 23 23 24 24 24
34 34 33 34 33 33 32 29 25 23 19 16 16 16 20 22 24 25 25 24 24 19 17 19 20 21 20 21 21 21 24 24 21 18 19 21 23 25 26 26 26 25 26
34 34 33 31 24 16 15 14 12 11 9 7 8 10 13 17 19 23 23 22 22 19 20 22 19 18 19 20 21 23 22 20 19 20 23 24 25 25 25 25 25 26 26
32 29 20 12 12 13 13 11 9 7 5 6 8 10 13 15 18 20 20 19 20 18 21 19 14 18 19 20 19 18 19 19 20 21 21 23 23 23 23 24 24 24 23
21 14 13 13 10 8 8 10 7 15 16 9 13 12 13 14 19 22 22 20 21 19 21 12 11 14 16 17 17 18 19 19 20 22 22 21 21 22 22 24 23 24 24
13 14 12 11 12 16 18 21 24 23 23 22 21 19 17 20 21 22 21 21 20 19 15 10 12 16 17 18 18 19 21 22 21 22 21 21 21 21 22 23 24 23 23
13 14 14 14 15 15 14 17 20 21 21 21 19 20 21 21 21 20 20 20 15 17 11 13 16 18 19 20 20 21 21 21 22 21 22 21 22 21 21 23 24 24 23
15 15 14 14 14 12 8 6 5 5 3 7 14 17 18 20 20 20 19 17 9 11 13 16 18 19 19 20 21 21 21 22 21 21 21 21 22 22 22 22 23 23 23
16 16 13 12 9 7 5 5 4 4 4 4 7 12 13 17 19 19 17 12 11 12 14 16 18 19 20 20 22 22 22 21 22 23 22 22 23 22 22 23 23 23 24
16 13 12 9 9 7 5 5 4 4 4 5 6 7 8 13 17 16 12 12 13 13 14 15 17 19 20 21 21 22 21 20 21 22 23 23 23 24 23 23 23 23 23
15 15 12 9 9 6 5 5 4 5 5 7 7 9 13 17 17 14 12 12 13 14 16 16 18 20 21 21 21 22 22 22 21 22 23 23 23 23 23 23 23 23 23
15 15 14 9 7 6 5 5 5 6 6 7 9 10 14 16 13 12 13 13 15 16 16 17 18 19 21 21 21 21 21 20 21 22 23 23 23 23 23 23 23 23 24
15 15 12 7 7 7 8 6 6 7 8 9 10 10 9 9 10 12 14 15 15 16 17 17 17 19 20 21 22 22 22 21 21 23 22 21 21 21 22 22 23 24 24
15 13 8 6 7 8 8 7 6 8 8 10 11 10 10 10 11 11 13 14 15 16 17 18 18 18 19 19 20 21 22 23 24 23 22 21 21 22 22 23 24 27 27
13 10 6 5 7 10 8 6 6 7 8 9 10 10 10 10 11 13 15 15 17 17 18 18 18 18 18 19 19 19 20 22 25 26 27 27 27 27 27 28 28 27 27
11 8 6 5 7 8 7 6 9 11 13 14 14 14 14 15 15 15 16 17 17 17 17 17 17 17 17 18 19 20 23 26 28 28 29 29 29 29 29 29 28 27 27

GFSGL_sfc_30mbdewp_072.txt.gz
Dewpoint
43 45 46 46 46 47 46 46 47 47 47 47 49 49 49 49 49 48 47 45 45 42 40 39 38 37 38 38 37 38 37 37 36 32 33 33 33 34 33 31 30 29 26
42 42 41 41 39 37 36 38 39 39 37 37 40 39 38 37 39 41 39 39 38 37 36 36 36 36 36 36 36 35 34 34 34 32 31 31 31 31 31 30 29 27 25
39 39 38 37 36 35 34 33 32 31 30 30 30 30 30 29 30 31 32 33 34 34 35 34 35 35 34 34 34 33 33 32 32 31 30 31 30 30 29 28 27 25 25
37 37 36 35 34 34 34 33 33 32 32 32 32 33 33 34 34 34 35 35 35 35 35 35 35 34 34 33 33 32 31 29 29 27 27 26 26 26 25 24 24 23 21
36 36 35 36 35 35 35 35 35 35 35 35 35 35 35 35 35 35 34 34 33 33 34 34 35 35 35 34 32 31 30 28 27 26 26 26 26 24 23 23 21 23 24
34 35 35 35 35 35 35 34 34 36 36 35 36 37 36 36 36 35 32 31 31 31 31 32 32 32 34 34 33 32 30 28 27 27 27 25 24 23 21 23 23 21 21
33 34 34 34 34 34 34 34 34 32 33 33 33 34 35 35 36 34 32 31 30 30 30 31 31 31 30 29 26 25 26 27 28 26 25 24 22 21 22 21 22 23 24
34 34 34 34 34 34 33 33 32 32 31 31 31 32 33 35 35 33 32 31 31 30 30 30 29 26 26 28 27 26 27 27 27 25 24 22 21 24 26 25 25 24 25
33 35 34 35 34 33 32 32 32 31 30 31 31 30 30 30 30 29 29 30 28 27 27 26 24 23 25 26 25 27 25 21 19 18 19 23 26 27 27 26 23 22 23
34 34 33 33 33 32 32 31 32 33 31 31 31 30 29 27 25 24 25 26 22 22 21 23 24 25 25 25 23 21 20 17 22 24 24 23 21 20 21 22 22 20 22
35 33 33 33 33 33 31 33 32 30 29 28 28 27 27 27 26 27 26 24 22 21 19 19 21 23 22 22 22 21 19 22 24 23 19 20 21 23 25 25 25 25 24
34 34 33 33 33 32 31 29 27 25 21 18 18 19 22 25 26 25 24 24 24 19 18 21 22 21 20 21 21 23 25 25 22 19 20 21 23 24 25 25 26 26 26
34 34 33 33 32 32 23 19 16 13 11 9 10 13 15 18 23 22 23 22 21 20 21 21 20 17 19 20 21 22 22 19 19 20 22 22 23 23 24 24 25 27 27
33 33 30 18 13 13 13 12 10 8 6 8 9 12 14 16 20 22 22 21 22 20 22 21 15 16 18 20 20 19 19 19 20 20 20 22 22 23 22 23 23 24 24
30 19 13 14 13 13 22 13 14 21 18 12 14 14 15 17 21 23 22 21 22 20 21 15 11 14 17 18 18 18 19 20 21 21 21 22 22 22 22 23 23 24 24
15 14 13 11 9 17 21 23 25 24 23 22 21 19 19 20 22 22 22 22 21 19 17 11 12 17 18 19 19 20 21 21 21 21 21 21 21 21 21 22 23 24 23
14 14 13 13 16 18 20 21 20 22 22 21 19 20 21 20 22 21 20 20 19 15 13 14 16 18 19 20 20 20 21 21 22 21 23 22 22 22 21 21 21 22 22
15 17 15 15 16 14 13 15 17 18 14 13 15 17 19 19 21 20 20 18 11 12 13 14 16 18 19 19 20 21 21 21 21 21 21 21 21 22 20 20 20 21 21
16 17 15 15 14 10 7 5 4 4 4 4 8 13 15 16 18 20 20 15 12 13 13 15 16 18 18 19 20 21 22 22 22 22 22 22 22 22 21 21 21 22 22
17 17 15 12 10 8 6 5 5 5 5 5 6 7 10 11 15 18 16 13 13 13 14 14 16 17 19 20 20 21 21 21 21 21 21 22 22 22 21 21 22 21 21
17 17 16 10 10 7 6 5 5 5 5 6 7 8 11 14 16 17 14 12 13 13 14 16 16 17 18 20 20 21 21 22 22 22 21 21 21 21 22 22 22 22 22
16 15 15 10 10 7 6 6 5 5 6 7 8 9 12 16 16 15 13 13 14 15 16 16 16 16 17 18 20 20 20 20 20 20 20 21 21 21 21 21 21 21 22
16 15 15 11 9 9 9 6 6 6 7 8 9 10 10 10 11 11 12 14 15 15 16 17 17 16 16 18 18 20 20 20 20 21 20 20 20 20 20 20 21 22 22
16 15 14 10 8 8 8 8 6 8 8 8 10 10 11 10 10 11 12 13 14 15 16 17 17 17 17 17 17 18 19 20 21 21 21 20 20 21 21 22 22 22 23
16 15 11 8 8 10 8 10 8 7 7 9 10 10 10 10 11 12 13 14 15 15 16 17 17 17 17 16 16 16 17 19 22 24 25 25 25 24 25 26 27 28 27
18 13 10 8 7 8 10 8 8 7 8 10 11 11 12 12 14 15 15 15 16 16 17 17 17 16 16 16 16 17 20 23 25 27 28 28 27 27 27 27 28 28 28

GFSGL_sfc_30mbdewp_075.txt.gz
Dewpoint
44 42 41 39 38 39 39 41 41 40 41 45 46 46 45 46 46 46 44 44 44 42 41 40 39 39 39 39 39 40 40 39 38 33 34 34 34 34 35 36 34 32 31
40 38 37 36 35 33 32 32 32 31 32 33 35 35 33 35 37 39 40 39 39 38 37 38 37 37 37 37 37 36 35 35 36 32 32 32 32 33 32 31 30 28 27
37 36 35 34 34 33 33 32 32 31 31 31 31 31 31 31 33 34 35 35 35 35 35 36 35 35 34 34 34 34 33 33 33 32 31 32 31 30 30 29 28 28 27
36 35 35 34 34 34 34 33 33 33 33 33 34 34 35 35 35 35 35 35 35 35 35 35 35 34 34 33 33 32 32 31 30 30 27 27 27 28 28 25 24 25 22
36 36 35 35 35 35 35 36 36 36 36 36 36 36 35 35 34 34 34 34 33 33 34 35 35 35 35 34 32 32 32 31 30 28 26 27 26 24 23 23 21 23 22
35 35 35 35 35 35 34 35 35 35 35 35 36 35 35 35 35 34 32 32 32 32 31 32 32 32 34 34 35 35 31 30 29 27 27 26 24 23 22 22 21 21 20
34 34 34 35 34 34 34 33 33 33 33 33 34 35 35 36 35 34 32 30 30 30 30 30 30 30 30 29 29 28 27 28 28 27 25 25 23 21 22 21 23 23 23
34 34 35 35 34 34 33 32 32 32 31 32 32 34 35 36 35 33 32 30 30 30 29 28 27 27 26 28 27 26 26 27 26 26 25 23 22 22 25 25 25 24 24
34 34 35 35 33 33 32 32 31 31 30 30 30 29 29 30 29 29 28 26 25 25 26 25 25 23 26 27 24 22 23 20 19 21 21 24 26 27 28 26 24 21 20
34 34 34 34 33 32 32 32 32 31 31 31 29 28 28 26 26 27 27 25 22 23 24 23 24 24 24 24 22 21 19 18 23 24 23 21 21 21 24 23 22 19 20
34 33 34 34 33 33 32 32 30 30 28 28 27 27 26 27 27 27 25 23 21 20 19 20 21 23 22 22 22 21 19 21 25 22 19 20 22 24 25 26 26 24 24
34 33 33 33 33 32 31 30 29 25 22 20 21 22 24 26 26 24 23 24 23 18 19 21 22 21 20 21 21 23 24 25 21 19 20 22 23 23 23 24 24 25 26
33 33 33 33 32 31 28 25 22 18 14 13 13 14 17 22 22 23 23 22 22 20 20 22 21 16 19 20 22 22 22 19 19 19 20 21 22 22 22 23 24 25 26
33 33 32 32 31 29 20 17 12 10 8 9 11 13 15 17 21 22 21 21 23 20 22 19 18 16 18 20 20 19 19 19 20 20 20 21 22 22 22 24 24 24 23
33 32 29 22 16 16 16 10 13 19 11 9 12 14 14 17 21 23 22 22 22 21 20 16 11 14 17 18 19 20 21 22 21 21 21 21 21 20 21 22 23 23 21
30 21 14 14 13 20 21 23 24 24 24 23 22 17 20 21 22 22 22 22 22 19 18 12 13 17 18 19 19 20 21 21 21 22 22 22 21 21 21 22 23 23 21
23 15 16 12 12 17 20 21 20 23 22 21 20 21 20 21 23 21 20 20 20 17 12 14 16 18 19 19 20 20 21 21 23 22 22 22 22 21 21 20 20 20 20
17 17 14 12 14 18 20 20 19 17 13 12 18 18 19 19 21 21 21 19 10 12 14 13 14 16 18 19 19 20 20 21 22 21 22 22 21 21 20 19 19 18 19
16 18 15 15 16 16 14 15 14 14 7 4 9 15 16 17 17 20 21 18 12 12 13 13 15 16 17 18 19 20 22 21 22 22 21 21 20 21 20 20 20 21 22
16 18 17 15 15 14 8 6 5 4 4 4 5 6 9 15 14 14 18 18 14 13 13 14 14 16 16 17 19 20 21 21 21 21 21 21 21 21 20 20 20 20 20
17 20 20 15 13 11 7 6 5 5 4 5 5 8 12 10 11 15 17 15 13 13 13 14 15 15 15 16 17 19 19 20 20 20 20 20 20 20 20 21 21 21 21
18 18 20 14 11 10 7 6 6 5 5 5 6 8 13 14 16 16 16 15 14 14 14 15 15 15 15 15 15 17 18 18 19 20 19 19 19 19 20 20 19 19 20
18 17 17 14 11 11 12 7 6 6 6 6 7 8 9 10 11 12 12 13 14 14 15 16 16 15 15 15 15 15 17 18 18 19 19 19 19 19 19 19 19 20 21
18 16 16 14 11 10 10 9 6 8 7 7 7 9 10 10 10 10 12 13 13 14 15 15 15 15 16 15 15 15 15 16 18 18 19 18 18 19 20 21 21 22 22
19 17 15 13 11 12 9 10 8 7 7 8 8 9 10 11 11 11 12 13 13 14 15 15 16 16 16 15 15 14 15 18 19 20 22 22 21 21 21 22 23 25 25
22 24 20 14 11 11 10 10 10 10 9 9 8 9 9 10 12 13 14 15 15 15 15 16 16 16 15 14 14 15 19 20 22 23 26 26 25 25 26 26 26 26 26

GFSGL_sfc_30mbdewp_078.txt.gz
Dewpoint
41 39 37 36 35 35 36 36 36 37 41 43 43 41 42 44 46 45 44 44 44 42 41 40 39 40 39 39 40 40 40 40 40 34 34 34 35 36 36 37 37 36 35
38 36 35 34 33 33 32 31 32 32 32 33 32 33 34 35 38 40 40 39 40 39 38 38 37 37 37 37 36 36 35 35 36 34 33 33 33 34 34 33 33 30 29
36 35 34 34 33 33 33 33 33 33 33 33 33 33 34 34 35 35 36 36 36 36 36 36 36 35 35 35 34 33 33 33 33 33 31 32 32 31 30 30 29 28 27
35 35 35 34 34 34 34 34 34 34 34 34 35 35 35 35 35 35 35 34 35 35 35 35 35 34 34 33 33 32 31 31 30 30 30 30 29 29 28 25 24 24 22
36 35 35 35 35 35 36 36 36 36 36 36 35 35 35 34 34 34 34 33 33 33 35 35 35 36 35 34 32 32 32 32 31 28 27 27 26 24 24 23 22 22 22
36 35 35 35 35 35 35 35 35 35 35 35 34 34 34 35 35 35 33 32 32 32 31 32 32 31 33 35 35 33 31 30 29 29 28 26 24 23 22 22 21 20 19
35 35 35 35 34 34 34 34 33 33 34 34 35 36 36 35 35 35 32 29 30 30 29 29 29 29 28 28 28 28 28 28 28 27 25 24 23 21 21 21 23 23 23
34 34 35 35 34 33 33 32 32 32 33 33 34 35 35 36 35 34 32 29 28 28 27 25 25 25 26 28 27 26 26 26 24 26 26 24 22 22 23 23 24 24 24
34 35 35 35 33 33 32 31 32 31 31 31 31 30 29 29 29 28 26 25 24 24 25 25 24 25 27 27 23 22 22 20 21 26 25 25 26 27 27 26 25 22 20
34 35 35 34 33 32 32 32 32 31 29 28 27 27 28 26 29 28 26 24 22 23 23 21 25 24 24 23 22 21 19 19 22 24 23 20 22 24 27 23 22 19 19
34 35 34 34 33 32 32 32 30 29 29 27 26 26 26 27 27 26 25 21 21 20 19 20 20 24 22 21 23 20 19 21 25 21 19 20 23 24 25 26 24 23 23
34 34 33 33 33 32 31 30 29 27 25 24 24 24 25 26 25 24 24 24 22 18 19 21 21 22 19 21 21 23 24 24 20 20 21 22 22 22 23 23 24 25 26
33 33 33 33 31 31 29 27 25 21 19 19 19 20 20 22 22 25 24 23 23 20 20 23 23 18 19 19 22 23 23 19 19 19 20 20 21 21 22 23 24 24 25
32 32 33 32 31 30 27 24 19 16 12 11 12 13 15 17 20 22 21 21 22 21 21 20 18 17 18 20 20 19 19 20 20 20 20 21 22 21 21 23 22 23 22
33 33 32 31 30 27 20 16 12 11 10 9 11 13 14 16 21 23 23 22 22 22 20 15 11 14 17 18 19 20 21 22 21 21 22 22 22 22 22 21 22 22 21
33 32 30 27 20 18 15 18 23 25 23 20 19 16 18 20 23 24 22 22 22 21 18 13 12 17 18 19 19 20 20 20 21 21 22 22 22 22 21 21 21 20 19
31 27 23 16 16 19 19 19 20 23 23 23 22 22 22 22 23 22 21 21 21 20 14 12 14 16 18 19 19 19 19 20 22 21 22 22 22 22 21 19 18 18 18
29 25 16 14 13 17 19 20 20 19 15 14 20 19 20 19 21 22 21 21 13 11 15 14 13 14 16 18 18 19 19 21 21 22 22 22 21 20 18 18 18 17 17
26 23 16 15 13 16 18 19 19 18 16 11 10 16 19 19 19 19 21 20 17 14 13 13 14 15 16 17 17 19 20 21 21 22 22 21 20 19 18 18 18 20 21
22 21 19 15 15 18 17 17 17 15 12 6 4 6 8 16 15 14 17 19 18 17 14 13 14 14 15 15 15 16 19 19 20 20 20 20 19 19 18 18 19 18 18
21 20 22 16 15 16 14 11 9 7 5 4 4 5 10 10 11 12 12 16 16 15 14 14 14 14 14 14 14 15 17 19 19 19 19 19 18 18 18 19 19 19 19
23 20 22 19 15 14 13 10 8 6 5 5 5 6 14 15 14 14 15 16 16 16 15 14 14 14 14 13 13 13 14 16 18 18 18 19 18 18 18 18 18 19 19
25 21 20 20 15 14 15 10 8 6 6 6 6 6 7 11 13 14 15 15 14 14 14 15 16 15 14 14 13 13 14 14 16 17 17 18 18 17 18 18 18 18 18
25 22 19 18 15 13 13 12 9 8 7 6 6 6 7 8 9 10 12 12 13 14 15 15 15 14 14 14 14 14 13 14 15 15 16 16 17 17 18 18 19 20 20
25 23 19 17 15 15 12 12 10 8 8 8 6 7 8 9 10 11 12 13 13 13 13 14 15 15 14 14 14 14 14 17 19 18 18 18 18 18 18 19 20 20 21
27 24 24 25 19 16 13 12 12 11 11 10 10 10 10 10 11 12 12 13 14 15 15 15 15 15 14 14 14 14 18 20 21 21 22 24 24 23 23 23 23 24 24

GFSGL_sfc_30mbdewp_081.txt.gz
Dewpoint
39 37 36 35 35 35 35 35 36 38 40 40 40 41 42 44 45 45 45 44 44 42 42 41 40 40 40 40 40 40 40 40 40 34 35 35 36 37 37 38 38 38 37
36 35 34 34 33 33 32 32 32 33 33 33 34 35 37 38 39 41 40 40 40 40 39 39 38 38 37 37 36 36 36 36 37 35 33 33 34 35 35 35 34 33 31
36 35 34 33 33 33 33 33 33 34 34 34 35 35 35 36 36 36 36 37 36 36 36 36 36 36 35 34 34 33 33 34 34 33 32 33 32 32 32 32 30 28 27
35 35 34 34 34 35 35 35 35 35 35 35 35 35 35 35 35 35 35 34 34 34 34 34 34 34 33 33 32 31 31 31 31 30 30 30 29 30 29 25 24 24 22
35 35 35 35 36 35 35 35 35 35 35 35 35 35 34 34 34 34 34 34 33 34 34 35 36 35 35 33 32 32 31 30 30 28 27 28 26 25 24 23 22 22 21
36 35 36 35 35 35 35 35 35 35 35 34 34 34 35 35 36 35 33 33 33 33 32 32 31 30 33 34 33 32 31 28 28 28 27 25 24 23 22 21 21 20 17
35 35 35 35 35 34 34 34 34 34 35 35 35 34 35 34 35 35 32 30 30 30 29 27 26 28 27 26 28 28 29 29 29 26 24 24 23 22 21 20 22 22 22
35 35 35 35 34 34 33 33 33 34 34 34 34 35 35 34 35 34 31 27 26 25 24 23 24 25 27 26 26 26 26 22 25 26 26 24 24 22 22 22 23 24 24
34 35 35 35 34 33 32 32 32 33 32 32 30 29 28 29 29 27 25 23 23 24 24 24 25 25 27 27 22 22 21 20 23 27 27 27 27 27 26 25 25 24 20
34 35 35 35 33 32 32 32 32 31 30 28 26 27 28 28 29 27 24 23 22 22 22 21 25 24 24 23 22 20 18 18 22 25 22 20 22 25 28 24 22 19 19
35 35 35 34 33 33 32 32 30 29 27 26 25 25 26 27 27 27 24 21 20 20 19 19 20 25 23 21 23 20 19 21 25 21 19 21 24 24 25 25 23 22 22
35 34 34 34 33 33 31 29 29 28 25 25 24 24 25 24 25 24 26 24 21 18 18 20 21 23 19 21 22 22 24 23 20 20 21 21 22 22 22 22 23 25 25
34 33 33 33 32 32 29 28 27 26 24 23 22 21 22 23 22 26 24 23 24 20 20 22 23 22 19 19 22 23 24 19 19 19 20 20 21 21 22 23 23 24 25
33 33 33 31 31 30 29 27 24 21 18 17 16 15 15 18 19 21 21 20 22 21 21 21 18 18 20 21 21 19 19 20 20 20 20 21 21 22 20 22 22 22 22
32 32 33 32 31 29 27 25 21 18 15 11 11 12 13 14 18 22 22 21 21 22 21 14 11 14 16 18 19 20 21 21 21 20 21 21 22 22 21 22 21 22 20
33 32 32 31 30 28 23 16 20 18 21 19 17 14 15 18 21 25 24 22 22 22 19 15 11 15 17 18 19 20 20 21 21 21 22 22 22 22 22 20 19 19 18
33 32 31 29 27 22 18 16 18 24 25 24 23 22 21 21 23 24 23 21 21 22 17 13 12 15 16 19 19 19 19 20 22 22 22 22 22 22 21 18 17 16 17
33 31 29 25 21 19 18 18 19 19 19 18 22 22 22 21 21 24 23 21 19 12 15 14 13 13 14 16 17 18 19 20 21 22 22 22 22 21 18 17 16 16 16
31 30 25 21 16 17 19 19 19 19 17 12 11 17 21 21 21 21 22 21 20 17 13 13 13 14 14 15 16 17 17 18 20 21 22 22 21 19 17 16 17 19 20
30 29 24 19 15 17 17 17 18 18 17 16 12 8 9 20 17 19 19 19 20 19 18 17 14 14 14 14 14 14 14 16 19 19 20 20 19 19 17 17 17 17 17
29 27 28 20 16 16 16 15 17 17 17 15 12 7 9 8 11 14 14 14 15 15 17 17 15 14 14 13 13 13 13 14 15 18 19 18 18 18 17 17 18 18 18
28 26 25 22 17 16 16 15 14 13 12 10 7 5 13 15 13 11 11 12 14 16 17 16 15 14 14 13 13 13 12 13 13 15 17 17 17 18 17 17 17 17 18
29 26 24 23 19 17 17 15 13 11 10 8 6 5 5 11 15 16 16 16 17 16 16 16 15 15 15 14 13 13 13 13 13 14 14 15 16 17 16 16 16 16 17
30 28 26 24 22 18 16 16 13 13 10 8 7 6 6 6 7 9 13 14 14 14 14 15 15 15 15 14 13 12 12 13 13 13 13 14 15 15 16 17 17 17 18
31 29 28 27 24 23 17 15 13 11 10 9 7 7 7 8 8 10 12 13 14 14 14 14 15 14 14 14 13 13 13 17 18 16 15 15 15 15 16 17 17 18 19
32 29 28 26 26 25 25 20 15 14 13 12 11 9 9 10 11 13 14 14 14 14 14 15 15 15 15 14 14 14 17 19 20 21 22 22 20 20 19 18 19 20 21

GFSGL_sfc_30mbdewp_084.txt.gz
Dewpoint
38 37 36 35 35 35 35 35 36 37 38 39 40 42 44 45 46 46 46 45 44 43 42 42 41 41 40 40 39 40 40 40 41 35 35 35 36 37 38 38 38 38 37
36 35 34 34 33 33 33 33 33 34 34 35 36 37 38 39 40 41 41 41 41 40 40 39 39 38 37 37 37 36 36 36 37 36 33 34 34 35 35 35 35 33 32
36 35 34 34 33 33 33 34 34 35 35 35 36 36 36 37 37 37 37 37 37 37 37 37 36 36 35 34 34 33 33 33 33 33 32 33 32 32 32 32 31 30 27
35 35 34 34 34 35 35 35 35 35 35 35 35 35 35 35 35 35 35 34 34 34 34 34 33 33 32 31 31 31 31 31 31 31 30 30 30 30 28 26 24 24 23
35 35 35 35 35 35 35 35 35 35 35 35 34 34 34 35 35 35 35 34 34 34 35 36 36 36 35 33 31 30 30 29 29 28 27 27 26 25 24 23 21 21 21
35 35 35 35 35 35 35 35 35 35 34 34 35 35 35 36 36 35 34 34 34 33 31 31 30 31 33 34 32 32 30 27 27 27 26 24 23 22 22 21 20 19 14
36 36 35 35 35 35 34 35 35 35 35 35 35 35 35 35 36 35 34 32 31 29 26 25 26 28 27 26 29 30 29 30 28 25 23 23 22 22 21 20 21 21 22
35 35 35 35 34 34 34 34 34 34 34 34 35 35 36 36 35 33 31 27 24 23 23 23 24 26 28 24 26 26 23 22 26 26 24 23 23 22 22 21 23 24 25
34 35 35 35 34 34 33 33 33 33 33 32 31 31 30 31 31 29 25 23 23 24 24 24 25 25 26 26 21 22 21 19 25 28 27 27 28 27 25 25 24 24 20
34 35 35 35 34 33 33 32 32 32 30 28 27 27 29 28 27 26 23 22 22 22 21 22 26 24 23 24 21 19 17 18 24 24 21 21 24 27 27 24 22 19 19
35 35 35 35 34 33 32 32 31 29 26 26 26 26 26 27 27 26 24 20 19 20 19 19 20 25 22 22 24 18 20 22 25 20 20 22 24 23 24 25 22 21 21
35 35 34 34 34 33 32 30 29 27 25 24 25 25 25 24 26 27 26 23 21 17 17 20 21 24 19 21 23 22 24 23 20 20 20 21 21 21 22 22 23 24 26
35 34 34 33 33 32 30 29 28 26 24 23 23 22 23 23 23 25 24 24 25 20 20 22 23 22 20 20 22 23 24 19 19 19 20 20 21 21 21 22 22 23 22
34 33 33 32 32 31 30 28 27 25 23 22 20 19 19 19 19 22 22 21 23 21 21 21 19 19 21 21 21 20 19 19 20 20 20 20 21 21 21 22 21 20 21
33 33 32 32 31 30 29 28 26 24 21 18 16 14 13 13 16 21 22 20 20 22 22 15 11 13 15 17 19 20 21 21 22 20 20 21 21 22 21 23 23 21 19
33 32 32 32 31 30 28 25 27 23 22 22 18 14 14 17 19 24 26 25 24 23 20 16 12 13 15 17 17 19 20 20 21 21 21 22 22 21 21 22 20 17 16
33 32 32 32 30 29 26 22 18 22 25 26 24 22 20 18 23 25 25 23 22 22 20 18 14 13 15 16 18 18 18 19 20 20 21 21 22 22 21 19 17 16 16
34 33 32 30 29 27 24 19 18 20 21 21 25 25 23 23 23 24 25 23 21 19 16 15 15 14 13 14 16 17 17 18 20 20 21 22 21 21 21 17 16 15 15
33 33 31 29 28 26 22 19 18 18 19 16 14 18 23 23 22 22 24 23 20 19 16 12 13 13 13 14 14 15 15 16 17 18 20 21 21 21 19 17 16 18 19
33 32 29 27 24 23 20 18 18 18 17 17 14 10 11 22 20 21 21 20 21 21 20 18 17 16 14 13 13 13 13 14 15 16 19 19 19 20 19 18 16 16 16
32 32 31 25 22 19 18 17 17 17 17 17 16 15 13 10 16 17 18 19 19 19 19 18 18 17 16 14 13 12 12 12 12 13 14 16 18 17 17 17 17 16 17
33 31 32 28 23 19 18 16 16 16 16 16 16 14 19 17 11 10 12 13 15 16 16 16 16 16 15 14 13 12 12 12 12 12 12 14 16 17 17 17 15 15 16
33 30 29 29 25 23 21 18 16 15 14 14 13 11 9 13 15 15 14 14 15 15 17 17 17 16 16 15 14 14 13 13 13 12 12 13 14 15 16 16 15 15 15
33 31 29 28 26 24 22 19 17 16 14 13 11 10 8 6 8 12 16 18 18 17 17 17 17 16 16 15 15 14 14 13 13 13 13 13 13 14 15 15 15 15 16
33 32 30 29 28 27 25 26 22 17 15 14 11 10 9 8 7 9 12 14 15 15 15 15 16 16 15 15 15 14 14 16 17 14 13 13 14 14 14 14 15 16 17
34 32 31 31 31 30 30 29 28 25 24 22 14 12 11 11 11 12 13 14 15 16 16 16 15 14 14 15 15 15 17 18 19 20 21 20 18 17 17 17 17 17 17

GFSGL_sfc_30mbdewp_087.txt.gz
Dewpoint
39 38 37 36 36 36 36 36 37 38 38 40 42 44 45 46 47 48 47 46 45 44 44 43 42 41 41 40 41 41 41 42 42 36 36 36 37 38 38 38 38 38 37
37 36 35 35 34 35 34 34 35 36 36 37 38 39 40 41 42 43 43 43 42 42 41 40 39 39 38 38 38 37 37 38 40 37 35 34 35 35 36 35 35 33 33
36 35 34 34 34 34 34 35 35 35 36 36 37 38 38 38 38 38 39 39 39 39 39 38 37 37 36 35 35 35 34 34 35 36 33 33 33 33 33 33 31 28 26
36 35 35 35 35 35 35 35 35 35 35 35 35 36 36 36 36 36 36 36 35 35 35 35 34 34 33 33 33 32 32 33 33 33 33 32 31 31 28 26 25 24 23
36 35 35 35 35 35 35 35 35 35 35 35 35 35 36 36 36 36 35 35 35 35 36 36 35 34 34 33 32 31 31 31 30 31 29 28 27 25 24 23 22 21 21
36 35 35 35 35 35 35 35 35 35 35 35 35 36 36 37 38 37 35 35 34 33 32 32 32 32 34 34 33 32 29 28 28 28 27 25 24 22 22 22 21 20 15
36 35 35 35 35 35 35 35 35 35 35 35 35 36 36 36 36 36 35 33 32 31 29 28 29 28 28 29 31 30 30 31 27 25 22 22 22 22 23 23 22 23 21
35 35 36 36 35 35 35 35 35 35 35 35 35 36 36 36 36 35 33 29 26 24 25 26 27 27 26 26 26 26 24 27 26 24 22 23 23 23 23 23 24 25 26
35 35 35 35 35 34 34 34 34 34 34 33 34 34 34 34 34 31 25 24 24 24 25 26 26 26 28 23 24 24 21 20 27 29 27 28 28 28 26 26 25 25 21
35 35 35 35 35 34 34 33 34 33 32 30 29 29 29 28 27 26 23 23 23 23 24 26 26 24 24 26 19 17 18 18 25 23 21 22 25 28 27 24 25 23 22
35 35 36 35 35 34 33 33 32 31 28 27 27 28 28 28 28 26 24 20 20 20 19 19 22 25 22 23 23 17 19 23 25 20 20 23 23 23 23 24 24 25 24
36 36 35 35 34 33 33 32 31 28 26 25 26 26 25 26 28 26 23 21 22 18 17 19 21 23 20 22 24 23 27 24 20 20 21 21 22 23 23 23 23 25 25
35 35 34 34 34 33 31 30 29 26 24 24 24 24 24 23 25 27 26 26 23 18 19 22 24 23 21 20 22 24 26 20 19 20 21 22 23 23 23 24 23 23 23
35 34 34 33 32 32 30 29 28 26 24 23 22 21 22 22 22 24 25 25 25 23 23 22 19 20 19 20 22 22 19 19 20 21 21 22 22 23 22 22 22 22 22
34 34 33 33 32 30 30 29 28 26 24 23 22 20 18 17 18 21 22 20 20 20 20 15 11 12 15 17 18 19 20 21 23 22 21 21 21 21 21 22 23 22 20
33 33 32 32 31 30 29 29 30 28 28 26 22 18 15 16 18 22 25 24 23 24 22 16 13 11 14 15 17 18 20 21 21 22 22 22 21 21 21 22 23 20 18
33 33 33 32 31 30 29 28 26 27 27 25 25 24 21 15 21 23 26 26 24 24 22 20 17 14 14 16 18 19 20 21 21 22 22 21 22 22 21 20 20 19 18
33 33 33 32 31 30 30 28 23 21 22 24 27 26 25 23 22 24 27 26 22 22 21 20 18 17 16 15 16 18 19 20 20 21 22 22 22 21 20 19 19 18 18
34 34 33 32 31 30 29 26 22 19 20 20 20 23 26 25 24 24 25 25 21 20 18 16 14 14 15 16 16 17 17 17 18 19 21 21 21 21 19 19 18 18 19
34 34 33 31 30 29 27 26 22 19 18 18 16 14 14 25 23 23 23 24 23 22 21 20 18 17 17 17 16 16 15 16 18 18 18 19 21 21 20 19 16 17 17
34 34 34 30 28 28 27 25 22 19 17 17 16 16 14 14 21 21 22 21 21 21 21 21 21 21 20 19 18 16 15 14 15 15 15 16 17 18 19 19 17 17 17
34 33 33 31 29 26 25 24 21 19 17 17 17 17 20 20 15 16 17 18 20 21 21 20 20 19 18 18 18 17 15 14 15 14 14 14 15 16 17 17 17 16 16
34 33 32 33 30 30 29 24 20 18 17 16 16 16 15 20 21 18 15 14 15 16 17 18 18 18 19 18 19 18 16 15 15 15 14 14 14 15 16 16 16 16 15
34 33 32 31 31 30 30 29 25 23 19 17 16 15 13 12 15 16 17 17 17 17 18 18 19 19 19 19 18 17 17 17 16 15 14 14 14 15 16 16 16 15 15
34 33 32 31 31 31 30 30 29 27 26 23 18 15 13 12 11 12 14 17 19 19 19 19 19 19 18 17 17 16 15 17 16 14 14 14 14 14 15 15 15 16 16
34 34 33 32 32 31 31 30 30 29 28 28 27 26 23 17 14 14 15 15 17 17 18 18 17 16 17 17 16 16 17 18 19 20 19 18 17 17 17 17 17 17 17

GFSGL_sfc_30mbdewp_090.txt.gz
Dewpoint
42 42 42 41 41 41 41 41 42 42 43 45 45 47 48 49 50 50 49 49 48 47 48 47 45 44 43 43 44 44 45 45 44 38 38 38 39 39 39 40 38 38 37
40 40 39 39 39 39 38 38 39 39 39 40 42 43 43 44 46 47 46 47 46 45 44 43 41 41 41 41 42 41 42 42 42 39 37 36 37 37 37 36 35 34 34
38 38 38 37 37 37 37 37 37 38 38 39 40 40 41 41 42 43 44 43 43 43 42 42 40 40 39 39 39 39 38 38 40 39 35 35 34 35 35 34 31 30 26
38 37 37 37 37 36 36 36 37 37 37 38 38 38 39 39 39 40 40 40 39 39 39 38 38 38 37 37 36 36 36 36 37 37 36 35 34 33 31 29 27 25 24
37 37 37 37 37 36 36 36 36 36 36 37 37 37 38 38 38 39 39 38 37 36 36 36 36 35 35 34 35 35 35 34 35 36 34 32 32 29 28 25 22 21 21
37 37 37 36 36 37 36 36 36 36 36 36 37 37 37 37 38 38 38 38 37 36 36 36 36 36 36 35 33 31 30 31 31 31 31 28 24 23 22 21 21 20 16
37 36 36 36 36 37 37 36 36 36 36 36 37 37 37 38 38 38 37 36 35 34 34 34 31 31 32 32 32 31 31 29 27 23 21 19 20 21 25 25 22 22 19
37 36 36 37 37 36 36 36 37 36 36 37 36 37 37 37 36 37 35 33 31 30 29 28 26 25 25 25 24 25 26 25 23 21 21 21 22 23 23 26 24 23 25
36 37 37 37 36 36 36 36 36 35 35 35 36 36 36 36 35 34 31 28 25 24 25 27 27 27 26 25 25 24 22 26 29 28 29 28 28 29 27 25 26 25 22
36 36 37 37 36 36 36 35 35 35 34 34 33 34 35 34 33 28 23 21 20 21 23 24 25 23 28 22 17 18 18 19 22 21 22 23 26 28 27 25 25 26 25
37 37 36 36 36 36 35 34 34 33 32 31 30 30 27 25 26 26 24 20 20 21 22 23 25 25 24 26 19 13 14 19 25 20 19 21 22 23 24 24 25 27 25
36 36 36 37 36 35 34 33 33 31 29 27 26 26 26 27 26 27 25 20 20 17 16 17 19 24 22 23 24 23 27 25 19 18 20 21 22 23 24 24 24 25 25
36 36 36 36 35 34 33 32 30 28 27 26 25 24 24 25 26 27 24 23 22 15 16 19 24 25 21 21 23 24 27 22 18 19 21 23 25 25 26 26 25 25 26
35 35 35 35 34 33 32 31 30 28 26 26 23 22 22 22 23 26 26 26 25 21 22 24 21 19 21 16 22 25 23 20 19 21 22 23 24 24 24 23 23 23 23
35 35 35 34 34 32 31 31 30 29 28 26 21 21 20 19 19 23 24 25 24 22 21 18 15 15 17 17 18 19 19 19 21 21 23 23 23 22 22 23 23 22 21
34 35 34 33 33 31 31 30 32 32 31 26 24 22 20 19 19 23 25 25 22 21 20 15 11 9 10 11 13 15 17 19 21 23 23 23 23 22 22 22 22 22 21
34 34 34 33 32 31 30 30 29 31 30 29 29 26 24 15 21 21 25 26 25 23 22 17 16 15 12 13 14 16 19 20 24 24 24 23 23 22 22 21 21 21 20
35 34 34 34 32 32 31 30 30 29 27 27 28 28 27 25 21 23 25 27 25 25 23 22 21 19 17 16 16 18 19 21 23 23 23 23 23 22 21 20 20 20 20
35 34 34 34 32 32 31 30 29 27 23 22 23 25 28 27 26 23 25 27 25 23 23 23 21 19 17 18 19 19 20 20 21 22 22 22 22 21 20 20 19 18 18
35 34 34 33 32 32 30 30 28 27 24 20 19 19 22 27 26 25 24 26 26 24 22 21 19 19 19 20 20 20 20 19 20 21 20 21 21 21 20 20 19 18 17
35 34 35 33 31 31 30 29 28 28 26 21 18 17 16 22 25 25 25 24 25 26 25 24 23 23 24 23 23 22 21 19 20 20 20 20 20 19 18 18 18 18 17
35 34 34 34 31 31 31 30 29 28 26 23 20 17 20 20 16 20 22 22 23 24 24 24 24 25 25 25 23 22 21 20 19 20 19 19 18 18 17 17 17 17 17
34 34 33 33 32 31 31 30 30 29 27 24 21 18 17 21 21 19 18 19 20 22 22 23 23 24 24 24 24 23 22 21 21 21 19 18 17 16 16 17 17 17 17
34 34 33 33 33 31 31 30 29 29 29 29 26 20 17 16 18 20 22 21 19 18 19 20 20 21 22 23 23 23 23 22 22 21 19 18 17 17 17 17 17 17 17
34 34 33 33 32 32 31 31 31 30 29 29 29 29 28 26 18 17 19 21 22 21 20 19 22 23 23 22 22 22 22 20 20 20 19 18 17 17 17 17 17 17 18
33 33 33 33 32 32 32 31 31 31 30 29 30 29 29 28 28 25 20 19 21 22 22 21 23 23 23 23 22 21 20 19 20 20 18 17 17 16 16 17 17 18 18

GFSGL_sfc_30mbdewp_093.txt.gz
Dewpoint
44 43 43 42 42 43 43 43 44 44 45 47 47 49 50 51 52 52 52 51 51 50 49 49 48 47 46 45 46 46 47 47 46 39 40 39 40 40 40 40 39 38 37
41 41 41 41 41 40 40 40 40 41 41 42 43 45 45 46 48 49 48 48 48 47 46 45 44 43 43 44 44 44 44 45 44 40 38 38 39 38 38 38 35 34 34
40 40 40 40 39 39 38 38 38 39 39 40 41 42 42 43 44 46 47 46 46 45 44 43 42 42 42 42 42 42 41 40 42 40 37 36 36 36 36 35 32 31 26
39 39 38 38 38 38 38 37 37 38 38 39 39 39 40 40 41 41 43 43 42 41 41 41 41 41 41 40 39 39 39 38 39 39 37 36 36 34 34 32 30 27 25
39 39 38 38 38 37 37 37 37 37 37 38 38 38 39 40 39 40 41 40 39 39 38 38 38 37 37 37 37 36 37 37 37 37 36 34 34 32 31 26 24 22 24
38 38 38 37 37 38 37 37 37 37 37 37 38 38 38 38 39 39 40 39 39 38 37 37 36 36 36 35 33 33 33 35 35 35 34 34 28 26 24 22 23 22 20
38 37 37 37 37 38 37 37 37 37 38 37 38 37 37 38 39 39 39 38 37 37 36 35 34 34 35 33 32 31 30 30 29 29 26 22 22 22 28 26 23 24 22
37 37 37 37 37 38 38 38 38 38 37 38 37 38 37 37 38 38 37 36 35 35 34 33 30 29 27 27 24 27 26 25 24 21 23 22 25 25 26 27 25 24 25
37 37 37 37 37 37 37 38 37 36 36 36 37 37 36 36 37 36 34 32 30 28 27 27 26 25 27 26 27 25 26 27 29 29 29 29 28 28 28 27 27 26 25
38 37 38 38 37 37 37 37 36 36 35 35 35 36 36 35 35 34 30 27 24 23 26 26 25 27 24 23 25 21 20 22 23 25 26 25 29 28 28 26 27 27 27
38 38 38 38 38 37 37 36 35 34 34 33 33 33 33 33 32 30 23 20 20 21 22 23 25 26 27 24 19 15 17 21 24 20 19 21 23 25 25 25 26 27 25
38 38 37 38 37 37 36 35 34 33 32 31 30 29 27 25 25 27 26 21 20 21 20 22 25 25 24 26 21 24 24 23 21 19 20 22 23 24 25 26 25 26 26
37 37 37 37 36 35 35 33 32 31 30 28 27 26 25 25 26 27 27 24 23 17 17 18 20 24 22 23 25 25 28 24 19 19 21 23 26 28 27 26 27 26 26
36 36 36 36 35 34 34 33 31 30 29 28 27 26 24 24 25 28 26 25 23 19 20 25 25 25 24 20 21 25 26 24 20 22 23 26 27 26 25 25 24 25 24
35 35 35 35 35 34 33 32 32 31 30 30 29 25 22 22 23 25 27 27 26 23 23 23 20 18 19 18 19 23 23 20 20 20 23 25 25 25 24 24 24 25 23
35 35 35 34 34 33 32 32 35 34 34 34 32 26 22 22 22 23 26 26 26 24 21 16 14 13 14 16 15 16 18 19 21 25 25 25 24 24 23 23 23 24 22
35 35 35 35 34 33 32 31 30 33 35 36 35 27 26 20 23 22 25 27 26 24 21 18 17 15 13 14 14 17 20 20 23 25 25 25 25 24 23 22 22 22 22
35 36 35 34 34 33 32 31 31 31 30 31 33 31 29 27 23 23 23 26 26 25 23 23 21 20 19 17 18 20 21 23 24 25 25 25 25 24 23 22 22 21 20
35 35 35 35 34 34 32 31 31 31 32 30 27 28 31 29 28 26 24 25 26 25 26 25 24 24 22 21 21 22 23 24 24 24 24 24 24 24 23 23 22 21 21
35 35 35 34 34 33 32 31 30 31 31 28 23 23 24 28 28 27 25 25 26 26 25 24 25 24 23 22 23 23 23 22 23 24 24 24 24 24 23 22 22 21 20
35 35 36 35 32 32 32 31 30 30 30 30 30 23 21 25 27 27 26 24 25 26 27 25 24 23 23 23 24 24 23 23 23 23 23 23 23 22 22 22 21 21 20
35 35 34 35 33 32 31 31 31 30 30 31 31 30 24 22 23 25 26 26 24 25 27 27 26 25 26 25 25 25 24 23 23 22 22 22 22 22 21 20 19 19 19
35 34 34 34 34 33 32 32 31 31 31 31 31 31 26 22 21 19 20 23 24 25 25 25 26 27 27 27 27 26 24 23 23 23 22 21 20 20 19 19 18 18 18
35 34 34 33 33 33 32 31 31 31 31 31 31 31 30 23 21 22 22 20 20 22 23 25 25 25 26 27 27 26 25 24 25 24 22 21 20 19 19 18 18 18 18
33 33 33 33 33 33 33 32 31 31 30 30 30 31 31 30 29 26 23 23 26 24 22 22 23 24 25 25 25 25 25 24 24 24 23 21 20 19 19 18 18 18 18
31 31 32 32 33 32 32 32 32 32 31 31 30 31 31 31 30 30 30 30 29 27 26 24 23 23 23 25 25 25 24 24 23 23 22 20 19 18 18 18 17 18 18

GFSGL_sfc_30mbdewp_096.txt.gz
Dewpoint
45 44 44 43 43 44 44 44 44 44 44 46 47 48 49 50 51 52 53 53 53 52 51 51 50 49 48 47 47 47 48 48 47 40 40 40 40 40 41 40 39 39 37
43 43 42 41 42 41 40 40 41 41 41 42 43 44 45 45 47 49 49 50 50 50 48 47 46 46 45 45 45 45 46 45 45 41 38 38 39 39 38 38 35 35 33
41 41 41 41 40 39 39 39 39 39 40 40 41 41 42 42 43 45 47 48 47 47 46 44 43 44 43 43 43 42 42 42 43 40 37 37 36 36 36 35 34 29 26
40 40 39 39 38 38 38 38 38 38 38 39 39 39 40 40 41 41 43 44 42 42 43 43 42 43 42 41 41 40 39 39 40 38 37 36 35 34 35 33 29 28 25
39 39 38 38 38 38 38 37 38 37 38 38 38 39 39 39 39 41 41 40 40 39 39 38 38 39 40 39 38 37 38 38 38 37 36 35 33 32 31 27 25 23 24
39 38 38 38 37 38 37 37 37 37 37 38 38 38 38 38 39 40 40 39 39 37 36 36 37 37 37 37 36 36 36 36 36 36 34 33 32 28 24 23 23 21 20
38 38 38 38 38 38 37 37 37 37 38 38 38 38 37 38 39 40 40 39 38 37 36 36 35 36 34 34 34 33 33 32 32 32 32 27 24 24 25 24 23 22 22
38 37 38 38 38 38 38 38 38 37 37 37 36 38 37 38 39 39 38 37 36 36 35 34 33 31 31 26 29 26 25 27 26 24 23 25 25 25 25 26 24 24 25
38 37 38 38 38 38 37 37 37 37 35 36 37 37 36 37 38 38 35 33 32 31 29 28 27 26 27 27 27 26 26 27 30 30 29 29 29 29 26 27 26 25 25
38 38 38 38 38 37 37 37 36 37 35 36 36 36 36 35 37 36 33 29 27 25 27 27 28 26 27 27 26 24 25 26 27 26 24 29 28 29 28 25 27 26 25
39 38 38 38 38 37 37 37 35 35 35 34 34 35 35 35 35 34 28 24 23 24 25 24 25 30 25 22 20 20 21 24 24 22 21 23 25 24 25 25 27 25 24
39 38 38 38 38 37 36 35 34 34 33 33 32 32 31 31 33 32 27 22 22 22 22 24 25 26 26 26 19 21 22 25 22 19 20 21 22 24 24 26 25 26 26
38 38 37 38 37 36 36 34 33 33 32 31 30 30 27 26 26 29 27 26 22 20 19 22 27 26 24 25 24 25 25 22 19 19 20 22 24 26 25 24 25 25 24
37 37 37 37 36 35 35 34 33 32 31 30 29 28 27 25 25 27 27 26 24 19 19 20 23 25 24 22 25 23 27 24 20 20 21 25 26 24 23 24 23 23 23
36 36 36 36 35 34 34 33 32 32 31 30 30 30 28 24 24 28 28 25 24 21 23 25 23 21 23 21 18 24 25 25 22 21 24 25 25 24 24 24 24 23 23
35 35 35 35 34 35 33 33 34 34 33 34 33 31 27 26 25 26 28 29 28 26 23 21 20 18 18 19 18 19 23 22 20 20 22 24 24 24 23 23 23 24 22
35 35 35 35 34 34 33 32 31 33 36 35 36 36 33 23 24 24 26 28 27 27 23 19 17 16 15 16 18 18 18 19 20 22 24 23 24 23 24 22 22 22 23
35 36 35 35 35 34 33 32 32 31 31 32 35 36 35 30 25 25 25 27 27 27 24 22 20 18 17 15 15 16 18 19 20 22 23 24 24 23 22 21 21 20 21
35 35 36 35 35 34 33 32 32 31 31 31 31 33 36 35 30 28 25 24 25 26 26 24 24 23 21 20 18 18 19 20 22 22 23 24 24 23 23 22 22 22 22
35 35 35 35 34 34 33 32 31 31 31 31 31 30 31 33 30 29 28 25 25 26 26 26 26 25 25 23 22 21 21 22 23 23 23 23 23 23 23 22 22 21 21
35 35 36 35 34 33 32 31 31 31 30 31 31 32 31 28 28 28 28 28 25 26 27 26 26 26 26 25 23 22 22 22 22 23 23 23 23 23 23 23 22 21 21
35 35 34 34 34 33 32 32 31 31 30 30 31 31 33 32 26 26 28 27 27 26 27 27 27 26 25 24 24 23 22 22 22 22 22 23 22 22 22 22 22 21 20
34 34 34 34 34 34 33 32 31 31 31 31 31 31 31 31 30 25 25 27 27 26 26 27 27 27 26 26 25 24 23 23 23 23 22 22 22 22 22 21 20 20 19
33 32 33 33 33 33 32 32 32 32 31 31 31 31 31 31 30 30 28 26 27 26 27 26 27 27 28 28 28 27 26 26 26 24 22 22 21 21 20 20 19 19 18
29 30 31 31 32 32 32 32 32 32 31 31 31 31 31 32 31 29 27 26 26 27 26 25 26 26 27 27 28 28 28 27 26 25 24 22 21 20 19 19 19 18 19
24 25 26 28 30 30 31 31 31 32 31 32 31 31 31 31 31 31 31 31 30 30 28 29 29 28 27 27 28 28 28 28 27 25 24 23 21 20 20 19 19 18 18

GFSGL_sfc_30mbdewp_099.txt.gz
Dewpoint
45 46 46 46 46 47 46 46 45 45 46 47 47 48 49 49 51 52 52 53 53 53 53 53 52 51 50 49 49 49 50 50 49 40 40 41 41 41 41 40 40 38 39
45 44 44 44 44 43 42 42 43 42 42 42 43 45 45 45 47 49 50 51 51 51 51 50 49 48 48 47 47 46 47 47 46 42 39 38 39 40 40 38 35 35 35
43 42 42 42 41 40 39 39 40 40 40 40 41 41 41 42 42 44 47 49 49 49 48 47 46 46 45 45 45 44 44 43 43 40 38 38 37 37 37 36 34 28 28
41 41 40 40 39 38 38 38 38 39 39 39 39 39 40 40 40 41 43 45 45 45 45 44 44 44 44 43 42 41 41 41 41 40 37 36 35 36 36 32 29 28 24
40 39 39 38 38 38 37 37 38 38 38 38 38 39 39 38 39 40 41 41 41 40 40 40 40 42 42 41 40 39 39 38 39 38 37 35 34 33 33 29 29 25 24
39 38 38 38 38 37 37 37 37 37 38 38 38 38 38 38 39 40 40 39 39 38 37 37 38 39 39 39 39 38 38 37 37 36 36 34 33 31 27 25 23 21 20
39 38 38 37 37 37 37 37 37 37 37 37 37 37 37 38 39 40 41 39 38 37 36 36 36 36 36 36 37 36 36 36 36 35 35 33 28 26 24 23 22 22 21
38 38 38 38 38 38 37 37 37 37 37 37 36 37 37 38 40 40 39 38 37 37 36 36 35 33 32 31 27 26 27 27 25 27 28 25 25 26 25 24 22 23 24
38 38 38 38 38 38 37 37 37 37 37 36 36 36 36 37 40 39 37 36 35 35 34 33 31 31 31 30 25 24 26 29 30 30 28 28 28 28 27 25 24 24 24
38 38 38 38 38 37 37 37 37 37 35 35 35 36 37 36 38 37 34 32 31 29 27 28 30 27 29 29 26 25 23 28 28 26 29 30 29 30 29 27 26 25 24
39 38 38 38 38 37 37 37 36 35 35 34 35 36 36 35 36 36 34 28 27 26 26 26 27 29 28 29 27 25 25 27 27 21 24 26 24 25 25 27 26 25 24
39 38 38 38 38 37 37 36 35 35 34 34 34 34 34 34 35 36 34 25 25 24 24 24 26 31 27 24 21 22 24 26 23 20 21 22 24 24 25 25 26 25 25
38 38 37 37 37 37 36 35 34 34 33 33 32 32 31 29 30 33 33 27 23 23 23 25 26 28 27 27 22 23 26 24 21 20 20 22 23 24 25 24 25 24 23
37 37 37 37 36 36 36 35 34 33 32 32 31 31 30 28 26 27 29 29 27 24 22 24 26 28 26 25 26 25 26 22 20 20 21 24 25 24 24 23 23 23 23
37 37 37 37 37 35 35 34 34 33 33 32 31 31 30 29 26 29 28 27 25 22 22 23 24 24 24 23 21 24 27 26 23 21 22 24 25 25 23 23 23 22 22
35 36 36 36 35 35 34 34 35 35 34 35 34 33 32 33 30 32 29 29 27 25 23 22 23 22 22 23 20 19 24 26 24 21 23 25 25 24 23 23 23 22 21
35 35 36 36 35 34 34 33 32 33 36 36 36 36 36 33 33 30 28 29 30 28 25 23 22 22 20 19 20 20 19 24 24 22 21 23 23 23 25 23 22 22 22
35 36 35 35 35 34 34 33 33 32 31 32 36 36 37 37 32 30 26 27 29 29 28 25 21 20 19 18 19 20 20 21 21 21 21 22 23 23 22 22 21 21 20
35 35 35 35 35 35 34 33 32 32 31 31 32 33 36 37 36 34 27 25 27 27 28 26 25 23 21 20 19 18 18 19 19 20 21 22 23 23 22 22 22 22 21
35 35 36 35 34 34 34 33 32 31 31 31 31 31 32 34 33 33 32 27 26 27 27 26 26 25 24 23 22 21 20 20 22 21 21 22 23 23 23 22 22 22 22
35 35 36 36 34 34 33 33 32 31 31 31 31 32 32 31 31 32 31 29 27 25 26 26 26 26 26 26 25 24 22 21 22 23 22 22 23 22 23 23 22 22 22
34 33 34 34 34 33 33 33 32 31 31 31 31 32 33 33 30 30 30 30 29 28 27 27 27 27 27 27 26 25 24 23 22 22 22 23 23 23 23 23 22 22 21
32 32 32 33 33 33 33 33 32 31 31 31 31 31 31 31 32 31 30 30 31 30 28 27 27 28 28 28 27 26 24 23 23 23 22 22 22 22 22 22 21 21 21
28 29 30 31 32 32 32 32 32 32 32 31 31 31 31 31 31 31 32 31 31 31 31 29 27 27 28 28 28 27 26 25 25 24 23 22 22 22 22 21 21 20 20
25 25 24 25 28 30 30 31 31 31 31 31 31 31 31 32 31 32 32 31 31 30 30 31 31 31 30 29 28 27 27 27 26 26 25 23 22 22 22 21 20 20 19
24 23 23 23 23 23 24 26 27 29 31 31 31 31 31 31 31 32 32 32 31 30 30 30 30 30 31 31 31 31 29 29 29 28 26 24 23 22 21 20 19 19 19

GFSGL_sfc_30mbdewp_102.txt.gz
Dewpoint
50 49 50 49 49 49 49 49 48 48 48 48 49 49 49 50 50 51 52 52 52 53 53 54 54 53 54 52 52 52 52 52 50 41 41 42 42 42 42 42 40 39 41
45 46 46 46 46 46 45 45 44 43 43 43 44 45 45 45 45 47 49 49 50 51 51 51 51 50 50 49 49 49 49 49 47 43 39 40 40 41 41 38 37 36 38
44 44 43 43 42 41 41 41 41 41 41 41 42 42 42 41 42 43 44 47 49 49 50 49 49 48 48 47 47 46 46 45 44 42 39 38 38 39 39 36 32 30 32
42 42 41 41 40 39 39 39 39 39 39 39 39 40 40 40 40 41 42 44 46 46 46 46 46 46 46 45 44 44 43 43 42 40 38 37 36 37 37 34 31 28 24
41 40 40 39 38 38 38 38 38 38 38 38 39 39 38 38 39 40 40 41 42 41 41 41 41 43 44 43 42 42 41 40 41 39 37 36 34 35 35 32 30 26 24
40 39 38 38 38 37 37 37 37 37 38 38 38 38 38 38 39 40 41 39 39 39 39 38 39 41 41 42 41 40 39 38 38 38 37 35 34 33 31 29 27 23 23
39 38 38 38 37 37 37 37 37 37 37 37 37 37 37 37 39 40 41 40 39 38 37 37 36 37 38 38 38 38 39 39 38 36 37 35 33 31 28 25 24 22 21
38 38 38 37 37 37 37 37 36 36 36 36 37 36 36 37 39 40 40 38 38 38 37 37 36 34 34 32 29 29 28 26 31 34 35 33 29 28 27 25 23 23 24
38 38 38 38 37 37 36 36 36 37 37 37 36 35 35 36 38 40 38 36 36 36 35 35 34 33 34 31 27 27 28 29 31 30 29 29 30 29 27 24 22 22 22
38 38 38 38 38 37 37 36 36 37 37 36 35 35 36 36 38 39 36 34 33 33 30 30 34 31 33 31 25 24 26 29 29 29 30 30 29 29 29 24 25 21 23
39 38 38 38 38 37 36 36 36 36 35 35 34 35 36 36 36 38 36 31 31 29 28 27 28 31 31 31 29 25 23 28 28 28 26 26 26 26 27 27 26 25 23
39 38 38 38 38 37 36 36 36 36 35 34 34 34 34 35 36 36 37 34 28 27 26 26 26 31 29 29 28 27 28 28 24 21 24 24 24 24 25 26 26 25 25
39 38 37 37 37 37 36 36 35 35 34 34 33 33 33 33 32 35 35 35 28 26 24 25 26 30 31 27 24 22 25 25 23 20 21 23 24 24 25 24 24 23 23
38 37 37 37 36 36 36 35 35 34 33 33 33 32 32 32 30 27 32 33 32 26 25 26 28 28 28 27 26 24 26 24 22 21 21 23 24 24 24 23 23 23 22
37 37 37 37 37 36 36 35 35 34 34 33 33 33 32 31 30 28 28 28 28 26 22 22 24 26 26 25 24 25 27 25 23 21 22 24 24 24 24 23 22 22 20
36 36 37 37 37 36 35 35 36 36 35 35 36 34 32 33 35 32 33 33 30 29 24 22 23 23 24 24 22 21 24 27 25 22 22 24 25 24 24 23 22 21 20
35 35 35 36 36 35 35 34 33 34 36 36 37 36 37 36 35 36 35 34 31 29 25 23 23 24 24 23 24 22 20 24 26 25 22 24 25 24 25 22 22 21 21
34 35 35 35 35 35 35 34 34 33 32 32 34 36 36 36 36 36 36 33 29 30 28 27 25 24 23 23 22 22 22 22 23 24 24 22 23 23 23 23 22 22 21
34 35 35 35 35 35 34 34 33 33 32 32 32 33 35 37 37 37 35 32 27 28 29 29 28 25 23 22 21 20 21 21 21 22 23 22 22 22 23 23 23 23 22
35 36 36 35 35 35 34 34 33 32 32 32 32 32 32 33 32 34 34 32 28 26 28 28 28 26 26 25 24 22 21 20 21 21 21 22 22 23 23 23 23 22 24
34 34 35 35 35 34 34 33 33 32 32 31 32 33 33 31 31 32 33 32 32 29 27 27 27 27 27 26 26 25 23 22 22 22 22 21 22 22 22 23 22 22 22
32 32 32 32 33 33 33 33 33 32 32 31 32 32 34 34 32 31 31 32 32 33 29 27 27 27 27 27 26 26 25 23 23 23 23 22 22 22 22 23 23 22 22
29 29 30 31 31 32 32 32 32 32 31 32 32 31 31 32 32 32 31 31 32 32 32 32 29 28 28 28 28 27 26 25 25 25 24 23 22 22 22 22 22 22 22
25 25 25 26 27 30 30 31 31 32 32 31 31 31 31 31 31 32 32 32 32 32 32 32 31 31 30 30 29 29 28 28 27 27 25 23 22 22 22 22 22 21 21
24 23 23 23 23 23 23 24 26 28 29 31 31 31 31 31 31 32 32 32 32 32 31 31 31 31 31 31 31 31 29 28 28 27 26 24 22 22 22 22 21 21 21
22 22 22 22 22 21 21 21 21 21 23 24 24 27 30 31 31 32 32 32 32 31 31 31 31 31 31 31 31 31 32 31 31 29 27 25 24 22 22 22 22 21 20

GFSGL_sfc_30mbdewp_105.txt.gz
Dewpoint
55 53 53 53 51 50 51 50 50 49 50 50 50 50 50 49 49 49 50 51 51 51 52 52 52 53 53 53 53 53 53 53 52 42 42 42 43 43 43 43 42 41 43
50 50 50 49 48 48 47 46 46 45 45 45 46 46 45 45 44 45 46 48 49 49 51 51 51 51 51 50 50 51 51 50 48 44 39 40 41 42 41 40 39 36 39
46 46 45 45 44 43 43 42 42 42 42 42 42 42 41 41 41 41 42 43 46 48 48 49 49 48 49 48 47 47 47 47 45 43 39 39 39 41 39 36 34 32 34
44 43 43 42 41 40 40 40 40 40 39 39 40 40 40 39 40 40 40 41 43 44 44 44 45 46 46 46 45 45 44 44 43 42 39 37 37 38 38 34 31 27 26
42 42 41 40 39 39 38 38 38 38 38 38 38 38 38 38 40 40 40 39 40 41 40 40 40 42 43 44 44 43 42 42 42 40 39 37 35 36 36 33 31 26 24
41 40 39 38 38 38 37 37 37 37 38 38 38 38 37 38 40 40 40 40 39 38 38 38 38 39 40 42 42 42 41 40 40 39 38 37 35 35 33 32 28 26 26
40 39 38 38 37 37 37 37 37 36 37 36 36 36 36 37 39 40 41 39 38 39 38 37 37 37 38 39 39 38 39 40 39 38 38 37 35 34 32 29 27 24 22
39 38 38 38 37 37 37 36 36 36 36 36 36 36 35 36 39 39 40 37 37 37 38 37 37 36 35 34 32 32 29 29 33 36 36 36 35 32 32 29 26 24 24
38 38 38 38 37 37 36 36 36 36 36 36 36 36 35 35 37 39 39 36 35 35 36 35 35 34 35 34 30 30 29 29 31 32 32 32 31 31 28 26 24 23 22
38 38 38 38 37 37 36 36 36 36 36 36 36 35 35 36 37 39 39 34 33 34 32 31 35 34 35 34 26 27 28 29 30 30 30 30 31 31 29 25 25 22 22
39 38 38 38 37 37 36 36 36 36 35 36 35 35 35 36 36 37 38 34 32 31 30 29 28 35 34 34 30 25 25 29 30 28 27 27 27 27 27 26 26 22 21
39 38 38 38 38 37 36 36 35 36 36 35 35 35 35 35 36 37 37 37 33 29 28 28 27 30 33 32 32 29 28 30 25 26 24 25 25 25 26 26 26 25 25
38 38 37 37 37 36 36 36 36 36 35 34 34 34 34 34 33 34 36 37 37 30 26 25 28 28 33 29 27 25 27 27 22 21 24 23 24 25 25 24 24 24 25
38 37 37 37 36 36 36 36 36 35 34 34 33 33 33 33 33 32 30 34 34 34 29 27 27 28 28 29 29 25 25 26 23 22 21 24 25 24 24 23 23 22 22
37 37 36 36 37 36 36 36 35 35 35 34 34 33 33 33 32 33 31 28 30 30 27 22 22 26 28 27 25 26 26 26 24 22 22 23 23 24 24 23 22 22 21
36 36 36 37 37 37 36 35 36 37 36 36 36 36 34 34 35 36 36 34 33 33 29 23 22 22 25 26 25 23 25 26 25 23 22 23 24 24 24 23 22 22 21
34 34 34 36 36 36 36 35 34 34 36 37 37 37 37 37 37 36 36 35 35 34 29 25 23 23 23 25 25 25 24 24 27 26 23 23 24 24 25 23 23 22 21
34 34 34 34 34 35 35 34 34 34 33 33 34 36 36 37 37 37 37 35 34 33 30 28 25 24 24 24 24 25 24 23 24 25 25 24 24 24 24 24 23 22 22
34 34 34 34 34 35 34 34 34 34 33 33 33 34 35 35 36 37 37 35 32 29 29 29 27 26 26 25 24 23 23 22 22 23 24 24 24 23 23 24 23 24 23
34 35 36 35 35 35 34 34 33 33 33 33 32 32 33 33 32 32 34 35 33 31 28 28 29 29 28 26 25 24 23 22 23 23 22 23 23 23 22 22 23 22 24
32 32 33 32 33 34 33 33 33 33 32 32 32 33 34 32 32 32 32 33 33 32 30 28 28 28 28 27 27 26 24 23 22 22 22 21 22 22 22 23 23 23 23
27 31 31 31 31 32 32 33 32 32 32 32 32 33 34 34 33 32 32 32 33 34 33 33 29 28 28 28 27 27 26 25 25 24 23 22 22 22 22 22 23 23 22
25 25 25 27 29 31 31 31 31 31 31 31 32 31 32 32 32 32 32 32 32 32 33 33 32 30 29 29 29 28 27 26 26 25 24 24 23 22 22 22 22 22 22
24 23 23 23 23 24 24 26 27 29 30 30 31 31 31 31 31 31 32 32 32 32 32 32 32 32 32 31 30 29 29 29 28 27 25 24 23 23 22 22 22 21 21
22 22 22 22 22 22 22 22 21 22 23 24 24 25 26 28 30 31 32 32 32 32 32 32 32 32 31 31 31 32 31 31 31 30 28 26 25 24 23 23 22 22 21
20 21 21 21 21 21 21 21 21 22 22 22 22 23 23 25 26 27 28 29 31 31 32 32 32 31 31 31 32 32 32 32 32 31 30 28 26 25 24 23 23 22 22

GFSGL_sfc_30mbdewp_108.txt.gz
Dewpoint
56 55 55 54 53 52 52 51 50 50 51 51 51 50 50 49 48 49 49 50 50 50 51 51 51 51 52 52 52 52 53 53 52 43 42 43 43 44 44 43 43 43 45
53 53 52 51 50 49 48 47 47 47 46 47 47 46 45 44 44 44 44 45 46 47 48 50 49 50 49 50 50 50 50 51 50 47 40 41 42 43 42 41 38 38 41
50 49 48 48 47 46 45 44 43 43 43 43 43 42 41 41 40 40 41 42 43 45 45 46 46 46 47 47 47 47 47 47 46 44 40 40 40 42 40 38 35 36 39
47 46 46 45 44 43 42 41 41 41 40 40 40 39 39 39 39 39 40 40 40 41 41 41 41 42 43 45 45 45 45 45 44 43 40 39 39 40 39 35 32 29 27
43 43 42 41 40 39 39 39 39 39 38 39 38 38 38 39 40 39 39 39 38 39 39 39 39 40 42 44 44 43 43 43 43 42 40 38 37 37 37 35 33 27 25
42 41 40 39 38 38 38 38 38 37 37 38 38 37 37 38 41 41 40 38 38 38 37 37 37 38 39 41 42 42 42 41 41 40 39 38 37 37 36 34 30 26 28
40 39 38 38 37 37 37 37 37 37 37 36 36 36 36 37 40 40 41 37 37 37 37 37 37 37 37 38 37 37 38 39 41 39 39 38 37 35 35 32 30 28 27
39 38 38 38 37 37 37 36 36 36 36 36 36 36 35 36 39 39 39 36 35 35 36 36 37 37 36 37 34 33 31 30 31 37 37 38 37 35 35 34 30 26 25
38 38 38 38 37 37 36 36 36 35 35 36 36 36 35 35 37 39 39 36 34 33 35 35 35 35 35 37 32 31 30 30 32 34 34 34 34 35 31 29 27 26 23
38 38 38 38 37 36 36 35 35 35 36 36 36 36 36 35 36 38 39 36 34 33 32 31 31 36 35 36 29 28 28 29 30 30 30 30 31 33 30 27 27 27 23
39 38 38 38 37 37 36 36 36 35 35 36 36 35 35 35 35 37 38 37 35 32 30 30 29 31 35 36 33 26 25 28 31 28 27 27 27 27 26 26 26 24 21
39 38 38 37 37 36 36 36 35 35 35 35 36 35 34 35 36 36 38 38 37 32 30 28 28 30 32 34 33 33 30 30 28 27 26 26 25 25 26 26 26 26 26
38 38 38 37 37 36 36 35 35 35 36 35 35 34 34 34 34 35 36 37 38 34 29 27 29 29 30 33 30 30 28 29 24 24 24 23 25 25 25 24 25 26 26
38 37 37 36 36 36 36 36 36 36 35 35 34 34 34 34 34 33 33 32 34 36 34 30 29 27 29 30 31 28 25 27 26 22 21 24 25 25 24 23 22 22 22
37 37 37 36 37 36 36 36 36 36 35 34 34 34 34 33 33 34 33 31 31 31 31 26 24 23 26 27 27 26 25 26 26 23 22 22 24 24 24 23 22 22 20
36 36 36 36 36 36 36 36 37 37 37 37 37 35 34 35 36 36 36 36 36 33 32 28 25 23 23 25 26 26 25 26 25 25 23 23 23 23 23 23 22 21 21
34 34 34 35 36 36 36 36 35 35 37 38 38 38 38 38 37 37 37 37 35 34 34 30 27 25 24 23 25 25 24 24 26 26 24 23 24 24 25 23 23 22 21
33 34 34 33 33 34 34 34 34 34 34 34 35 36 37 37 37 38 38 37 34 34 33 31 28 26 25 24 24 24 25 25 25 25 25 25 24 23 24 24 23 23 22
34 34 34 34 33 34 34 34 34 34 34 34 33 34 36 36 36 36 37 36 34 32 32 30 29 27 26 25 25 25 25 24 23 24 25 25 24 24 23 24 24 24 24
33 34 34 33 33 34 34 34 33 33 33 33 33 33 34 34 33 33 33 33 33 33 32 30 29 28 28 27 26 26 25 25 24 23 23 23 24 24 24 23 24 23 25
26 30 32 31 31 32 32 32 32 32 32 32 32 33 35 33 32 32 32 32 32 33 33 32 30 30 30 28 28 27 26 25 24 24 24 22 23 23 23 24 23 23 22
25 27 26 28 30 30 31 32 31 31 31 31 32 33 34 34 33 32 32 32 33 33 34 33 32 30 30 30 29 28 27 26 26 25 24 23 23 22 22 22 23 23 22
23 23 23 23 24 25 26 28 29 30 30 31 31 31 31 31 31 31 31 32 32 32 33 32 32 32 32 32 31 30 28 27 27 26 25 24 23 22 22 21 21 22 22
22 22 22 22 22 23 22 23 23 23 24 25 25 27 27 27 29 31 31 32 32 32 32 32 32 32 32 32 31 31 31 31 31 29 27 26 25 24 23 22 22 22 22
21 21 21 21 21 21 21 21 21 21 22 22 22 23 22 22 24 26 27 29 29 30 31 32 32 32 32 32 32 32 32 31 31 31 30 28 27 25 24 23 22 22 22
20 20 20 21 20 20 21 21 22 22 22 21 22 23 21 20 21 22 22 25 26 25 26 27 29 30 31 32 32 32 32 32 32 32 31 29 27 26 26 25 24 23 22

GFSGL_sfc_30mbdewp_114.txt.gz
Dewpoint
60 60 59 59 58 59 59 59 59 59 59 58 57 56 55 54 54 54 53 52 51 51 52 51 50 49 50 50 51 51 51 51 50 50 49 47 47 48 47 47 48 48 49
58 58 58 58 58 58 56 56 56 56 55 54 53 52 50 50 50 50 48 48 48 48 48 48 47 47 48 49 49 49 50 50 49 48 47 45 46 46 46 45 43 43 45
56 55 55 55 55 53 52 52 52 52 51 50 49 47 46 45 44 44 44 44 45 45 46 46 46 46 46 47 46 47 47 47 47 47 45 42 43 44 43 41 40 40 42
54 53 52 52 52 52 50 49 49 48 47 46 45 43 42 41 41 41 41 42 42 42 43 43 43 43 44 44 45 45 44 45 46 45 43 42 42 42 42 39 37 37 36
51 51 50 49 48 48 47 46 45 44 43 42 41 40 40 40 40 40 41 41 41 41 41 40 41 41 40 42 42 43 42 42 43 44 42 41 40 39 39 38 37 35 33
48 47 46 44 44 44 43 42 42 41 40 40 39 40 40 40 41 40 40 39 39 39 39 39 39 39 40 40 42 42 42 41 41 42 41 40 40 39 39 37 34 33 34
44 43 43 42 41 41 40 40 40 39 39 39 39 40 40 41 42 40 39 39 39 38 38 39 38 38 38 38 38 37 37 37 38 39 40 40 40 39 38 36 34 33 34
41 41 40 40 40 39 39 39 39 39 39 39 39 39 41 41 41 40 39 38 37 36 37 37 37 37 37 38 38 37 36 34 33 36 34 36 38 38 38 38 36 31 28
40 40 40 39 39 38 39 39 39 39 39 39 39 38 39 39 40 40 39 37 36 36 35 36 36 36 37 37 37 35 34 33 32 36 36 37 37 37 37 34 33 31 29
40 40 39 39 39 38 39 39 39 39 39 39 39 39 38 38 39 40 39 37 36 35 34 34 33 34 36 37 37 34 32 31 31 30 30 31 32 35 33 31 33 33 30
40 40 39 39 39 39 39 38 38 39 38 38 38 38 37 37 37 39 40 38 36 35 35 34 32 33 33 36 37 34 32 28 30 29 28 28 28 28 28 28 30 33 31
40 39 39 39 38 38 38 38 38 38 38 37 37 37 36 36 37 37 39 39 38 36 36 35 32 31 33 33 35 35 34 30 28 27 27 27 27 28 29 29 29 30 30
39 39 39 38 38 37 37 37 36 37 36 36 36 36 36 36 36 38 38 38 38 38 37 36 32 31 31 31 33 33 34 31 28 26 26 27 28 30 30 30 30 31 31
38 38 38 38 37 37 37 37 37 36 36 37 36 36 36 35 36 36 36 37 37 37 37 36 34 32 30 28 28 32 30 28 27 27 27 27 28 29 28 29 29 29 29
39 39 38 38 38 37 36 37 37 37 37 37 37 37 36 35 35 36 35 34 34 34 34 32 30 29 28 27 27 27 28 27 26 27 27 27 26 26 26 28 28 28 27
35 36 37 37 38 38 37 37 38 38 38 38 38 37 36 37 35 36 36 36 37 36 33 31 30 29 28 28 26 25 25 26 26 27 28 28 27 27 27 27 27 26 26
34 35 34 34 34 36 36 36 36 37 39 39 38 38 38 37 37 37 38 38 38 37 36 33 32 31 30 29 29 28 28 26 30 30 29 29 29 28 27 26 26 26 25
33 34 34 34 34 34 34 34 35 35 35 35 37 38 39 39 39 39 39 39 37 37 36 34 33 32 31 30 29 30 30 29 29 29 30 30 29 28 27 26 26 25 25
32 33 34 34 34 35 35 34 34 34 34 34 35 35 36 37 38 38 38 37 35 35 35 34 34 33 32 30 31 32 32 31 31 30 29 29 29 29 27 27 27 26 25
29 28 31 32 32 32 32 32 33 33 33 33 33 34 34 35 34 34 35 35 35 34 34 34 34 33 32 32 32 32 32 31 30 30 29 30 29 29 27 27 26 26 25
25 25 26 25 26 29 31 31 31 31 31 32 32 33 34 32 32 32 32 33 33 33 33 33 33 33 33 32 32 31 30 31 31 30 30 30 29 28 27 26 25 26 26
23 23 23 23 23 23 26 27 29 30 30 30 31 32 33 32 32 32 32 32 32 32 33 32 32 33 33 32 32 31 31 31 31 31 30 29 29 28 27 26 25 25 25
24 22 22 22 22 23 22 22 23 24 24 25 26 27 29 29 30 30 30 31 31 32 32 32 32 32 33 33 32 32 31 31 32 32 31 29 28 28 28 27 26 25 24
23 20 19 19 20 20 20 20 21 21 21 21 21 22 23 23 22 23 24 26 26 27 28 30 31 31 32 32 32 32 32 32 32 31 31 30 29 29 28 27 27 26 25
23 20 18 18 19 19 18 19 20 20 21 21 20 20 22 21 21 20 19 21 23 24 24 24 25 25 26 25 26 26 28 30 32 32 31 30 30 29 29 28 27 27 27
22 19 18 18 19 19 19 18 19 20 21 21 21 22 21 21 20 20 20 21 22 23 22 21 21 22 23 23 23 22 22 23 25 26 28 31 30 29 29 28 27 27 27

GFSGL_sfc_30mbdewp_117.txt.gz
Dewpoint
60 60 60 59 59 60 59 60 60 60 61 61 61 61 61 60 60 58 57 56 56 54 53 52 51 50 50 51 51 51 50 50 49 49 50 50 49 49 48 48 49 49 50
60 59 59 58 58 58 58 59 60 60 60 60 59 58 57 57 56 55 53 52 51 50 50 49 48 48 48 49 50 49 49 49 49 46 48 47 47 47 47 46 45 44 46
59 58 58 58 58 57 57 57 58 58 57 57 56 54 53 52 51 50 49 48 47 47 47 47 47 46 47 48 48 47 46 46 46 47 46 44 44 44 44 42 41 42 42
56 56 56 56 55 55 55 55 55 54 54 52 50 48 47 46 45 44 44 44 44 44 45 45 44 44 44 45 45 45 44 44 44 44 45 44 43 43 43 41 39 38 38
54 54 53 53 53 51 51 51 51 51 49 46 44 43 42 42 41 42 42 43 42 42 43 42 43 41 40 42 42 43 42 42 41 42 41 42 41 40 40 40 38 36 36
51 50 49 49 49 48 47 46 45 44 43 42 42 41 41 39 41 42 42 41 41 41 40 40 40 39 40 40 42 41 42 41 40 40 40 40 40 40 40 38 36 35 36
47 46 46 46 46 45 45 44 44 42 42 41 41 41 41 41 41 41 41 41 40 40 40 40 39 38 38 39 39 38 38 37 37 38 38 39 40 40 39 37 36 35 36
44 45 45 44 44 43 42 42 41 41 41 41 41 42 42 42 41 40 40 40 39 38 38 38 38 38 38 38 38 38 38 37 35 36 36 35 35 37 38 38 37 34 29
41 41 41 41 41 40 41 41 41 41 41 40 40 41 42 42 42 40 39 39 38 37 36 37 37 37 37 37 38 36 36 35 33 36 35 35 36 38 39 36 34 32 31
41 40 41 41 41 41 41 41 41 41 40 40 40 40 40 40 41 41 40 38 37 36 35 35 35 35 37 38 37 36 34 33 31 32 31 31 32 32 33 31 34 33 31
41 40 40 40 40 40 40 40 40 40 39 40 39 39 38 38 39 40 40 38 37 36 35 34 34 35 34 35 37 37 34 31 30 31 29 28 29 29 28 28 30 34 32
40 40 40 40 39 40 40 39 40 39 39 38 38 37 38 38 38 40 40 40 38 37 36 36 34 32 33 34 35 35 36 34 31 28 27 27 28 28 30 30 30 31 31
40 40 40 39 39 39 38 38 38 38 38 37 37 37 37 36 36 38 39 40 39 38 38 37 35 32 32 32 33 34 34 35 32 28 27 27 29 32 30 30 31 31 31
38 38 38 38 38 37 38 38 37 37 37 37 37 37 37 37 36 37 38 39 39 39 38 38 37 34 33 30 29 30 33 32 30 29 28 29 30 30 29 30 30 30 29
39 39 39 39 39 38 37 38 37 38 38 37 38 38 37 36 36 37 36 36 37 37 37 35 34 32 30 29 29 28 29 30 28 28 27 28 28 28 28 29 29 28 27
35 35 36 37 38 38 38 38 39 40 40 40 39 39 38 38 38 38 37 37 36 36 34 32 32 31 30 29 28 27 27 27 27 28 29 29 28 28 28 28 28 27 27
34 34 34 34 34 34 36 36 36 37 40 40 40 40 40 38 39 38 38 38 37 38 34 33 32 32 30 30 29 29 29 28 29 30 30 30 30 28 28 28 26 27 26
33 34 34 34 34 34 34 34 35 35 35 36 39 40 40 40 39 39 39 39 37 38 36 35 34 33 32 32 31 30 31 31 30 30 30 30 30 29 27 26 27 26 26
31 32 32 34 33 34 34 34 34 34 34 34 35 35 36 38 39 39 39 38 36 35 36 35 35 34 33 32 31 31 32 33 32 31 30 30 30 29 28 28 28 27 26
27 26 28 31 30 32 32 32 32 32 33 33 33 34 34 34 34 35 36 36 35 35 35 35 35 34 34 33 32 33 33 32 32 31 30 29 29 29 28 27 27 27 26
24 23 25 23 24 25 26 30 31 31 31 31 32 33 34 33 32 32 32 33 33 33 33 33 34 34 34 33 32 32 31 31 31 31 31 30 29 28 28 28 27 27 26
23 23 22 22 22 22 23 25 25 26 28 29 30 31 33 32 32 31 32 32 32 32 32 32 32 33 33 32 32 32 31 31 31 31 31 31 31 30 29 29 28 27 26
25 23 21 20 21 22 23 22 23 23 23 23 24 25 27 29 29 30 30 31 31 31 31 32 31 32 33 33 32 32 31 31 32 32 31 30 30 30 30 29 28 27 26
24 22 20 18 19 20 20 19 20 21 21 21 21 21 22 23 22 22 23 24 25 26 28 28 30 29 30 30 31 32 31 32 32 31 31 31 30 30 29 29 28 28 28
25 23 20 18 18 18 18 18 19 20 20 21 21 21 20 22 21 21 21 21 23 24 25 24 25 25 25 26 25 25 26 27 29 29 31 31 30 29 29 29 28 28 28
26 23 19 18 19 19 20 20 20 20 21 21 21 22 22 22 22 22 21 21 22 23 24 23 22 22 22 23 23 23 22 22 23 24 26 27 28 29 29 29 28 28 28

GFSGL_sfc_30mbdewp_120.txt.gz
Dewpoint
59 59 59 59 60 60 60 60 60 61 61 61 61 62 61 61 61 61 60 59 58 57 56 55 53 52 51 51 51 50 50 50 48 48 50 49 48 48 48 48 49 49 50
59 59 59 59 59 59 59 60 60 60 61 60 60 60 60 60 60 59 58 58 56 54 53 51 50 49 48 49 50 49 48 48 48 46 47 46 46 46 46 46 45 44 46
59 59 58 58 58 58 59 59 60 60 60 60 59 58 58 58 58 58 56 54 52 51 50 49 48 47 47 48 47 46 46 46 46 45 45 45 44 44 44 43 41 42 42
58 57 57 57 57 56 57 58 58 58 57 57 57 56 55 55 54 51 50 48 47 46 46 46 45 45 45 46 46 45 44 44 43 43 43 44 43 43 43 42 40 39 39
54 55 55 54 54 54 54 54 54 53 53 51 50 50 49 48 45 45 45 44 44 44 43 43 43 41 42 42 42 43 42 41 41 40 39 41 41 40 40 41 39 38 37
50 50 51 50 50 50 50 50 50 49 48 46 45 44 42 41 43 43 43 43 42 42 40 40 39 39 40 41 42 42 41 40 39 39 39 38 38 39 40 39 37 36 37
47 47 47 47 47 46 46 46 46 45 46 45 44 42 41 42 43 43 42 42 41 41 40 39 39 39 39 40 40 39 39 38 39 38 37 37 38 39 39 38 37 36 36
46 46 46 45 44 44 44 44 44 44 44 43 43 42 41 42 42 42 41 41 40 39 39 39 39 38 39 38 38 38 38 38 36 36 36 35 36 36 37 38 37 36 32
42 42 43 44 43 42 42 41 42 41 41 41 42 42 41 41 41 41 40 39 38 37 38 38 38 37 38 38 37 36 36 36 35 37 35 35 35 37 39 37 35 33 33
41 41 42 42 42 42 42 41 42 41 41 40 40 41 42 41 41 40 39 38 37 36 36 36 37 36 39 38 36 36 35 33 31 31 31 30 31 31 33 32 34 33 33
41 41 40 41 42 42 42 41 41 40 40 39 39 39 40 41 41 41 40 38 37 36 35 34 35 36 36 36 38 36 35 33 31 30 29 28 28 28 28 28 30 33 33
41 41 40 40 40 40 39 39 40 39 39 39 38 38 38 38 40 42 41 41 38 36 36 35 34 35 34 35 35 36 37 35 31 29 27 27 27 27 29 29 30 31 31
39 39 39 39 39 39 39 38 38 39 38 38 37 37 37 37 38 40 41 41 41 38 37 36 35 34 33 33 34 35 34 34 33 30 27 26 27 30 30 29 30 30 30
39 38 38 39 38 37 38 38 37 37 37 37 37 37 37 37 36 38 39 40 40 39 39 38 38 36 34 33 31 32 33 33 33 30 28 28 29 28 26 29 29 29 29
37 38 38 39 39 38 38 38 38 38 39 38 38 38 37 37 37 37 38 38 39 39 38 37 36 35 33 31 30 29 29 31 30 28 27 27 28 28 28 28 27 27 26
35 35 35 35 37 38 38 38 40 40 40 41 41 40 39 40 40 39 39 38 38 39 36 34 34 33 32 31 30 29 28 28 28 28 27 27 27 27 26 27 27 26 25
33 34 34 34 34 34 35 35 35 36 38 40 40 40 40 40 40 40 39 39 39 38 35 33 32 32 31 30 30 29 29 28 27 26 26 27 27 28 28 26 26 25 25
33 33 33 33 34 34 34 34 34 34 34 34 36 39 40 40 40 39 40 39 36 37 35 34 33 33 32 31 31 31 31 30 30 29 28 28 28 28 27 25 25 24 24
31 30 30 31 32 32 33 33 33 33 33 34 34 35 36 36 38 40 40 37 35 35 36 35 35 34 33 33 32 32 31 31 31 30 28 28 28 28 27 26 25 26 26
26 25 26 28 28 28 28 30 31 31 31 32 32 33 34 34 33 34 36 36 36 35 35 35 35 35 34 34 33 32 32 32 32 32 31 30 29 28 27 26 26 26 26
24 23 23 23 23 24 24 25 29 29 30 30 31 32 34 33 32 32 32 33 33 33 33 34 34 34 34 34 33 32 32 32 32 32 31 31 30 29 28 28 27 27 26
24 24 23 22 22 22 22 24 24 24 25 25 28 29 30 32 31 31 31 31 32 32 32 32 32 32 32 32 32 32 31 31 31 31 31 31 30 30 30 29 27 27 27
25 25 22 21 21 22 22 23 22 22 22 22 22 22 24 27 28 29 29 30 31 31 31 31 31 31 32 32 32 32 31 31 32 32 31 30 30 30 30 29 29 28 28
23 24 23 20 19 20 20 20 20 20 21 21 21 21 21 23 22 22 22 22 24 26 27 30 29 29 29 30 31 31 32 31 31 31 31 31 30 30 29 28 28 28 28
21 24 24 21 18 19 19 19 19 19 19 21 22 22 22 22 22 22 22 21 22 23 24 24 25 25 24 25 25 25 25 26 28 29 30 30 29 29 28 28 28 27 27
22 26 24 20 18 19 19 20 20 20 20 21 22 21 22 23 23 24 23 21 21 23 24 23 23 21 21 22 22 23 23 23 23 23 26 27 26 27 28 28 28 27 27